[[{"header":{"parameterUnit":"m.s-1","parameterCategory":1,"la1":30.6,"la2":28.766,"lo1":-90.7593,"lo2":-88.6598,"dy":0.0162,"dx":0.0183,"nx":116,"ny":114,"refTime":"2023-03-16T18:00:00:Z","depth":0,"parameterNumber":2,"parameterNumberName":"U-component_of_WINDS"},"data":[0.0,0.0,0.0,0.0,0.0,0.0,0.0,0.0,0.0,0.0,0.0,0.0,0.0,0.0,0.0,0.0,0.0,0.0,0.0,0.0,0.0,0.0,0.0,0.0,0.0,0.0,0.0,0.0,0.0,0.0,0.0,0.0,0.0,0.0,0.0,0.0,0.0,0.0,0.0,0.0,0.0,0.0,0.0,0.0,0.0,0.0,0.0,0.0,0.0,0.0,0.0,0.0,0.0,0.0,0.0,0.0,0.0,0.0,0.0,0.0,0.0,0.0,0.0,0.0,0.0,0.0,0.0,0.0,0.0,0.0,0.0,0.0,0.0,0.0,0.0,0.0,0.0,0.0,0.0,0.0,0.0,0.0,0.0,0.0,0.0,0.0,0.0,0.0,0.0,0.0,0.0,0.0,0.0,0.0,0.0,0.0,0.0,0.0,0.0,0.0,0.0,0.0,0.0,0.0,0.0,0.0,0.0,0.0,0.0,0.0,0.0,0.0,0.0,0.0,0.0,0.0,0.0,0.0,0.0,0.0,0.0,0.0,0.0,0.0,0.0,0.0,0.0,0.0,0.0,0.0,0.0,0.0,0.0,0.0,0.0,0.0,0.0,0.0,0.0,0.0,0.0,0.0,0.0,0.0,0.0,0.0,0.0,0.0,0.0,0.0,0.0,0.0,0.0,0.0,0.0,0.0,0.0,0.0,0.0,0.0,0.0,0.0,0.0,0.0,0.0,0.0,0.0,0.0,0.0,0.0,0.0,0.0,0.0,0.0,0.0,0.0,0.0,0.0,0.0,0.0,0.0,0.0,0.0,0.0,0.0,0.0,0.0,0.0,0.0,0.0,0.0,0.0,0.0,0.0,0.0,0.0,0.0,0.0,0.0,0.0,0.0,0.0,0.0,0.0,0.0,0.0,0.0,0.0,0.0,0.0,0.0,0.0,0.0,0.0,0.0,0.0,0.0,0.0,0.0,0.0,0.0,0.0,0.0,0.0,0.0,0.0,0.0,0.0,0.0,0.0,0.0,0.0,0.0,0.0,0.0,0.0,0.0,0.0,0.0,0.0,0.0,0.0,0.0,0.0,0.0,0.0,0.0,0.0,0.0,0.0,0.0,0.0,0.0,0.0,0.0,0.0,0.0,0.0,0.0,0.0,0.0,0.0,0.0,0.0,0.0,0.0,0.0,0.0,0.0,0.0,0.0,0.0,0.0,0.0,0.0,0.0,0.0,0.0,0.0,0.0,0.0,0.0,0.0,0.0,0.0,0.0,0.0,0.0,0.0,0.0,0.0,0.0,0.0,0.0,0.0,0.0,0.0,0.0,0.0,0.0,0.0,0.0,0.0,0.0,0.0,0.0,0.0,0.0,0.0,0.0,0.0,0.0,0.0,0.0,0.0,0.0,0.0,0.0,0.0,0.0,0.0,0.0,0.0,0.0,0.0,0.0,0.0,0.0,0.0,0.0,0.0,0.0,0.0,0.0,0.0,0.0,0.0,0.0,0.0,0.0,0.0,0.0,0.0,0.0,0.0,0.0,0.0,0.0,0.0,0.0,0.0,0.0,0.0,0.0,0.0,0.0,0.0,0.0,0.0,0.0,0.0,0.0,0.0,0.0,0.0,0.0,0.0,0.0,0.0,0.0,0.0,0.0,0.0,0.0,0.0,0.0,0.0,0.0,0.0,0.0,0.0,0.0,0.0,0.0,0.0,0.0,0.0,0.0,0.0,0.0,0.0,0.0,0.0,0.0,0.0,0.0,0.0,0.0,0.0,0.0,0.0,0.0,0.0,0.0,0.0,0.0,0.0,0.0,0.0,0.0,0.0,0.0,0.0,0.0,0.0,0.0,0.0,0.0,0.0,0.0,0.0,0.0,0.0,0.0,0.0,0.0,0.0,0.0,0.0,0.0,0.0,0.0,0.0,0.0,0.0,0.0,0.0,0.0,0.0,0.0,0.0,0.0,0.0,0.0,0.0,0.0,0.0,0.0,0.0,0.0,0.0,0.0,0.0,0.0,0.0,0.0,0.0,0.0,0.0,0.0,0.0,0.0,0.0,0.0,0.0,0.0,0.0,0.0,0.0,0.0,0.0,0.0,0.0,0.0,0.0,0.0,0.0,0.0,0.0,0.0,0.0,0.0,0.0,0.0,0.0,0.0,0.0,0.0,0.0,0.0,0.0,0.0,0.0,0.0,0.0,0.0,0.0,0.0,0.0,0.0,0.0,0.0,0.0,0.0,0.0,0.0,0.0,0.0,0.0,0.0,0.0,0.0,0.0,0.0,0.0,0.0,0.0,0.0,0.0,0.0,0.0,0.0,0.0,0.0,0.0,0.0,0.0,0.0,0.0,0.0,0.0,0.0,0.0,0.0,0.0,0.0,0.0,0.0,0.0,0.0,0.0,0.0,0.0,0.0,0.0,0.0,0.0,0.0,0.0,0.0,0.0,0.0,0.0,0.0,0.0,0.0,0.0,0.0,0.0,0.0,0.0,0.0,0.0,0.0,0.0,0.0,0.0,0.0,0.0,0.0,0.0,0.0,0.0,0.0,0.0,0.0,0.0,0.0,0.0,0.0,0.0,0.0,0.0,0.0,0.0,0.0,0.0,0.0,0.0,0.0,0.0,0.0,0.0,0.0,0.0,0.0,0.0,0.0,0.0,0.0,0.0,0.0,0.0,0.0,0.0,0.0,0.0,0.0,0.0,0.0,0.0,0.0,0.0,0.0,0.0,0.0,0.0,0.0,0.0,0.0,0.0,0.0,0.0,0.0,0.0,0.0,0.0,0.0,0.0,0.0,0.0,0.0,0.0,0.0,0.0,0.0,0.0,0.0,0.0,0.0,0.0,0.0,0.0,0.0,0.0,0.0,0.0,0.0,0.0,0.0,0.0,0.0,0.0,0.0,0.0,0.0,0.0,0.0,0.0,0.0,0.0,0.0,0.0,0.0,0.0,0.0,0.0,0.0,0.0,0.0,0.0,0.0,0.0,0.0,0.0,0.0,0.0,0.0,0.0,0.0,0.0,0.0,0.0,0.0,0.0,0.0,0.0,0.0,0.0,0.0,0.0,0.0,0.0,0.0,0.0,0.0,0.0,0.0,0.0,0.0,0.0,0.0,0.0,0.0,0.0,0.0,0.0,0.0,0.0,0.0,0.0,0.0,0.0,0.0,0.0,0.0,0.0,0.0,0.0,0.0,0.0,0.0,0.0,0.0,0.0,0.0,0.0,0.0,0.0,0.0,0.0,0.0,0.0,0.0,0.0,0.0,0.0,0.0,0.0,0.0,0.0,0.0,0.0,0.0,0.0,0.0,0.0,0.0,0.0,0.0,0.0,0.0,0.0,0.0,0.0,0.0,0.0,0.0,0.0,0.0,0.0,0.0,0.0,0.0,0.0,0.0,0.0,0.0,0.0,0.0,0.0,0.0,0.0,0.0,0.0,0.0,0.0,0.0,0.0,0.0,0.0,0.0,0.0,0.0,0.0,0.0,0.0,0.0,0.0,0.0,0.0,0.0,0.0,0.0,0.0,0.0,0.0,0.0,0.0,0.0,0.0,0.0,0.0,0.0,0.0,0.0,0.0,0.0,0.0,0.0,0.0,0.0,0.0,0.0,0.0,0.0,0.0,0.0,0.0,0.0,0.0,0.0,0.0,0.0,0.0,0.0,0.0,0.0,0.0,0.0,0.0,0.0,0.0,0.0,0.0,0.0,0.0,0.0,0.0,0.0,0.0,0.0,0.0,0.0,0.0,0.0,0.0,0.0,0.0,0.0,0.0,0.0,0.0,0.0,0.0,0.0,0.0,0.0,0.0,0.0,0.0,0.0,0.0,0.0,0.0,0.0,0.0,0.0,0.0,0.0,0.0,0.0,0.0,0.0,0.0,0.0,0.0,0.0,0.0,0.0,0.0,0.0,0.0,0.0,0.0,0.0,0.0,0.0,0.0,0.0,0.0,0.0,0.0,0.0,0.0,0.0,0.0,0.0,0.0,0.0,0.0,0.0,0.0,0.0,0.0,0.0,0.0,0.0,0.0,0.0,0.0,0.0,0.0,0.0,0.0,0.0,0.0,0.0,0.0,0.0,0.0,0.0,0.0,0.0,0.0,0.0,0.0,0.0,0.0,0.0,0.0,0.0,0.0,0.0,0.0,0.0,0.0,0.0,0.0,0.0,0.0,0.0,0.0,0.0,0.0,0.0,0.0,0.0,0.0,0.0,0.0,0.0,0.0,0.0,0.0,0.0,0.0,0.0,0.0,0.0,0.0,0.0,0.0,0.0,0.0,0.0,0.0,0.0,0.0,0.0,0.0,0.0,0.0,0.0,0.0,0.0,0.0,0.0,0.0,0.0,0.0,0.0,0.0,0.0,0.0,0.0,0.0,0.0,0.0,0.0,0.0,0.0,0.0,0.0,0.0,0.0,0.0,0.0,0.0,0.0,0.0,0.0,0.0,0.0,0.0,0.0,0.0,0.0,0.0,0.0,0.0,0.0,0.0,0.0,0.0,0.0,0.0,0.0,0.0,0.0,0.0,0.0,0.0,0.0,0.0,0.0,0.0,0.0,0.0,0.0,0.0,0.0,0.0,0.0,0.0,0.0,0.0,0.0,0.0,0.0,0.0,0.0,0.0,0.0,0.0,0.0,0.0,0.0,0.0,0.0,0.0,0.0,0.0,0.0,0.0,0.0,0.0,0.0,0.0,0.0,0.0,0.0,0.0,0.0,0.0,0.0,0.0,0.0,0.0,0.0,0.0,0.0,0.0,0.0,0.0,0.0,0.0,0.0,0.0,0.0,0.0,0.0,0.0,0.0,0.0,0.0,0.0,0.0,0.0,0.0,0.0,0.0,0.0,0.0,0.0,0.0,0.0,0.0,0.0,0.0,0.0,0.0,0.0,0.0,0.0,0.0,0.0,0.0,0.0,0.0,0.0,0.0,0.0,0.0,0.0,0.0,0.0,0.0,0.0,0.0,0.0,0.0,0.0,0.0,0.0,0.0,0.0,0.0,0.0,0.0,0.0,0.0,0.0,0.0,0.0,0.0,0.0,0.0,0.0,0.0,0.0,0.0,0.0,0.0,0.0,0.0,0.0,0.0,0.0,0.0,0.0,0.0,0.0,0.0,0.0,0.0,0.0,0.0,0.0,0.0,0.0,0.0,0.0,0.0,0.0,0.0,0.0,0.0,0.0,0.0,0.0,0.0,0.0,0.0,0.0,0.0,0.0,0.0,0.0,0.0,0.0,0.0,0.0,0.0,0.0,0.0,0.0,0.0,0.0,0.0,0.0,0.0,0.0,0.0,0.0,0.0,0.0,0.0,0.0,0.0,0.0,0.0,0.0,0.0,0.0,0.0,0.0,0.0,0.0,0.0,0.0,0.0,0.0,0.0,0.0,0.0,0.0,0.0,0.0,0.0,0.0,0.0,0.0,0.0,0.0,0.0,0.0,0.0,0.0,0.0,0.0,0.0,0.0,0.0,0.0,0.0,0.0,0.0,0.0,0.0,0.0,0.0,0.0,0.0,0.0,0.0,0.0,0.0,0.0,0.0,0.0,0.0,0.0,0.0,0.0,0.0,0.0,0.0,0.0,0.0,0.0,0.0,0.0,0.0,0.0,0.0,0.0,0.0,0.0,0.0,0.0,0.0,0.0,0.0,0.0,0.0,0.0,0.0,0.0,0.0,0.0,0.0,0.0,0.0,0.0,0.0,0.0,0.0,0.0,0.0,0.0,0.0,0.0,0.0,0.0,0.0,0.0,0.0,0.0,0.0,0.0,0.0,0.0,0.0,0.0,0.0,0.0,0.0,0.0,0.0,0.0,0.0,0.0,0.0,0.0,0.0,0.0,0.0,0.0,0.0,0.0,0.0,0.0,0.0,0.0,0.0,0.0,0.0,0.0,0.0,0.0,0.0,0.0,0.0,0.0,0.0,0.0,0.0,0.0,0.0,0.0,0.0,0.0,0.0,0.0,0.0,0.0,0.0,0.0,0.0,0.0,0.0,0.0,0.0,0.0,0.0,0.0,0.0,0.0,0.0,0.0,0.0,0.0,0.0,0.0,0.0,0.0,0.0,0.0,0.0,0.0,0.0,0.0,0.0,0.0,0.0,0.0,0.0,0.0,0.0,1.5669,0.0,0.0,0.0,0.0,0.0,0.0,0.0,0.0,0.0,0.0,0.0,0.0,0.0,0.0,0.0,0.0,0.0,0.0,0.0,0.0,0.0,0.0,0.0,0.0,0.0,0.0,0.0,0.0,0.0,0.0,0.0,0.0,0.0,0.0,0.0,0.0,0.0,0.0,0.0,0.0,0.0,0.0,0.0,0.0,0.0,0.0,0.0,0.0,0.0,0.0,0.0,0.0,0.0,0.0,0.0,0.0,0.0,0.0,0.0,0.0,0.0,0.0,0.0,0.0,0.0,0.0,0.0,0.0,0.0,0.0,0.0,0.0,0.0,0.0,0.0,0.0,0.0,0.0,0.0,0.0,0.0,0.0,0.0,0.0,0.0,0.0,0.0,0.0,0.0,0.0,0.0,0.0,0.0,0.0,0.0,0.0,0.0,0.0,0.0,0.0,0.0,0.0,0.0,0.0,0.0,0.0,0.0,0.0,0.0,0.0,0.0,0.0,0.0,0.0,0.0,0.0,1.512,0.0,0.0,0.0,0.0,0.0,0.0,0.0,0.0,0.0,0.0,0.0,0.0,0.0,0.0,0.0,0.0,0.0,0.0,0.0,0.0,0.0,0.0,0.0,0.0,0.0,0.0,0.0,0.0,0.0,0.0,0.0,0.0,0.0,0.0,0.0,0.0,0.0,0.0,0.0,0.0,0.0,0.0,0.0,0.0,0.0,0.0,0.0,0.0,0.0,0.0,0.0,0.0,0.0,0.0,0.0,0.0,0.0,0.0,0.0,0.0,0.0,0.0,0.0,0.0,0.0,0.0,0.0,0.0,0.0,0.0,0.0,0.0,0.0,0.0,0.0,0.0,0.0,0.0,0.0,0.0,0.0,0.0,0.0,0.0,0.0,0.0,0.0,0.0,0.0,0.0,0.0,0.0,0.0,0.0,0.0,0.0,0.0,0.0,0.0,0.0,0.0,0.0,0.0,0.0,0.0,0.0,0.0,0.0,1.514,1.514,1.514,1.514,1.5267,1.5458,1.524,1.5639,1.6387,1.5503,0.0,0.0,0.0,0.0,0.0,0.0,0.0,0.0,0.0,0.0,0.0,0.0,0.0,0.0,0.0,0.0,0.0,0.0,0.0,0.0,0.0,0.0,0.0,0.0,0.0,0.0,0.0,0.0,0.0,0.0,0.0,0.0,0.0,0.0,0.0,0.0,0.0,0.0,0.0,0.0,0.0,0.0,0.0,0.0,0.0,0.0,0.0,0.0,0.0,0.0,0.0,0.0,0.0,0.0,0.0,0.0,0.0,0.0,0.0,0.0,0.0,0.0,0.0,0.0,0.0,0.0,0.0,0.0,0.0,0.0,0.0,0.0,0.0,0.0,0.0,0.0,0.0,0.0,0.0,0.0,0.0,0.0,0.0,0.0,0.0,0.0,1.2202,1.4414,0.0,0.0,0.0,0.0,0.0,0.0,0.0,0.0,0.0,0.0,0.0,0.0,0.0,1.3984,1.5337,1.4481,1.4599,1.5688,1.5688,1.5688,1.5688,1.5688,1.5708,1.5748,1.5708,0.0,1.5893,1.5759,0.0,0.0,0.0,0.0,0.0,0.0,0.0,0.0,0.0,0.0,0.0,0.0,0.0,0.0,0.0,0.0,0.0,0.0,0.0,0.0,0.0,0.0,0.0,0.0,0.0,0.0,0.0,0.0,0.0,0.0,0.0,0.0,0.0,0.0,0.0,0.0,0.0,0.0,0.0,0.0,0.0,0.0,0.0,0.0,0.0,0.0,0.0,0.0,0.0,0.0,0.0,0.0,0.0,0.0,0.0,0.0,0.0,0.0,0.0,0.0,0.0,0.0,0.0,0.0,0.0,0.0,0.0,0.0,0.0,0.0,0.0,0.0,0.0,0.0,0.0,0.0,0.0,0.0,0.0,0.0,0.0,0.0,0.0,0.0,0.0,0.9296,0.9962,1.1706,1.0388,0.9354,0.0,0.0,0.0,0.0,0.0,0.0,0.0,0.0,0.0,1.2154,1.1719,1.2105,1.3411,1.3748,1.3806,1.362,1.437,1.4346,1.362,1.362,1.362,1.3644,1.4394,1.4728,1.4782,1.551,1.5808,1.5808,0.0,0.0,0.0,0.0,1.5808,1.5808,0.0,0.0,0.0,0.0,0.0,0.0,0.0,0.0,0.0,0.0,0.0,0.0,0.0,0.0,0.0,0.0,0.0,0.0,0.0,0.0,0.0,0.0,0.0,0.0,0.0,0.0,0.0,0.0,0.0,0.0,0.0,0.0,0.0,0.0,0.0,0.0,0.0,0.0,0.0,0.0,0.0,0.0,0.0,0.0,0.0,0.0,0.0,0.0,0.0,0.0,0.0,0.0,0.0,0.0,0.0,0.0,0.0,0.0,0.0,0.0,0.0,0.0,0.0,0.0,0.0,0.0,0.0,0.0,0.0,0.0,0.0,0.0,0.0,0.0,0.0,0.0,0.0,0.9016,0.9049,0.999,0.9071,0.8398,0.0,0.0,0.0,0.0,0.0,0.0,0.8482,0.8506,0.9118,1.0435,1.0485,1.095,1.1896,1.2885,1.2885,1.1901,1.2915,1.2861,1.1896,1.1896,1.1896,1.1969,1.2958,1.3392,1.3512,1.5123,1.5808,1.5808,1.5808,1.5808,1.5808,1.5808,1.5808,1.5754,0.0,0.0,0.0,0.0,0.0,0.0,0.0,0.0,0.0,0.0,0.0,0.0,0.0,0.0,0.0,0.0,0.0,0.0,0.0,0.0,0.0,0.0,0.0,0.0,0.0,0.0,0.0,0.0,0.0,0.0,0.0,0.0,0.0,0.0,0.0,0.0,0.0,0.0,0.0,0.0,0.0,0.0,0.0,0.0,0.0,0.0,0.0,0.0,0.0,0.0,0.0,0.0,0.0,0.0,0.0,0.0,0.0,0.0,0.0,0.0,0.0,0.0,0.0,0.0,0.0,0.0,0.0,0.0,0.0,0.0,0.0,0.0,0.0,0.0,0.0,0.0,0.0,0.0,0.0,1.176,1.0667,0.0,0.0,0.0,0.0,0.7988,0.7988,0.8552,0.9825,0.9903,1.0485,1.1755,1.1804,1.1853,1.1896,1.1969,1.1969,1.1896,1.1969,1.1969,1.1896,1.1896,1.1896,1.1896,1.1969,1.1994,1.2188,1.4758,1.5808,1.5808,1.5808,1.5808,1.5808,1.5808,1.5808,1.5635,0.0,0.0,0.0,0.0,0.0,0.0,0.0,0.0,0.0,0.0,0.0,0.0,0.0,0.0,0.0,0.0,0.0,0.0,0.0,0.0,0.0,0.0,0.0,0.0,0.0,0.0,0.0,0.0,0.0,0.0,0.0,0.0,0.0,0.0,0.0,0.0,0.0,0.0,0.0,0.0,0.0,0.0,0.0,0.0,0.0,0.0,0.0,0.0,0.0,0.0,0.0,0.0,0.0,0.0,0.0,0.0,0.0,0.0,0.0,0.0,0.0,0.0,0.0,0.0,0.0,0.0,0.0,0.0,0.0,0.0,0.0,0.0,0.0,0.0,0.0,0.0,0.0,0.0,0.0,0.9386,0.8994,0.0,0.8701,0.8283,0.7988,0.7988,0.7988,0.8212,0.8676,0.8701,0.892,0.9386,0.9386,0.9386,0.9386,1.0331,1.0396,0.9585,1.0496,1.0501,0.9719,0.9719,0.9719,0.977,1.0578,1.0929,1.1081,1.2867,1.3489,1.3282,1.3282,1.3372,1.3483,1.3483,1.354,1.3549,0.0,0.0,0.0,0.0,0.0,0.0,0.0,0.0,0.0,0.0,0.0,0.0,0.0,0.0,0.0,0.0,0.0,-0.0182,-0.0653,0.0,0.0,0.0,0.0,0.0,0.0,0.0,0.0,0.0,0.0,0.0,0.0,0.0,0.0,0.0,0.0,0.0,0.0,0.0,0.0,0.0,0.0,0.0,0.0,0.0,0.0,0.0,0.0,0.0,0.0,0.0,0.0,0.0,0.0,0.0,0.0,0.0,0.0,0.0,0.0,0.0,0.0,0.0,0.0,0.0,0.0,0.0,0.0,0.0,0.0,0.0,0.0,0.0,0.0,0.0,0.0,0.0,0.0,0.7988,0.7988,0.7988,0.7988,0.7988,0.7988,0.7988,0.7988,0.7988,0.7988,0.8037,0.8088,0.8091,0.8115,0.8162,0.8162,0.8162,0.8162,0.914,0.9197,0.8369,0.9309,0.9309,0.8509,0.8509,0.8509,0.8535,0.9388,0.9745,0.9823,1.0729,1.0961,1.0829,1.1721,1.2159,1.2279,1.2279,1.2323,1.235,0.0,0.0,0.0,0.0,0.0,0.0,0.0,0.0,0.0,0.0,0.0,0.0,0.0,0.0,0.0,0.0,0.0,-0.0571,-0.1923,-0.2,0.0,0.0,0.0,0.0,-0.0025,-0.0051,-0.005,-0.005,-0.0101,-0.0101,-0.005,-0.005,-0.0051,0.0,0.0,0.0,0.0,0.0,0.0,0.0,0.0,0.0,0.0,0.0,0.0,0.0,0.0,0.0,0.0,0.0,0.0,0.0,0.0,0.0,0.0,0.0,0.0,0.0,0.0,0.0,0.0,0.0,0.0,0.0,0.0,0.0,0.0,0.0,0.0,0.0,0.0,0.0,0.0,0.0,0.0,0.0,0.7814,0.7988,0.7988,0.7988,0.7988,0.7988,0.7988,0.8017,0.7995,0.7995,0.8027,0.8094,0.8294,0.8304,0.8366,0.8505,0.8509,0.8509,0.8515,0.8519,0.8526,0.8529,0.8536,0.8536,0.8536,0.8536,0.8536,0.8536,0.8536,0.8536,0.8536,0.8536,0.8536,0.8766,1.1303,1.2278,1.2283,1.2283,1.2288,1.2113,0.0,0.0,0.0,0.0,0.0,0.0,0.0,0.0,0.0,0.0,0.0,0.0,0.0,0.0,0.0,0.0,0.0,-0.058,-0.1901,0.0,0.0,0.0,0.0,0.0,-0.0025,-0.0958,-0.146,-0.146,-0.2414,-0.2413,-0.146,-0.146,-0.0932,0.0,0.0,0.0,0.0,0.0,0.0,0.0,0.0,0.0,0.0,0.0,0.0,0.0,0.0,0.0,0.0,0.0,0.0,0.0,0.0,0.0,0.0,0.0,0.0,0.0,0.0,0.0,0.0,0.0,0.0,0.0,0.0,0.0,0.0,0.0,0.0,0.0,0.0,0.0,0.0,0.0,0.4316,0.5345,0.7686,0.7988,0.7988,0.7988,0.7988,0.7988,0.7988,0.814,0.8208,0.8208,0.8303,0.8381,0.8447,0.8451,0.8468,0.8505,0.8509,0.8533,0.8648,0.873,0.8866,0.8998,0.9111,0.9162,0.9162,0.9162,0.9162,0.9162,0.9162,0.9162,0.9162,0.9162,0.9162,0.9174,0.9473,0.9643,0.9728,0.9728,0.9781,0.9807,0.0,0.0,0.0,0.0,0.0,0.0,0.0,0.0,0.0,0.0,0.0,0.0,0.0,0.0,0.0,0.0,-0.0503,-0.1398,-0.2754,0.0,0.0,0.0,0.0,-0.3041,-0.1711,-0.244,-0.284,-0.284,-0.3615,-0.359,-0.2815,-0.2264,-0.1586,-0.0807,-0.0252,0.0,0.0,0.0,0.0,0.0,0.0,0.0,0.0,0.0,0.0,0.0,0.0,0.0,0.0,0.0,0.0,0.0,0.0,0.0,0.0,0.0,0.0,0.0,0.0,0.0,0.0,0.0,0.0,0.0,0.0,0.0,0.0,0.0,0.0,0.0,0.0,0.0,0.0,0.0,0.3632,0.4532,0.6106,0.7354,0.8136,0.8136,0.8162,0.8199,0.8199,0.8306,0.8386,0.8386,0.8461,0.8537,0.8665,0.8672,0.873,0.8883,0.8886,0.8903,0.8991,0.9079,0.9164,0.9277,0.9369,0.941,0.941,0.941,0.941,0.941,0.941,0.941,0.941,0.941,0.941,0.0,0.0,0.0,0.0,0.0,0.9049,0.9095,0.0,0.0,0.0,0.0,0.0,0.0,0.0,0.0,0.0,0.0,0.0,0.0,0.0,0.0,0.0,0.0,-0.1236,-0.2571,0.0,0.0,0.0,-0.5827,-0.5777,-0.5222,-0.4016,-0.4141,-0.4218,-0.4218,-0.4366,-0.4366,-0.4191,-0.3016,-0.2364,-0.2163,-0.0983,-0.0454,-0.0454,-0.0454,-0.0353,-0.0227,-0.0379,-0.0278,0.0,0.0,0.0,0.0,0.0,0.0,0.0,0.0,0.0,0.0,0.0,0.0,0.0,0.0,0.0,0.0,0.0,0.0,0.0,0.0,0.0,0.0,0.0,0.0,0.0,0.0,0.0,0.0,0.0,0.0,0.0,0.0,0.3006,0.3828,0.3968,0.6209,0.7895,0.8061,0.8326,0.8509,0.8509,0.8539,0.848,0.8292,0.8295,0.8346,0.8409,0.0,0.0,0.0,0.0,0.942,0.9408,0.9437,0.9444,0.9432,0.9432,0.9432,0.9432,0.9432,0.9432,0.9432,0.9432,0.9432,0.9432,0.9432,0.9432,0.9458,0.9424,0.941,0.941,0.941,0.941,0.941,0.0,0.0,0.0,0.0,0.0,0.0,0.0,0.0,0.0,0.0,0.0,0.0,0.0,0.0,0.0,0.0,-0.123,-0.2568,0.0,0.0,-0.4668,-0.4393,-0.4393,-0.4268,-0.4016,-0.5072,-0.5602,-0.5602,-0.6703,-0.6678,-0.56,-0.535,-0.4647,-0.359,-0.3341,-0.3215,-0.3215,-0.3215,-0.2614,-0.1711,-0.279,-0.1938,0.0,0.0,0.0,0.0,0.0,0.0,0.0,0.0,0.0,0.0,0.0,0.0,0.0,0.0,0.0,0.0,0.0,0.0,0.0,0.0,0.0,0.0,0.0,0.0,0.0,0.0,0.0,0.0,0.0,0.0,0.0,0.1824,0.222,0.2777,0.3842,0.4576,0.5414,0.655,0.7748,0.8509,0.8509,0.8706,0.8294,0.6993,0.7081,0.6658,0.5427,0.6587,0.7306,0.738,0.8703,0.9442,0.9564,0.9564,0.9622,0.9737,0.0,0.0,0.9737,0.9737,0.9737,0.9737,0.9737,0.9737,0.9737,0.9737,0.9737,0.9713,0.9476,0.941,0.941,0.941,0.941,0.941,0.0,0.0,0.0,0.0,0.0,0.0,0.0,0.0,0.0,0.0,0.0,0.0,0.0,0.0,-0.0271,-0.0933,-0.2218,0.0,0.0,-0.4995,-0.4995,-0.4995,-0.5647,-0.5997,-0.5997,-0.6656,-0.7008,-0.7008,-0.7662,-0.7662,-0.6983,-0.6306,-0.5652,-0.497,-0.4293,-0.3991,-0.3991,-0.3991,-0.3615,-0.3065,-0.374,-0.319,-0.2013,-0.2013,-0.2013,-0.2013,-0.2013,-0.2013,-0.2013,-0.2013,-0.1561,-0.1109,-0.1787,-0.1536,-0.1008,0.0,0.0,0.0,0.0,0.0,0.0,0.0,0.0,0.0,0.0,0.0,0.0,0.0,0.0,0.0,0.0,0.0,0.0214,0.0889,0.0998,0.1244,0.1906,0.2681,0.3707,0.5091,0.6704,0.7379,0.658,0.7354,0.7238,0.5606,0.5631,0.5379,0.4624,0.5367,0.5833,0.5909,0.6722,0.7167,0.7256,0.7256,0.7708,0.859,0.859,0.9019,0.9792,0.9792,0.9792,0.9792,0.9792,0.9792,0.9792,0.9792,0.9792,0.9775,0.9659,0.9602,0.9602,0.9602,0.9602,0.9602,0.0,0.0,0.0,0.0,0.0,0.0,0.0,0.0,0.0,0.0,0.0,0.0,0.0,-0.0202,-0.0996,0.0,0.0,0.0,0.0,-0.5752,-0.5727,-0.5979,-0.7285,-0.7988,-0.7988,-0.7988,-0.7988,-0.7988,-0.7988,-0.7988,-0.7963,-0.6883,-0.6381,-0.6329,-0.527,-0.4768,-0.4768,-0.4768,-0.4618,-0.4418,-0.4668,-0.4618,-0.4418,-0.4668,-0.4443,-0.3991,-0.3991,-0.3991,-0.3991,-0.3991,-0.3291,-0.2589,-0.3665,-0.3265,-0.2388,-0.2388,-0.2395,0.0,0.0,0.0,0.0,0.0,0.0,0.0,0.0,0.0,0.0,0.0,0.0,0.0,0.0,0.0,0.0,0.0,0.0,0.0,0.0,0.1024,0.2159,0.3245,0.5203,0.5915,0.4625,0.5683,0.5798,0.4181,0.4076,0.4017,0.3798,0.4103,0.4308,0.4424,0.4732,0.4885,0.4885,0.4901,0.5581,0.69,0.6919,0.758,0.8851,0.8851,0.9038,0.9379,0.9753,0.991,0.991,0.991,0.991,0.991,0.991,0.991,0.9903,0.9812,0.9792,0.9792,0.0,0.0,0.0,0.0,0.0,0.0,0.0,0.0,0.0,0.0,0.0,0.0,0.0,0.0,0.0,0.0,0.0,0.0,-0.5822,-0.4895,-0.4745,-0.5954,-0.7285,-0.7988,-0.7988,-0.7988,-0.7988,-0.7988,-0.7988,-0.7988,-0.7988,-0.7839,-0.7786,-0.7761,-0.7612,-0.7559,-0.7559,-0.7559,-0.6855,-0.5877,-0.7083,-0.683,-0.5902,-0.7107,-0.6071,-0.3991,-0.3991,-0.3991,-0.3991,-0.3991,-0.389,-0.379,-0.3966,-0.389,-0.3765,-0.3765,0.0,-0.3912,-0.3758,-0.2868,-0.164,-0.0319,0.0,0.0,0.0,0.0,0.0,0.0,0.0,0.0,0.0,0.0,0.0,0.0,0.0,0.0,0.0,0.0144,0.0288,0.0466,0.3007,0.4705,0.4529,0.4774,0.4252,0.2578,0.2612,0.2084,0.0615,0.1935,0.2765,0.277,0.4149,0.4885,0.4885,0.4886,0.5008,0.5166,0.5171,0.5268,0.5459,0.5459,0.632,0.7949,0.9554,1.0229,1.0229,1.0229,1.0229,1.0229,1.0229,1.0229,1.0195,0.992,0.9792,0.9792,0.0,0.0,0.0,0.0,0.0,0.0,0.0,0.0,0.0,0.0,0.0,0.0,0.0,0.0,0.0,0.0,0.0,0.0,-0.5922,-0.5475,-0.5425,-0.5979,-0.7285,-0.7988,-0.7988,-0.7988,-0.7988,-0.7988,-0.7988,-0.7988,-0.7988,-0.7988,-0.7988,-0.7988,-0.7988,-0.7988,-0.7988,-0.7988,-0.7686,-0.721,-0.7761,-0.7662,-0.7235,-0.7789,-0.7307,-0.6326,-0.6326,-0.6326,0.0,0.0,-0.5799,-0.5297,-0.6074,-0.5864,-0.5327,-0.5327,-0.5426,0.0,-0.3491,-0.2615,-0.1839,-0.0378,0.0,0.0,0.0,0.0,0.0,0.0,0.0,0.0,0.0,0.0,0.0,0.0,0.0,0.0,0.0,0.0,0.0,0.0,0.1112,0.1896,0.1878,0.2808,0.2712,0.1038,0.0983,0.074,0.0031,0.0653,0.1031,0.1031,0.17,0.2055,0.2055,0.2035,0.2549,0.35,0.3491,0.3981,0.491,0.491,0.5904,0.7638,0.8408,0.9309,1.0312,1.0312,1.0312,1.0312,1.0312,1.0312,1.0263,1.0134,1.0086,1.0086,0.0,0.0,0.0,0.0,0.0,0.0,0.0,0.0,0.0,0.0,0.0,0.0,0.0,0.0,0.0,0.0,0.0,0.0,0.0,-0.6188,-0.6154,-0.6531,-0.7484,-0.7988,-0.7988,-0.7988,-0.7988,-0.7988,-0.7988,-0.7988,-0.7988,-0.7988,-0.7988,-0.7988,-0.7988,-0.7988,-0.7988,-0.7988,-0.7988,-0.7988,-0.7988,-0.7988,-0.7988,-0.7988,-0.7988,-0.7988,-0.7988,-0.7988,0.0,0.0,-0.7384,-0.681,-0.7773,-0.7534,-0.691,-0.691,-0.7003,-0.6494,-0.3604,-0.2829,-0.238,-0.0467,0.0,0.0,0.0,0.0,0.0,0.0,0.0,0.0,0.0,0.0,0.0,0.0,0.0,0.0,0.0,0.0,0.0,0.0,0.0,0.0,0.0,0.1102,0.1295,0.0093,0.0,0.0,0.0,0.0,0.0,0.0,0.0,0.0,0.0,0.0,0.0616,0.1813,0.182,0.2408,0.3575,0.4062,0.5003,0.6269,0.6787,0.7731,0.9001,0.9455,0.9681,0.9713,1.0205,1.0402,1.0402,1.0402,1.0351,1.0312,0.0,0.0,0.0,0.0,0.0,0.0,0.0,0.0,0.0,0.0,0.0,0.0,0.0,0.0,0.0,0.0,0.0,0.0,0.0,-0.6638,-0.6581,-0.7889,-0.7988,-0.7988,-0.7988,-0.7988,-0.7988,-0.7988,-0.7988,-0.7988,-0.7988,-0.7988,-0.7988,-0.7988,-0.7988,-0.7988,-0.7988,-0.7988,-0.7988,-0.7988,-0.7988,-0.7988,-0.7988,-0.7988,-0.7988,-0.7988,-0.7988,0.0,0.0,0.0,-0.8115,-0.824,-0.8287,-0.836,0.0,-0.8423,-0.8528,0.0,-0.519,-0.4437,-0.3712,-0.0756,0.0,0.0,0.0,0.0,0.0,0.0,0.0,0.0,0.0,0.0,0.0,0.0,0.0,0.0,0.0,0.0,0.0,0.0,0.0,0.0,0.0,0.0031,0.0062,0.0,0.0,0.0,0.0,0.0,0.0,0.0,0.0,0.0,0.0,0.0,0.0033,0.0066,0.0067,0.0101,0.0202,0.1979,0.2782,0.2949,0.4721,0.5491,0.5689,0.7388,0.8053,0.8255,0.9998,1.0707,1.0707,1.0707,1.0527,1.0312,0.0,0.0,0.0,0.0,0.0,0.0,0.0,0.0,0.0,0.0,0.0,0.0,0.0,0.0,0.0,0.0,0.0,0.0,0.0,-0.7417,-0.7435,-0.7985,-0.7988,-0.7988,-0.7988,-0.7988,-0.7988,-0.7988,-0.7988,-0.7988,-0.7988,-0.7988,-0.7988,-0.7988,-0.7988,-0.7988,-0.7988,-0.7988,-0.7988,-0.7988,-0.7988,-0.7988,-0.7988,-0.7988,-0.7988,-0.7988,0.0,0.0,0.0,0.0,0.0,0.0,-0.8406,0.0,0.0,-0.873,0.0,0.0,-0.6495,-0.5947,-0.5472,-0.3493,-0.2991,-0.2991,-0.2991,-0.2991,-0.2991,-0.2991,-0.3045,-0.3123,-0.3123,-0.2333,-0.1662,-0.1662,-0.074,0.0,0.0,0.0,0.0,0.0,0.0,0.0,0.0,0.0,0.0,0.0,0.0,0.0,0.0,0.0,0.0,0.0,0.0,0.0,0.0,0.0,0.0,0.0,0.0,0.0,0.0034,0.0639,0.1579,0.2719,0.3355,0.4292,0.5429,0.603,0.6965,0.8064,0.8668,0.9643,1.0688,1.0688,1.0623,1.0571,0.0,0.0,0.0,0.0,0.0,0.0,0.0,0.0,0.0,0.0,0.0,0.0,0.0,0.0,0.0,0.0,0.0,0.0,0.0,0.0,-0.7831,-0.7929,-0.7986,-0.7988,-0.7988,-0.7988,-0.7988,-0.7988,-0.7988,-0.7988,-0.7988,-0.7988,-0.7988,-0.7988,-0.7988,-0.7988,-0.7988,-0.7988,-0.7988,-0.7988,-0.7988,-0.7988,-0.7988,-0.7988,-0.7988,0.0,0.0,0.0,0.0,0.0,0.0,0.0,0.0,0.0,0.0,0.0,-0.8912,-0.8574,-0.7091,-0.6702,-0.6339,-0.4862,-0.4498,-0.4498,-0.4498,-0.4498,-0.4498,-0.4498,-0.4613,-0.4692,-0.4692,-0.3499,-0.2488,-0.2488,-0.1082,0.0,0.0,0.0,0.0,0.0,0.0,0.0,0.0,0.0,0.0,0.0,0.0,0.0,0.0,0.0,0.0,0.0,0.0,0.0,0.0,0.0,0.0,0.0,0.0,0.0,0.0,0.0,0.0639,0.1747,0.1747,0.2383,0.3523,0.4158,0.5093,0.6227,0.7495,0.8701,0.9812,1.0452,1.0688,1.0688,0.0,0.0,0.0,0.0,0.0,0.0,0.0,0.0,0.0,0.0,0.0,0.0,0.0,0.0,0.0,0.0,0.0,0.0,0.0,0.0,0.0,-0.7811,-0.7925,-0.7982,-0.7988,-0.7988,-0.7988,-0.7988,-0.7988,-0.7988,-0.7988,-0.7988,-0.7988,-0.7988,-0.7988,-0.7988,-0.7988,-0.7988,-0.7988,-0.7988,-0.7988,-0.7988,-0.7988,-0.7988,0.0,0.0,0.0,0.0,0.0,0.0,0.0,0.0,0.0,-0.8794,-0.8912,-0.8912,-0.8912,-0.8602,-0.7204,-0.6813,-0.6478,-0.5085,-0.4721,-0.4721,-0.4721,-0.4724,-0.4728,-0.4728,-0.4848,-0.4959,-0.4959,-0.3682,-0.2619,-0.2619,-0.116,0.0,0.0,0.0,0.0,0.0,0.0,0.0,0.0,0.0,0.0,0.0,0.0,0.0,0.0,0.0,0.0,0.0,0.0,0.0,0.0,0.0,0.0,0.0,0.0,0.0,0.0,0.0,0.0,0.0,0.0,0.0,0.0135,0.1847,0.2618,0.302,0.6427,0.7831,0.8197,0.9911,1.0621,1.0688,0.0,0.0,0.0,0.0,0.0,0.0,0.0,0.0,0.0,0.0,0.0,0.0,0.0,0.0,0.0,0.0,0.0,0.0,0.0,0.0,0.0,0.0,0.0,0.0,0.0,0.0,0.0,0.0,-0.7988,-0.7988,-0.7988,-0.7988,-0.7988,-0.7988,-0.7988,-0.7988,-0.7988,-0.7988,-0.7988,-0.7988,0.0,-0.7988,-0.7988,0.0,0.0,0.0,0.0,0.0,0.0,0.0,-0.8628,-0.8852,-0.8852,-0.8879,-0.8912,-0.8912,-0.8912,-0.8826,-0.8436,-0.8349,-0.8239,-0.7873,-0.7789,-0.7789,-0.7789,-0.7891,-0.8016,-0.8016,-0.8199,-0.8363,-0.8363,-0.6116,-0.4279,-0.4279,-0.1874,0.0,0.0,0.0,0.0,0.0,0.0,0.0,0.0,0.0,0.0,0.0,0.0,0.0,0.0,0.0,0.0,0.0,0.0,0.0,0.0,0.0,0.0,0.0,0.0,0.0,0.0,0.0,0.0,0.0,0.0,0.0,0.0034,0.0504,0.1478,0.2786,0.3689,0.5659,0.8064,0.8532,0.9543,1.0688,0.0,0.0,0.0,0.0,0.0,0.0,0.0,0.0,0.0,0.0,0.0,0.0,0.0,0.0,0.0,0.0,0.0,0.0,0.0,0.0,0.0,0.0,0.0,0.0,0.0,0.0,0.0,0.0,0.0,0.0,-0.7988,-0.7988,-0.7988,-0.7988,-0.7988,-0.7988,-0.7988,-0.7988,0.0,0.0,0.0,0.0,0.0,0.0,0.0,0.0,0.0,0.0,0.0,-0.8635,-0.877,-0.8912,-0.8912,-0.8912,-0.8912,-0.8912,-0.8912,-0.8912,-0.8912,-0.8912,-0.8912,-0.8912,-0.8912,-0.8926,-0.9018,-0.9124,-0.9228,-0.9267,-0.9442,-0.9608,-0.9608,-0.7022,-0.4885,-0.4885,-0.2155,0.0,0.0,0.0,0.0,0.0,0.0,0.0,0.0,0.0,0.0,0.0,0.0,0.0,0.0,0.0,0.0,0.0,0.0,0.0,0.0,0.0,0.0,0.0,0.0,0.0,0.0,0.0,0.0,0.0,0.0,0.0,0.0,0.0,0.0605,0.1579,0.2383,0.3923,0.5759,0.6562,0.8,0.9507,0.0,0.0,0.0,0.0,0.0,0.0,0.0,0.0,0.0,0.0,0.0,0.0,0.0,0.0,0.0,0.0,0.0,0.0,0.0,0.0,0.0,0.0,0.0,0.0,0.0,0.0,0.0,0.0,0.0,0.0,0.0,0.0,0.0,0.0,0.0,0.0,0.0,0.0,0.0,0.0,0.0,0.0,0.0,0.0,0.0,0.0,0.0,0.0,0.0,-0.8784,-0.8892,-0.8912,-0.8912,-0.8912,-0.8912,-0.8912,-0.8912,-0.8912,-0.8912,-0.8912,-0.8912,-0.8912,-0.8926,-0.8998,-0.9152,-0.9241,-0.9281,-0.9413,-0.9534,-0.9639,-0.9639,-0.7213,-0.5161,-0.4948,-0.234,-0.0247,-0.0031,0.0,0.0,0.0,0.0,0.0,0.0,0.0,0.0,0.0,0.0,0.0,0.0,0.0,0.0,0.0,0.0,0.0,0.0,0.0,0.0,0.0,0.0,0.0,0.0,0.0,0.0,0.0,0.0,0.0,0.0,0.0,0.0,0.0168,0.1713,0.2484,0.2919,0.4727,0.6498,0.803,0.0,0.0,0.0,0.0,0.0,0.0,0.0,0.0,0.0,0.0,-0.6439,0.0,0.0,0.0,0.0,0.0,0.0,0.0,0.0,0.0,0.0,0.0,0.0,0.0,0.0,0.0,0.0,0.0,0.0,0.0,0.0,0.0,0.0,0.0,0.0,0.0,0.0,0.0,0.0,0.0,0.0,0.0,0.0,0.0,0.0,0.0,0.0,0.0,0.0,0.0,-0.8804,-0.8912,-0.8912,-0.8912,-0.8912,-0.8912,-0.8912,-0.8912,-0.8912,-0.8912,-0.8912,-0.8912,-0.9028,-0.9152,-0.9204,-0.9376,-0.9537,-0.9564,-0.9683,-0.9754,-0.9754,-0.8237,-0.6505,-0.5131,-0.3291,-0.1571,-0.0185,0.0,0.0,0.0,0.0,0.0,0.0,0.0,0.0,0.0,0.0,0.0,0.0,0.0,0.0,0.0,0.0,0.0,0.0,0.0,0.0,0.0,0.0,0.0,0.0,0.0,0.0,0.0,0.0,0.0,0.0,0.0,0.0,0.0034,0.0336,0.1378,0.2919,0.4727,0.6498,0.8197,0.0,0.0,0.0,0.0,0.0,0.0,0.0,0.0,0.0,0.0,-0.6361,-0.6429,0.0,0.0,0.0,0.0,0.0,0.0,0.0,0.0,0.0,0.0,0.0,0.0,0.0,0.0,0.0,0.0,0.0,0.0,0.0,0.0,0.0,0.0,0.0,0.0,0.0,0.0,0.0,0.0,0.0,0.0,0.0,0.0,0.0,0.0,0.0,0.0,0.0,0.0,-0.8784,-0.8912,-0.8912,-0.8912,-0.8912,-0.8912,-0.8912,-0.8912,-0.8912,-0.8912,-0.8929,-0.9032,-0.9128,-0.9223,-0.9383,-0.9503,-0.9632,-0.9703,-0.9744,-0.9792,-0.9792,-0.8495,-0.7146,-0.6322,-0.4117,-0.2217,-0.1417,-0.0555,0.0,0.0,0.0,0.0,0.0,0.0,0.0,0.0,0.0,0.0,0.0,0.0,0.0,0.0,0.0,0.0,0.0,0.0,0.0,0.0,0.0,0.0,0.0,0.0,0.0,0.0,0.0,0.0,0.0,0.0,0.0,0.0,0.0,0.0538,0.1411,0.2283,0.4324,0.6765,0.0,0.0,0.0,0.0,0.0,0.0,0.0,-0.63,-0.63,-0.63,-0.63,-0.634,-0.6453,-0.6474,-0.659,0.0,0.0,0.0,0.0,0.0,0.0,0.0,0.0,0.0,0.0,0.0,0.0,0.0,0.0,0.0,0.0,0.0,0.0,0.0,0.0,0.0,0.0,0.0,0.0,0.0,0.0,0.0,0.0,0.0,0.0,0.0,0.0,0.0,-0.8526,0.0,-0.8757,-0.8912,-0.8912,-0.8912,-0.8912,-0.8912,-0.8912,-0.8912,-0.8912,-0.8912,-0.8946,-0.9145,-0.9234,-0.9301,-0.9547,-0.9632,-0.9686,-0.9768,-0.9792,-0.9792,-0.9792,-0.8775,-0.7789,-0.7451,-0.525,-0.3291,-0.2585,-0.1356,-0.0401,-0.0031,0.0,0.0,0.0,0.0,0.0,0.0,0.0,0.0,0.0,0.0,0.0,0.0,0.0,0.0,0.0,0.0,0.0,0.0,0.0,0.0,0.0,0.0,0.0,0.0,0.0,0.0,0.0,0.0,0.0,0.0,0.0,0.0,0.0034,0.0437,0.2618,0.5462,0.0,0.0,0.0,0.0,0.0,0.0,0.0,-0.63,-0.63,-0.63,-0.63,-0.6306,-0.6317,-0.6433,-0.6501,0.0,0.0,0.0,0.0,0.0,0.0,0.0,0.0,0.0,0.0,0.0,0.0,0.0,0.0,0.0,0.0,0.0,0.0,0.0,0.0,0.0,0.0,0.0,0.0,0.0,0.0,0.0,0.0,0.0,0.0,0.0,0.0,-0.8241,-0.8509,-0.8526,-0.8696,-0.8912,-0.8912,-0.8912,-0.8912,-0.8912,-0.8912,-0.8912,-0.8912,-0.8912,-0.8946,-0.9145,-0.9288,-0.9434,-0.9571,-0.968,-0.9775,-0.9788,-0.9792,-0.9792,-0.9792,-0.9667,-0.9113,-0.7637,-0.7146,-0.5923,-0.2923,-0.2371,-0.1694,-0.0185,0.0,0.0,0.0,0.0,0.0,0.0,0.0,0.0,0.0,0.0,0.0,0.0,0.0,0.0,0.0,0.0,0.0,0.0,0.0,0.0,0.0,0.0,0.0,0.0,0.0,0.0,0.0,0.0,0.0,0.0,0.0,0.0,0.0202,0.1847,0.369,0.5629,0.0,0.0,0.0,0.0,0.0,0.0,0.0,-0.63,-0.63,-0.63,-0.63,-0.63,-0.63,-0.6351,-0.6419,0.0,0.0,0.0,0.0,0.0,0.0,0.0,0.0,0.0,0.0,0.0,0.0,0.0,0.0,0.0,0.0,0.0,0.0,0.0,0.0,0.0,0.0,0.0,0.0,0.0,0.0,0.0,0.0,0.0,0.0,0.0,0.0,0.0,-0.8509,-0.8509,-0.8686,-0.8912,-0.8912,-0.8912,-0.8912,-0.8912,-0.8912,-0.8912,-0.8912,-0.9001,-0.9131,-0.9281,-0.9434,-0.9557,-0.9703,-0.9751,-0.9792,-0.9792,-0.9792,-0.9792,-0.9792,-0.9792,-0.9576,-0.8958,-0.8036,-0.6933,-0.5647,-0.4577,-0.3353,-0.1694,-0.1518,-0.1096,-0.0097,0.0,0.0,0.0,0.0,0.0,0.0,0.0,0.0,0.0,0.0,0.0,0.0,0.0,0.0,0.0,0.0,0.0,0.0,0.0,0.0,0.0,0.0,0.0,0.0,0.0,0.0,0.0,0.0,0.0,0.0101,0.0807,0.2919,0.5498,0.0,0.0,0.0,0.0,0.0,0.0,-0.63,-0.63,-0.63,-0.63,-0.63,-0.63,-0.63,-0.63,-0.634,-0.6443,0.0,0.0,0.0,0.0,0.0,0.0,0.0,0.0,0.0,0.0,0.0,0.0,0.0,0.0,0.0,0.0,0.0,0.0,0.0,0.0,0.0,0.0,0.0,0.0,0.0,0.0,0.0,0.0,0.0,0.0,0.0,0.0,0.0,0.0,0.0,-0.8912,-0.8912,0.0,0.0,-0.8912,-0.8912,-0.8912,-0.8912,-0.9045,-0.922,-0.9373,-0.9496,-0.9646,-0.9758,-0.9792,-0.9792,-0.9792,-0.9792,-0.9792,-0.9792,-0.9792,-0.9792,-0.9792,-0.8836,-0.7942,-0.7482,-0.6383,-0.4862,-0.2756,-0.2502,-0.1837,-0.0162,0.0,0.0,0.0,0.0,0.0,0.0,0.0,0.0,0.0,0.0,0.0,0.0,0.0,0.0,0.0,0.0,0.0,0.0,0.0,0.0,0.0,0.0,0.0,0.0,0.0,0.0,0.0,0.0,0.0,0.0,0.0,0.2283,0.5397,0.0,0.0,0.0,0.0,0.0,0.0,0.0,-0.63,-0.63,-0.63,-0.63,-0.63,-0.63,-0.63,-0.63,-0.6303,0.0,0.0,0.0,0.0,0.0,0.0,0.0,0.0,0.0,0.0,0.0,0.0,0.0,0.0,0.0,0.0,0.0,0.0,0.0,0.0,0.0,0.0,0.0,0.0,0.0,0.0,0.0,0.0,0.0,0.0,0.0,0.0,0.0,0.0,0.0,0.0,0.0,0.0,0.0,0.0,-0.8912,-0.8912,-0.8912,-0.9045,-0.922,-0.9373,-0.9496,-0.9646,-0.9758,-0.9792,-0.9792,-0.9792,-0.9792,-0.9792,-0.9792,-0.9792,-0.9792,-0.9792,-0.9792,-0.9204,-0.7637,-0.739,-0.6171,-0.289,-0.2486,-0.1844,-0.0164,0.0,0.0,0.0,0.0,0.0,0.0,0.0,0.0,0.0,0.0,0.0,0.0,0.0,0.0,0.0,0.0,0.0,0.0,0.0,0.0,0.0,0.0,0.0,0.0,0.0,0.0,0.0,0.0,0.0,0.0,0.0,0.2283,0.5397,0.0,0.0,0.0,0.0,0.0,0.0,0.0,-0.63,-0.63,-0.63,-0.63,-0.63,-0.63,-0.63,-0.6586,-0.7269,0.0,0.0,0.0,0.0,0.0,0.0,0.0,0.0,0.0,0.0,0.0,0.0,0.0,0.0,0.0,0.0,0.0,0.0,0.0,0.0,0.0,0.0,0.0,0.0,0.0,0.0,0.0,0.0,0.0,0.0,0.0,0.0,0.0,0.0,0.0,0.0,0.0,0.0,0.0,0.0,0.0,-0.9114,-0.9114,-0.9273,-0.9476,-0.9523,-0.9646,-0.9737,-0.9781,-0.9792,-0.9792,-0.9792,-0.9792,-0.9792,-0.9792,-0.9792,-0.9792,-0.9792,-0.9792,-0.9636,-0.9113,-0.8097,-0.6578,-0.4393,-0.2156,-0.0586,-0.0067,0.0,0.0,0.0,0.0,0.0,0.0,0.0,0.0,0.0,0.0,0.0,0.0,0.0,0.0,0.0,0.0,0.0,0.0,0.0,0.0,0.0,0.0,0.0,0.0,0.0,0.0,0.0,0.0,0.0,0.0,0.0,0.1512,0.3724,0.0,0.0,0.0,0.0,0.0,0.0,0.0,-0.63,-0.63,-0.63,-0.63,-0.63,-0.63,-0.63,-0.6698,-0.7706,0.0,0.0,0.0,0.0,0.0,0.0,0.0,0.0,0.0,0.0,0.0,0.0,0.0,0.0,0.0,0.0,0.0,0.0,0.0,0.0,0.0,0.0,0.0,0.0,0.0,0.0,-0.8895,0.0,0.0,0.0,0.0,0.0,0.0,0.0,0.0,0.0,0.0,0.0,0.0,0.0,0.0,0.0,0.0,-0.9403,-0.9608,-0.9608,-0.9717,-0.9792,-0.9792,-0.9792,-0.9792,-0.9792,-0.9792,-0.9792,-0.9792,-0.9792,-0.9792,-0.9792,-0.9792,-0.9576,-0.8988,-0.8036,-0.6561,-0.4275,-0.1632,0.0,0.0,0.0,0.0,0.0,0.0,0.0,0.0,0.0,0.0,0.0,0.0,0.0,0.0,0.0,0.0,0.0,0.0,0.0,0.0,0.0,0.0,0.0,0.0,0.0,0.0,0.0,0.0,0.0,0.0,0.0,0.0,0.0,0.1579,0.389,0.0,0.0,0.0,0.0,0.0,0.0,0.0,0.0,0.0,0.0,-0.63,-0.63,-0.63,-0.6358,-0.6814,0.0,0.0,0.0,0.0,0.0,0.0,0.0,0.0,0.0,0.0,0.0,0.0,-0.9017,-0.783,-0.7373,-0.76,0.0,0.0,0.0,0.0,0.0,0.0,0.0,0.0,0.0,0.0,0.0,0.0,0.0,0.0,0.0,0.0,0.0,0.0,0.0,0.0,0.0,0.0,0.0,0.0,0.0,0.0,0.0,0.0,-0.942,-0.9625,-0.9625,-0.9694,-0.9792,-0.9792,-0.9792,0.0,-0.9792,-0.9792,-0.9792,-0.9792,-0.9792,-0.9792,-0.9792,-0.9792,-0.9235,-0.7637,-0.7212,-0.5871,-0.2691,-0.0946,0.0,0.0,0.0,0.0,0.0,0.0,0.0,0.0,0.0,0.0,0.0,0.0,0.0,0.0,0.0,0.0,0.0,0.0,0.0,0.0,0.0,0.0,0.0,0.0,0.0,0.0,0.0,0.0,0.0,0.0,0.0,0.0,0.0,0.2216,0.5228,0.0,0.0,0.0,0.0,0.0,0.0,0.0,0.0,0.0,0.0,-0.63,-0.63,-0.63,-0.6984,0.0,0.0,0.0,0.0,0.0,0.0,0.0,0.0,0.0,0.0,0.0,0.0,0.0,-1.0204,-0.915,-0.8265,-0.76,-0.7709,0.0,0.0,0.0,0.0,0.0,0.0,0.0,0.0,0.0,0.0,0.0,0.0,0.0,0.0,-1.3102,-1.3246,0.0,0.0,0.0,0.0,0.0,0.0,0.0,0.0,-1.1283,0.0,-0.9734,0.0,-0.9741,-0.9741,-0.9765,-0.9792,0.0,0.0,0.0,-0.9792,-0.9792,-0.9792,-0.9792,-0.9792,-0.9792,-0.9792,-0.9792,-0.9235,-0.7637,-0.524,-0.29,-0.0836,-0.0229,0.0,0.0,0.0,0.0,0.0,0.0,0.0,0.0,0.0,0.0,0.0,0.0,0.0,0.0,0.0,0.0,0.0,0.0,0.0,0.0,0.0,0.0,0.0,0.0,0.0,0.0,0.0,0.0,0.0,0.0,0.0,0.0,0.0,0.1411,0.3523,0.0,0.0,0.0,0.0,0.0,0.0,0.0,0.0,0.0,0.0,0.0,0.0,0.0,0.0,0.0,0.0,0.0,0.0,0.0,0.0,0.0,0.0,0.0,0.0,0.0,0.0,0.0,0.0,0.0,-0.8847,0.0,0.0,0.0,0.0,0.0,0.0,0.0,0.0,0.0,0.0,-1.2328,0.0,0.0,0.0,0.0,0.0,-1.4118,-1.4188,0.0,-1.3033,-1.2917,-1.3399,0.0,0.0,0.0,0.0,-1.2307,-1.2047,-0.9979,-0.9595,-0.9792,-0.9792,-0.9792,-0.9792,-0.9792,0.0,0.0,-0.9792,-0.9792,-0.9792,-0.9792,-0.9792,-0.9792,-0.9792,-0.9174,-0.813,-0.6475,-0.408,-0.2154,-0.1254,-0.0457,0.0,0.0,0.0,0.0,0.0,0.0,0.0,0.0,0.0,0.0,0.0,0.0,0.0,0.0,0.0,0.0,0.0,0.0,0.0,0.0,0.0,0.0,0.0,0.0,0.0,0.0,0.0,0.0,0.0,0.0,0.0,0.0101,0.0941,0.2383,0.4191,0.0,0.0,0.0,0.0,0.0,0.0,0.0,0.0,0.0,0.0,0.0,0.0,0.0,0.0,0.0,0.0,0.0,0.0,0.0,0.0,0.0,0.0,0.0,0.0,0.0,0.0,0.0,0.0,0.0,0.0,0.0,0.0,-0.8496,0.0,0.0,0.0,0.0,0.0,0.0,0.0,-1.3295,0.0,0.0,0.0,0.0,0.0,0.0,0.0,0.0,-1.3594,-1.355,-1.4153,-1.5364,0.0,0.0,0.0,0.0,0.0,-1.0178,-0.9595,-0.9792,-0.9792,-0.9792,-0.9792,-0.9792,0.0,0.0,0.0,-0.9792,-0.9792,-0.9792,-0.9792,-0.9792,-0.9792,-0.8221,-0.6444,-0.4763,-0.3124,-0.2127,-0.212,-0.085,0.0,0.0,0.0,0.0,0.0,0.0,0.0,0.0,0.0,0.0,0.0,0.0,0.0,0.0,0.0,0.0,0.0,0.0,0.0,0.0,0.0,0.0,0.0,0.0,0.0,0.0,0.0,0.0,0.0,0.0,0.0,0.0202,0.1713,0.3623,0.5698,0.0,0.0,0.0,0.0,0.0,0.0,0.0,0.0,0.0,0.0,0.0,0.0,0.0,0.0,0.0,0.0,0.0,0.0,0.0,0.0,0.0,0.0,0.0,0.0,0.0,0.0,0.0,0.0,0.0,0.0,-1.1325,-1.1284,-1.1283,0.0,0.0,0.0,0.0,0.0,0.0,0.0,0.0,0.0,0.0,0.0,0.0,0.0,0.0,0.0,0.0,-1.6135,-1.6459,-1.6988,-1.7199,0.0,0.0,0.0,0.0,0.0,-1.0178,-0.9595,-0.9792,-0.9792,-0.9792,-0.9792,-0.9792,-0.9792,-0.9792,0.0,-0.9792,-0.9792,-0.9792,-0.9792,-0.9792,-0.9792,-0.7273,-0.4732,-0.3107,-0.1421,-0.0386,-0.0387,-0.0165,0.0,0.0,0.0,0.0,0.0,0.0,0.0,0.0,0.0,0.0,0.0,0.0,0.0,0.0,0.0,0.0,0.0,0.0,0.0,0.0,0.0,0.0,0.0,0.0,0.0,0.0,0.0,0.0,0.0,0.0,0.0,0.0034,0.0303,0.2518,0.5865,0.0,0.0,0.0,0.0,0.0,0.0,0.0,0.0,0.0,0.0,0.0,0.0,0.0,0.0,0.0,0.0,0.0,0.0,0.0,0.0,0.0,0.0,0.0,0.0,0.0,0.0,0.0,0.0,0.0,-1.3003,-1.2601,-1.2128,-1.1896,-1.1921,0.0,0.0,0.0,0.0,0.0,0.0,0.0,0.0,0.0,0.0,0.0,0.0,0.0,0.0,0.0,0.0,-1.7254,-1.7608,-1.7608,0.0,0.0,0.0,0.0,0.0,-1.1117,-1.0181,-0.9792,-0.9792,-0.9792,-0.9792,-0.9792,-0.9792,-0.9792,0.0,-0.9792,-0.9792,-0.9792,-0.9083,-0.7914,-0.6139,-0.5314,-0.4335,-0.2739,-0.1833,-0.1353,-0.1353,-0.0562,0.0,0.0,0.0,0.0,0.0,0.0,0.0,0.0,0.0,0.0,0.0,0.0,0.0,0.0,0.0,0.0,0.0,0.0,0.0,0.0,0.0,0.0,0.0,0.0,0.0,0.0,0.0,0.0,0.0,0.0,0.0,0.0235,0.2183,0.5193,0.8507,0.0,0.0,0.0,0.0,0.0,0.0,0.0,0.0,0.0,0.0,0.0,0.0,0.0,0.0,0.0,0.0,0.0,0.0,0.0,0.0,0.0,0.0,0.0,0.0,0.0,0.0,-1.4132,-1.3416,-1.3716,-1.39,-1.3943,-1.3163,-1.2818,0.0,0.0,0.0,-1.2939,-1.4956,-1.5242,0.0,0.0,0.0,0.0,0.0,0.0,0.0,0.0,0.0,0.0,0.0,0.0,0.0,0.0,0.0,0.0,-1.5823,-1.4592,-1.3382,-1.1908,-1.0672,-0.9792,-0.9792,0.0,-0.9792,-0.9792,-0.9792,-0.9792,0.0,0.0,-0.9792,-0.9792,-0.8495,-0.6442,-0.3536,-0.3783,-0.3783,-0.2155,-0.1927,-0.1931,-0.1931,-0.0793,0.0,0.0,0.0,0.0,0.0,0.0,0.0,0.0,0.0,0.0,0.0,0.0,0.0,0.0,0.0,0.0,0.0,0.0,0.0,0.0,0.0,0.0,0.0,0.0,0.0,0.0,0.0,0.0,0.0,0.0,0.0269,0.1008,0.4226,0.7369,1.0147,0.0,0.0,0.0,0.0,0.0,0.0,0.0,0.0,0.0,0.0,0.0,0.0,0.0,0.0,0.0,0.0,0.0,0.0,0.0,0.0,0.0,0.0,0.0,0.0,0.0,-1.4444,-1.4739,-1.5216,-1.5233,-1.5391,-1.5626,-1.5551,-1.5516,-1.5516,0.0,-1.5611,-1.554,-1.573,-1.5754,-1.5683,0.0,0.0,0.0,0.0,0.0,0.0,0.0,0.0,0.0,0.0,0.0,0.0,0.0,0.0,-1.7312,-1.5823,-1.4592,-1.3382,-1.1908,-1.0672,-0.9792,-0.9792,-0.9792,-0.9792,-0.9792,-0.9792,0.0,-0.9792,0.0,-0.9792,-0.9792,-0.8495,-0.6811,-0.5008,-0.3568,-0.2094,-0.0401,-0.019,-0.0194,-0.0194,-0.0066,0.0,0.0,0.0,0.0,0.0,0.0,0.0,0.0,0.0,0.0,0.0,0.0,0.0,0.0,0.0,0.0,0.0,0.0,0.0,0.0,0.0,0.0,0.0,0.0,0.0,0.0,0.0,0.0,0.0,0.0,0.1042,0.2752,0.4693,0.6598,0.8432,0.0,0.0,0.0,0.0,0.0,0.0,0.0,0.0,0.0,0.0,0.0,0.0,0.0,0.0,0.0,0.0,0.0,0.0,0.0,0.0,0.0,0.0,0.0,-1.4229,-1.5034,-1.5064,-1.517,-1.5398,-1.5578,-1.5695,-1.5808,-1.5808,0.0,0.0,-1.5808,-1.5808,-1.5808,-1.5808,-1.5808,-1.5808,-1.5808,0.0,0.0,0.0,0.0,0.0,0.0,0.0,0.0,0.0,-1.7521,-1.7608,-1.7608,-1.7608,-1.7312,-1.5823,-1.4592,-1.3382,-1.1908,-1.0672,-0.9792,-0.9792,-0.9792,0.0,0.0,-0.9792,-0.9792,-0.9792,-0.9792,0.0,-0.8495,-0.6137,-0.4148,-0.3506,-0.2033,-0.0712,-0.0094,0.0,0.0,0.0,0.0,0.0,0.0,0.0,0.0,0.0,0.0,0.0,0.0,0.0,0.0,0.0,0.0,0.0,0.0,0.0,0.0,0.0,0.0,0.0,0.0,0.0,0.0,0.0,0.0,0.0,0.0,0.0,0.0,0.0,0.0,0.178,0.4459,0.5163,0.72,0.9775,0.0,0.0,0.0,0.0,0.0,0.0,0.0,0.0,0.0,0.0,0.0,0.0,0.0,0.0,0.0,0.0,0.0,0.0,0.0,0.0,0.0,0.0,0.0,-1.4617,-1.5391,-1.5484,-1.5531,-1.5531,-1.5708,-1.5808,-1.5808,0.0,0.0,0.0,-1.5808,-1.5808,-1.5808,-1.5808,-1.5808,-1.5815,-1.5908,-1.5972,0.0,0.0,0.0,0.0,0.0,0.0,0.0,0.0,-1.7608,-1.7608,-1.7608,-1.7608,-1.7312,-1.5823,-1.4592,-1.3382,-1.1908,-1.0672,-0.9792,-0.9792,0.0,0.0,-0.9792,-0.9792,-0.9792,-0.9792,-0.9792,-0.9143,-0.6996,-0.4761,-0.3076,-0.2585,-0.1079,0.0,0.0,0.0,0.0,0.0,0.0,0.0,0.0,0.0,0.0,0.0,0.0,0.0,0.0,0.0,0.0,0.0,0.0,0.0,0.0,0.0,0.0,0.0,0.0,0.0,0.0,0.0,0.0,0.0,0.0,0.0,0.0,0.0,0.0336,0.084,0.084,0.3053,0.6231,0.6231,0.8135,1.0688,0.0,0.0,0.0,0.0,0.0,0.0,0.0,0.0,0.0,0.0,0.0,0.0,0.0,0.0,0.0,0.0,0.0,0.0,0.0,0.0,0.0,0.0,0.0,-1.4243,-1.5374,-1.5655,-1.5808,-1.5808,-1.5808,-1.5808,-1.5808,-1.5808,0.0,0.0,0.0,-1.5808,-1.5808,-1.5808,-1.5808,-1.5835,-1.6159,-1.6304,0.0,0.0,0.0,0.0,0.0,0.0,0.0,0.0,-1.7608,-1.7608,-1.7608,-1.7608,-1.7312,-1.5823,-1.4592,-1.3382,-1.188,-1.0672,-0.9792,-0.9792,0.0,0.0,-0.9792,-0.9792,-0.9792,-0.9788,-0.9758,-0.8745,-0.5498,-0.4885,-0.4335,-0.277,-0.1079,0.0,0.0,0.0,0.0,0.0,0.0,0.0,0.0,0.0,0.0,0.0,0.0,0.0,0.0,0.0,0.0,0.0,0.0,0.0,0.0,0.0,0.0,0.0,0.0,0.0,0.0,0.0,0.0,0.0,0.0,0.0,0.0,0.0034,0.1075,0.2719,0.2719,0.4891,0.7997,0.7997,0.9138,1.0688,0.0,0.0,0.0,0.0,0.0,0.0,0.0,0.0,0.0,0.0,0.0,0.0,0.0,0.0,0.0,0.0,0.0,0.0,0.0,0.0,0.0,0.0,0.0,0.0,0.0,0.0,-1.5808,-1.5808,-1.5808,-1.5808,0.0,0.0,0.0,-1.5808,0.0,0.0,0.0,-1.6052,-1.6139,-1.619,-1.646,-1.6573,-1.6607,0.0,0.0,0.0,0.0,0.0,0.0,0.0,0.0,0.0,-1.7608,-1.7608,-1.712,-1.4636,-1.3821,-1.3155,-1.069,-0.9917,-0.9792,-0.9792,-0.9792,-0.9792,-0.9792,-0.9792,0.0,0.0,-0.6261,-0.47,-0.4885,-0.3015,-0.1694,-0.2401,-0.1089,0.0,0.0,0.0,0.0,0.0,0.0,0.0,0.0,0.0,0.0,0.0,0.0,0.0,0.0,0.0,0.0,0.0,0.0,0.0,0.0,0.0,0.0,0.0,0.0,0.0,0.0,0.0,0.0,0.0,0.0,0.0,0.0101,0.1378,0.2216,0.2819,0.4092,0.5995,0.7997,0.7997,0.9138,1.0688,0.0,0.0,0.0,0.0,0.0,0.0,0.0,0.0,0.0,0.0,0.0,0.0,0.0,0.0,0.0,0.0,0.0,0.0,0.0,0.0,0.0,0.0,0.0,0.0,0.0,-1.5808,-1.5808,0.0,0.0,0.0,0.0,0.0,0.0,-1.5808,0.0,-1.5868,0.0,-1.6217,-1.6364,-1.6473,-1.6785,-1.6906,-1.6939,0.0,0.0,0.0,0.0,0.0,0.0,0.0,0.0,0.0,-1.7608,-1.7608,-1.7034,-1.4218,-1.3537,-1.3089,-1.0259,-0.9642,-0.9792,-0.9792,-0.9792,-0.9636,-0.8988,-0.8836,-0.8191,-0.5923,-0.4393,-0.3353,-0.3015,-0.1879,-0.111,-0.1448,-0.0656,0.0,0.0,0.0,0.0,0.0,0.0,0.0,0.0,0.0,0.0,0.0,0.0,0.0,0.0,0.0,0.0,0.0,0.0,0.0,0.0,0.0,0.0,0.0,0.0,0.0,0.0,0.0,0.0,0.0,0.0,0.0,0.0135,0.1948,0.312,0.3957,0.5728,0.7498,0.9072,0.9072,0.9775,1.0688,0.0,0.0,0.0,0.0,0.0,0.0,0.0,0.0,0.0,0.0,0.0,0.0,0.0,0.0,0.0,0.0,0.0,0.0,0.0,0.0,0.0,0.0,0.0,0.0,0.0,0.0,0.0,0.0,0.0,0.0,0.0,0.0,-1.5821,-1.5848,0.0,-1.6039,-1.6337,-1.6364,-1.6531,-1.6774,-1.7093,-1.7239,-1.7266,-1.7508,0.0,0.0,0.0,0.0,0.0,0.0,0.0,0.0,-1.7608,-1.7608,-1.7073,-1.4307,-1.3587,-1.3089,-1.0351,-0.9683,-0.9792,-0.9792,-0.9792,-0.9329,-0.7576,-0.7177,-0.6289,-0.3137,-0.3537,-0.3537,-0.0555,-0.1233,-0.1787,-0.0247,0.0,0.0,0.0,0.0,0.0,0.0,0.0,0.0,0.0,0.0,0.0,0.0,0.0,0.0,0.0,0.0,0.0,0.0,0.0,0.0,0.0,0.0,0.0,0.0,0.0,0.0,0.0,0.0,0.0,0.0,0.0,0.0101,0.037,0.2183,0.4024,0.5797,0.7564,0.9238,1.0688,1.0688,1.0688,1.0688,0.0,0.0,0.0,0.0,0.0,0.0,0.0,0.0,0.0,0.0,0.0,0.0,0.0,0.0,0.0,0.0,0.0,0.0,0.0,0.0,0.0,0.0,0.0,0.0,0.0,0.0,0.0,0.0,0.0,0.0,0.0,0.0,0.0,-1.6203,0.0,-1.6339,-1.6627,-1.6886,-1.7045,-1.7132,-1.7401,-1.7515,-1.7521,-1.7582,-1.7608,0.0,0.0,0.0,0.0,0.0,0.0,0.0,-1.7608,-1.7608,-1.7073,-1.4307,-1.3587,-1.3089,-1.0351,-0.9683,-0.9792,-0.9792,-0.9792,-0.9022,-0.611,-0.5437,-0.4885,-0.2892,-0.1725,-0.0833,-0.0123,-0.0309,-0.0432,-0.0062,0.0,0.0,0.0,0.0,0.0,0.0,0.0,0.0,0.0,0.0,0.0,0.0,0.0,0.0,0.0,0.0,0.0,0.0,0.0,0.0,0.0,0.0,0.0,0.0,0.0,0.0,0.0,0.0,0.0,0.0,0.0,0.0807,0.2249,0.4059,0.5861,0.7631,0.9407,1.0349,1.0688,1.0688,1.0688,1.0688,0.0,0.0,0.0,0.0,0.0,0.0,0.0,0.0,0.0,0.0,0.0,0.0,0.0,0.0,0.0,0.0,0.0,0.0,0.0,0.0,0.0,0.0,0.0,0.0,0.0,0.0,0.0,0.0,0.0,0.0,0.0,0.0,0.0,-1.6304,0.0,-1.6665,-1.6953,-1.7132,-1.728,-1.7394,-1.7548,-1.7608,-1.7608,-1.7608,-1.7608,0.0,0.0,0.0,0.0,0.0,0.0,0.0,0.0,0.0,-1.7233,-1.4412,-1.3765,-1.3322,-1.0461,-0.9734,-0.9792,-0.9792,-0.9792,-0.893,-0.5651,-0.4885,-0.4212,-0.1787,-0.0617,0.0,0.0,0.0,0.0,0.0,0.0,0.0,0.0,0.0,0.0,0.0,0.0,0.0,0.0,0.0,0.0,0.0,0.0,0.0,0.0,0.0,0.0,0.0,0.0,0.0,0.0,0.0,0.0,0.0,0.0,0.0,0.0,0.0,0.0,0.0,0.0,0.0538,0.1613,0.4292,0.593,0.7031,0.9679,1.0688,1.0688,1.0688,1.0688,1.0688,0.0,0.0,0.0,0.0,0.0,0.0,0.0,0.0,0.0,0.0,0.0,0.0,0.0,0.0,0.0,0.0,0.0,0.0,0.0,0.0,0.0,0.0,0.0,0.0,0.0,0.0,0.0,0.0,0.0,0.0,0.0,0.0,0.0,-1.6458,0.0,0.0,-1.728,-1.728,-1.7388,-1.7608,-1.7608,-1.7608,-1.7608,-1.7608,0.0,0.0,0.0,0.0,0.0,0.0,0.0,0.0,0.0,0.0,-1.7498,-1.4923,-1.419,-1.363,-1.094,-1.0001,-0.9792,-0.9792,-0.9792,-0.893,-0.5651,-0.4885,-0.3967,-0.0678,0.0,0.0,0.0,0.0,0.0,0.0,0.0,0.0,0.0,0.0,0.0,0.0,0.0,0.0,0.0,0.0,0.0,0.0,0.0,0.0,0.0,0.0,0.0,0.0,0.0,0.0,0.0,0.0,0.0,0.0,0.0,0.0,0.0,0.0,0.0,0.0,0.0,0.0168,0.0706,0.4024,0.5564,0.6164,0.9443,1.0688,1.0688,1.0688,1.0688,1.0688,0.0,0.0,0.0,0.0,0.0,0.0,0.0,0.0,0.0,0.0,0.0,0.0,0.0,0.0,0.0,0.0,0.0,0.0,0.0,0.0,0.0,0.0,-1.5808,0.0,0.0,0.0,0.0,0.0,0.0,0.0,0.0,0.0,0.0,-1.7085,0.0,0.0,0.0,-1.7548,-1.7575,-1.7608,-1.7608,-1.7608,-1.7608,-1.7608,0.0,0.0,0.0,0.0,0.0,0.0,-1.7608,0.0,0.0,0.0,-1.7762,-1.6505,-1.5212,-1.3864,-1.2312,-1.0868,-0.9792,-0.9792,-0.9792,-0.893,-0.5651,-0.4885,-0.3967,-0.0678,0.0,0.0,0.0,0.0,0.0,0.0,0.0,0.0,0.0,0.0,0.0,0.0,0.0,0.0,0.0,0.0,0.0,0.0,0.0,0.0,0.0,0.0,0.0,0.0,0.0,0.0,0.0,0.0,0.0,0.0,0.0,0.0,0.0,0.0,0.0,0.0,0.0,0.0874,0.2484,0.4559,0.6297,0.7864,0.9911,1.0688,1.0688,1.0688,1.0688,1.0688,0.0,0.0,0.0,0.0,0.0,0.0,0.0,0.0,0.0,0.0,0.0,0.0,0.0,0.0,0.0,0.0,0.0,0.0,0.0,0.0,0.0,-1.5808,-1.5808,-1.5808,-1.5808,0.0,0.0,0.0,0.0,0.0,0.0,-1.6852,-1.6951,0.0,0.0,0.0,0.0,0.0,-1.7608,-1.7608,-1.7608,-1.7094,-1.6472,0.0,0.0,0.0,0.0,0.0,0.0,0.0,0.0,-1.7869,-1.8169,0.0,0.0,0.0,-1.4842,-1.3907,-1.1505,-1.0331,-0.9792,-0.9792,-0.9792,-0.893,-0.5651,-0.4885,-0.3967,-0.0678,0.0,0.0,0.0,0.0,0.0,0.0,0.0,0.0,0.0,0.0,0.0,0.0,0.0,0.0,0.0,0.0,0.0,0.0,0.0,0.0,0.0,0.0,0.0,0.0,0.0,0.0,0.0,0.0,0.0,0.0,0.0,0.0,0.0,0.0,0.0,0.0,0.0,0.1042,0.2853,0.4661,0.6431,0.8166,0.9978,1.0688,1.0688,1.0688,1.0688,1.0688,0.0,0.0,0.0,0.0,0.0,0.0,0.0,0.0,0.0,0.0,0.0,0.0,0.0,0.0,0.0,0.0,0.0,0.0,0.0,0.0,0.0,-1.5808,-1.5881,-1.5939,-1.5939,0.0,0.0,0.0,0.0,0.0,-1.7306,-1.7306,-1.7306,0.0,-1.7508,0.0,0.0,0.0,0.0,0.0,0.0,0.0,0.0,0.0,0.0,0.0,0.0,0.0,0.0,0.0,0.0,0.0,0.0,-1.8751,0.0,0.0,0.0,-1.3382,-1.057,-0.9792,-0.9792,-0.9792,-0.9792,-0.9052,-0.6202,-0.5192,-0.409,-0.1233,-0.0309,0.0,0.0,0.0,0.0,0.0,0.0,0.0,0.0,0.0,0.0,0.0,0.0,0.0,0.0,0.0,0.0,0.0,0.0,0.0,0.0,0.0,0.0,0.0,0.0,0.0,0.0,0.0,0.0,0.0,0.0,0.0,0.0,0.0,0.0235,0.0673,0.0202,0.1042,0.2853,0.4661,0.6431,0.8166,0.9978,1.0688,1.0688,1.0688,1.0688,1.0688,0.0,0.0,0.0,0.0,0.0,0.0,0.0,0.0,0.0,0.0,0.0,0.0,0.0,0.0,0.0,0.0,0.0,0.0,0.0,0.0,0.0,-1.5808,-1.6099,0.0,-1.6277,0.0,0.0,0.0,0.0,0.0,-1.7588,-1.7588,-1.7588,-1.7588,-1.7602,-1.7608,-1.7608,0.0,0.0,0.0,-1.6172,-1.5738,0.0,0.0,0.0,0.0,0.0,0.0,0.0,0.0,0.0,0.0,0.0,0.0,-1.8623,0.0,0.0,0.0,-1.027,-0.9792,-0.9792,-0.9792,-0.9792,-0.9359,-0.7667,-0.6047,-0.4426,-0.2708,-0.111,0.0,0.0,0.0,0.0,0.0,0.0,0.0,0.0,0.0,0.0,0.0,0.0,0.0,0.0,0.0,0.0,0.0,0.0,0.0,0.0,0.0,0.0,0.0,0.0,0.0,0.0,0.0,0.0,0.0,0.0,0.0,0.0,0.0,0.0941,0.245,0.074,0.1042,0.2853,0.4661,0.6431,0.8166,0.9978,1.0688,1.0688,1.0688,1.0688,1.0688,0.0,0.0,0.0,0.0,0.0,0.0,0.0,0.0,0.0,0.0,0.0,0.0,0.0,0.0,0.0,-1.5808,-1.6005,0.0,0.0,0.0,0.0,-1.6393,-1.6493,-1.6553,-1.6553,0.0,0.0,0.0,0.0,-1.7508,-1.7608,-1.7608,-1.7689,-1.7856,-1.7856,-1.7856,-1.7869,-1.8083,0.0,0.0,-1.6521,-1.5383,0.0,0.0,0.0,0.0,0.0,0.0,0.0,0.0,0.0,0.0,0.0,0.0,0.0,0.0,-1.2359,-1.0539,-0.997,-0.9792,-0.9792,-0.9792,-0.9792,-0.939,-0.7759,-0.6933,-0.5739,-0.3045,-0.2033,-0.1264,-0.0185,0.0,0.0,0.0,0.0,0.0,0.0,0.0,0.0,0.0,0.0,0.0,0.0,0.0,0.0,0.0,0.0,0.0,0.0,0.0,0.0,0.0,0.0,0.0,0.0,0.0,0.0,0.0,0.0,0.0,0.0,0.0,0.0975,0.2652,0.2015,0.3387,0.616,0.6796,0.8133,0.9812,1.0452,1.0688,1.0688,1.0688,1.0688,1.0688,0.0,0.0,0.0,0.0,0.0,0.0,0.0,0.0,0.0,0.0,0.0,0.0,0.0,0.0,0.0,-1.6088,-1.6306,-1.6444,-1.6444,-1.66,-1.6707,-1.6707,-1.68,-1.6879,0.0,0.0,0.0,0.0,0.0,0.0,0.0,-1.7736,-1.7903,-1.8169,-1.8269,-1.8263,0.0,0.0,0.0,-1.8429,0.0,-1.4877,-1.4005,0.0,0.0,0.0,0.0,0.0,0.0,0.0,0.0,0.0,0.0,0.0,0.0,0.0,0.0,0.0,-0.9792,-0.9792,-0.9792,-0.9792,-0.9792,-0.9511,-0.8434,-0.7789,-0.6625,-0.3873,-0.2862,-0.2002,-0.0309,0.0,0.0,0.0,0.0,0.0,0.0,0.0,0.0,0.0,0.0,0.0,0.0,0.0,0.0,0.0,0.0,0.0,0.0,0.0,0.0,0.0,0.0,0.0,0.0,0.0,0.0,0.0,0.0,0.0,0.0,0.0,0.1311,0.3623,0.3623,0.5294,0.7997,0.7997,0.9069,1.0688,1.0688,1.0688,1.0688,1.0688,1.0688,1.0688,0.0,0.0,0.0,0.0,0.0,0.0,0.0,0.0,0.0,0.0,0.0,0.0,0.0,0.0,0.0,-1.668,-1.6714,-1.672,-1.672,-1.6727,-1.6734,-1.6734,0.0,0.0,0.0,0.0,0.0,0.0,0.0,0.0,0.0,0.0,-1.8189,-1.8517,-1.877,-1.8771,-1.8517,0.0,-1.8677,-1.8621,0.0,-1.4186,-1.4222,0.0,0.0,0.0,-1.1559,-1.2157,0.0,-1.4004,0.0,0.0,0.0,0.0,0.0,0.0,0.0,0.0,0.0,0.0,0.0,-0.9792,-0.9792,-0.9792,-0.9792,-0.859,-0.6994,-0.5314,-0.369,-0.2064,-0.037,-0.0031,0.0,0.0,0.0,0.0,0.0,0.0,0.0,0.0,0.0,0.0,0.0,0.0,0.0,0.0,0.0,0.0,0.0,0.0,0.0,0.0,0.0,0.0,0.0,0.0,0.0,0.0,0.0,0.0,0.0,0.0067,0.2015,0.5397,0.5462,0.6464,0.8064,0.8064,0.9105,1.0688,1.0688,1.0688,1.0688,1.0688,1.0688,1.0688,0.0,0.0,0.0,0.0,0.0,0.0,0.0,0.0,0.0,0.0,0.0,0.0,0.0,0.0,0.0,-1.67,-1.6926,-1.7053,-1.7053,-1.7247,-1.7341,-1.7341,-1.7448,-1.7488,0.0,0.0,0.0,0.0,0.0,0.0,0.0,0.0,0.0,0.0,-1.8856,-1.8998,-1.9154,-1.9154,0.0,0.0,-1.5731,-1.4493,0.0,0.0,0.0,0.0,0.0,-1.1197,-1.2273,0.0,-1.3646,-1.4396,0.0,0.0,0.0,0.0,0.0,0.0,-0.9792,0.0,0.0,0.0,0.0,0.0,-0.9792,-0.9451,-0.8681,-0.7055,-0.5404,-0.3752,-0.2094,-0.0833,0.0,0.0,0.0,0.0,0.0,0.0,0.0,0.0,0.0,0.0,0.0,0.0,0.0,0.0,0.0,0.0,0.0,0.0,0.0,0.0,0.0,0.0,0.0,0.0,0.0,0.0,0.0,0.0,0.0034,0.1344,0.3221,0.5464,0.6731,0.8302,0.9945,0.9945,1.0246,1.0688,1.0688,1.0688,1.0688,1.0688,1.0688,1.0688,0.0,0.0,0.0,0.0,0.0,0.0,0.0,0.0,0.0,0.0,0.0,0.0,0.0,0.0,0.0,0.0,-1.7254,-1.738,-1.738,-1.7515,-1.7642,-1.7769,-1.7776,-1.7836,-1.7963,0.0,0.0,0.0,0.0,0.0,0.0,0.0,0.0,0.0,0.0,0.0,0.0,0.0,0.0,0.0,-1.4896,0.0,0.0,-1.0781,-0.9792,0.0,0.0,0.0,-1.1197,-1.1197,-1.1826,0.0,0.0,0.0,0.0,0.0,0.0,0.0,0.0,0.0,0.0,0.0,0.0,0.0,-0.9792,-0.9792,-0.9329,-0.7728,-0.6628,-0.5251,-0.2923,-0.1694,-0.0802,-0.0123,0.0,0.0,0.0,0.0,0.0,0.0,0.0,0.0,0.0,0.0,0.0,0.0,0.0,0.0,0.0,0.0,0.0,0.0,0.0,0.0,0.0,0.0,0.0,0.0,0.0,0.0404,0.1176,0.2216,0.4091,0.6531,0.7564,0.9036,1.0688,1.0688,1.0688,1.0688,1.0688,1.0688,1.0688,1.0688,1.0688,1.0688,0.0,0.0,0.0,0.0,0.0,0.0,0.0,0.0,0.0,0.0,0.0,0.0,0.0,0.0,0.0,0.0,-1.7709,-1.7709,-1.7709,-1.7709,-1.7809,-1.8056,-1.8069,-1.8196,-1.8484,-1.8203,0.0,0.0,0.0,0.0,0.0,0.0,0.0,0.0,0.0,0.0,0.0,0.0,0.0,-1.6221,-1.3343,-1.2213,0.0,0.0,-0.9792,-0.9792,-0.9792,-0.9792,-0.9792,-0.9792,-0.9792,0.0,0.0,0.0,0.0,0.0,-0.9792,0.0,0.0,0.0,0.0,0.0,0.0,0.0,-0.9792,-0.9792,-0.939,-0.7972,-0.7512,-0.6503,-0.3597,-0.2892,-0.2278,-0.0771,-0.0401,-0.0216,-0.0031,0.0,0.0,0.0,0.0,0.0,0.0,0.0,0.0,0.0,0.0,0.0,0.0,0.0,0.0,0.0,0.0,0.0,0.0,0.0,0.0,0.0,0.0202,0.1143,0.2719,0.312,0.5025,0.7997,0.8197,0.9205,1.0688,1.0688,1.0688,1.0688,1.0688,1.0688,1.0688,1.0688,1.0688,1.0688,0.0,0.0,0.0,0.0,0.0,0.0,0.0,0.0,0.0,0.0,0.0,0.0,0.0,0.0,0.0,0.0,0.0,-1.831,0.0,0.0,-1.8343,-1.8404,-1.8404,-1.843,-1.849,-1.8437,0.0,0.0,0.0,0.0,0.0,0.0,0.0,0.0,0.0,0.0,0.0,0.0,0.0,-1.3078,-1.2453,0.0,-1.2032,-1.0422,-0.9792,-0.9792,-0.9792,-0.9792,-0.9792,-0.9792,-0.9792,-0.9792,0.0,0.0,0.0,0.0,0.0,0.0,0.0,0.0,0.0,0.0,0.0,0.0,-0.9792,-0.9792,-0.9697,-0.939,-0.831,-0.7207,-0.6564,-0.5343,-0.4335,-0.3996,-0.2862,-0.1541,-0.0185,0.0,0.0,0.0,0.0,0.0,0.0,0.0,0.0,0.0,0.0,0.0,0.0,0.0,0.0,0.0,0.0,0.0,0.0,0.0,0.0,0.0034,0.1478,0.2351,0.2786,0.5659,0.7329,0.8097,0.9543,1.0382,1.0688,1.0688,1.0688,1.0688,1.0688,1.0688,1.0688,1.0688,1.0688,1.0688,0.0,0.0,0.0,0.0,0.0,0.0,0.0,0.0,0.0,0.0,0.0,0.0,0.0,0.0,0.0,0.0,0.0,0.0,0.0,0.0,-1.8557,-1.8698,-1.8704,-1.8778,-1.8953,-1.896,-1.896,0.0,0.0,0.0,0.0,0.0,0.0,0.0,0.0,0.0,0.0,0.0,-1.1736,-1.0989,-1.0989,0.0,-1.0929,-1.0119,-0.9792,-0.9792,-0.9792,-0.9792,-0.9792,-0.9792,-0.9792,0.0,0.0,-0.9792,-0.9792,0.0,-0.9792,-0.9792,0.0,0.0,0.0,-0.9792,0.0,0.0,0.0,-0.9792,-0.9792,-0.9792,-0.9174,-0.8343,-0.7545,-0.6719,-0.5863,-0.5039,-0.3537,-0.2493,-0.2462,-0.1048,0.0,0.0,0.0,0.0,0.0,0.0,0.0,0.0,0.0,0.0,0.0,0.0,0.0,0.0,0.0,0.0,0.0,0.0,0.0,0.0034,0.1847,0.3187,0.4124,0.6796,0.8499,0.9407,1.0316,1.0688,1.0688,1.0688,1.0688,1.0688,1.0688,1.0688,1.0688,1.0688,1.0688,1.0688,0.0,0.0,0.0,0.0,0.0,0.0,0.0,0.0,0.0,0.0,0.0,0.0,0.0,0.0,0.0,0.0,0.0,0.0,0.0,0.0,-1.8442,-1.897,-1.9011,-1.9125,-1.9395,-1.9395,-1.9395,-1.9395,0.0,0.0,0.0,0.0,0.0,0.0,0.0,0.0,0.0,0.0,0.0,-0.9836,0.0,-0.9849,-0.9792,-0.9792,-0.9792,-0.9792,-0.9792,-0.9792,-0.9792,-0.9792,-0.9792,-0.9792,-0.9792,-0.9792,0.0,0.0,0.0,0.0,0.0,0.0,0.0,0.0,0.0,-0.9792,0.0,0.0,0.0,-0.9792,-0.9792,-0.939,-0.8097,-0.785,-0.7416,-0.6026,-0.4478,-0.3869,-0.5142,-0.2795,-0.0833,-0.0524,-0.0187,0.0,0.0,0.0,0.0,0.0,0.0,0.0,0.0,0.0,0.0,0.0,0.0,0.0,0.0,0.0,0.0,0.0034,0.2183,0.399,0.5464,0.7564,0.9305,1.0688,1.0688,1.0688,1.0688,1.0688,1.0688,1.0688,1.0688,1.0688,1.0688,1.0688,1.0688,1.0688,-1.839,-1.839,0.0,0.0,0.0,0.0,0.0,0.0,0.0,0.0,0.0,0.0,0.0,0.0,0.0,0.0,0.0,0.0,-1.709,0.0,0.0,-1.9283,-1.9348,-1.9361,-1.9395,-1.9395,-1.9395,-1.9395,0.0,0.0,0.0,0.0,0.0,0.0,-1.6233,0.0,0.0,0.0,-1.1275,0.0,-1.0025,-0.9975,0.0,-0.9792,-0.9792,-0.9792,-0.9792,-0.9792,-0.9792,0.0,-0.9792,-0.9792,0.0,-0.9792,-0.9792,-0.9792,0.0,0.0,0.0,0.0,0.0,0.0,-0.9792,0.0,0.0,0.0,-0.9792,-0.9792,0.0,-0.9758,-0.9576,0.0,0.0,-0.9111,-0.7818,-0.6838,-0.684,-0.539,-0.3813,-0.2401,-0.0896,0.0,0.0,0.0,0.0,0.0,0.0,0.0,0.0,0.0,0.0,0.0,0.0,0.0,0.0,0.0,0.0,0.0034,0.3456,0.5195,0.5531,0.8875,1.0518,1.0688,1.0688,1.0688,1.0688,1.0688,1.0688,1.0688,1.0688,1.0688,1.0688,1.0688,1.0688,1.0688,0.0,0.0,0.0,0.0,0.0,0.0,0.0,0.0,0.0,0.0,0.0,0.0,0.0,0.0,0.0,0.0,0.0,-1.6285,0.0,0.0,0.0,0.0,-1.9395,-1.9395,-1.9395,-1.9395,-1.9395,-1.9395,-1.9568,0.0,0.0,0.0,0.0,0.0,-1.6177,0.0,-1.1775,0.0,-1.0804,0.0,0.0,0.0,0.0,-0.9859,-0.9792,-0.9792,-0.9792,-0.9792,-0.9792,0.0,-0.9792,0.0,0.0,0.0,0.0,0.0,0.0,0.0,0.0,0.0,0.0,0.0,0.0,0.0,-0.9792,0.0,-0.9792,0.0,0.0,0.0,0.0,0.0,0.0,0.0,-0.8402,-0.771,-0.8548,-0.6483,-0.464,-0.3967,-0.326,0.0,-0.1541,-0.0562,0.0,0.0,0.0,0.0,0.0,0.0,0.0,0.0,0.0,0.0,0.0,0.0,0.0538,0.1613,0.4158,0.593,0.6998,0.9543,1.0688,1.0688,1.0688,1.0688,1.0688,1.0688,1.0688,1.0688,1.0688,1.0688,1.0688,1.0688,1.0688,1.0688,0.0,0.0,0.0,0.0,0.0,0.0,0.0,0.0,0.0,0.0,0.0,0.0,-1.8794,-1.835,0.0,0.0,-1.5271,-1.5212,0.0,0.0,-1.6926,0.0,0.0,0.0,0.0,-1.9347,-1.9606,-1.9606,-1.9813,0.0,0.0,0.0,0.0,0.0,0.0,-1.373,-1.2199,0.0,-1.0337,-1.0337,-1.0337,-1.0317,-1.0256,-1.0032,-0.9947,-0.9947,-0.9947,-0.9947,-0.9947,-0.9947,-0.9947,0.0,-0.9947,0.0,0.0,0.0,0.0,0.0,-0.9947,0.0,0.0,0.0,0.0,0.0,0.0,0.0,0.0,0.0,0.0,0.0,0.0,0.0,0.0,0.0,0.0,-0.8453,-0.9586,-0.7715,-0.608,-0.5649,-0.5179,0.0,0.0,-0.1642,-0.0669,-0.0669,-0.0269,0.0,0.0,0.0,0.0,0.0,0.0,0.0,0.0,0.0,0.0908,0.2719,0.4526,0.6297,0.8064,0.9878,1.0688,1.0688,1.0688,1.0688,1.0688,1.0688,1.0688,1.0688,1.0688,1.0688,1.0688,1.0688,1.0688,1.0688,-1.9368,-1.9368,0.0,0.0,0.0,0.0,0.0,0.0,0.0,0.0,0.0,0.0,0.0,0.0,0.0,0.0,0.0,-1.0687,-1.2243,0.0,-1.4977,0.0,0.0,-1.9324,0.0,0.0,-2.017,-2.017,-2.0184,0.0,0.0,0.0,0.0,0.0,0.0,-1.2018,-1.076,-1.058,-1.0483,-1.0483,-1.0483,-1.0437,-1.0312,0.0,-1.0266,-1.0266,-1.0266,0.0,0.0,-1.0266,-1.0266,0.0,0.0,0.0,0.0,0.0,0.0,0.0,0.0,0.0,0.0,-1.0266,0.0,0.0,0.0,0.0,-0.9792,0.0,0.0,0.0,0.0,0.0,0.0,0.0,0.0,0.0,0.0,-0.9613,-0.9049,-0.7512,-0.5873,-0.4893,0.0,-0.3358,-0.2433,-0.2433,-0.0901,0.0,0.0,0.0,0.0,0.0,0.0,0.0,0.0,0.0,0.0908,0.2719,0.4526,0.6297,0.8064,0.9878,1.0688,1.0688,1.0688,1.0688,1.0688,1.0688,1.0688,1.0688,1.0688,1.0688,1.0688,1.0688,1.0688,1.0688,0.0,0.0,0.0,0.0,0.0,0.0,0.0,-1.994,0.0,0.0,-1.8165,0.0,0.0,-1.5156,-1.4237,0.0,0.0,-1.1965,-1.2488,-1.4206,0.0,0.0,0.0,-1.9373,0.0,0.0,0.0,0.0,0.0,0.0,0.0,0.0,0.0,0.0,0.0,-1.3943,0.0,0.0,0.0,0.0,0.0,-1.0616,-1.0551,0.0,0.0,-1.0312,-1.0312,-1.0312,0.0,-1.0312,-1.0312,-1.0312,-1.0312,-1.0312,-1.0312,-1.0312,-1.0312,0.0,0.0,0.0,-1.0312,-1.0312,0.0,0.0,0.0,0.0,0.0,0.0,0.0,0.0,0.0,0.0,0.0,0.0,0.0,0.0,0.0,0.0,-0.9606,-0.9049,-0.7555,-0.6116,-0.5022,-0.3453,-0.2038,-0.0921,-0.0334,0.0,0.0,0.0,0.0,0.0,0.0,0.0,0.0,0.0,0.0908,0.2719,0.4526,0.6297,0.8064,0.9878,1.0688,1.0688,1.0688,1.0688,1.0688,1.0688,1.0688,1.0688,1.0688,1.0688,1.0688,1.0688,1.0688,1.0688,-2.0204,0.0,0.0,0.0,0.0,0.0,0.0,0.0,0.0,0.0,-1.7014,0.0,-1.4993,0.0,-1.3792,0.0,-1.2177,-1.1834,-1.1834,-1.3514,0.0,-1.3367,-1.6752,0.0,0.0,0.0,0.0,0.0,0.0,-2.0828,0.0,0.0,0.0,0.0,0.0,-1.4003,-1.2314,-1.1178,-1.0688,0.0,0.0,-1.0688,0.0,0.0,-1.0436,-1.0436,0.0,-1.0436,-1.0436,-1.0436,-1.0436,-1.0436,-1.0436,-1.0436,-1.0436,-1.0436,-1.0436,-1.0307,-0.9651,-0.9486,0.0,-0.8704,-0.8509,0.0,-0.9255,0.0,0.0,0.0,0.0,0.0,0.0,0.0,0.0,0.0,0.0,0.0,0.0,-0.9792,0.0,-0.9792,-0.8882,-0.7609,-0.5958,-0.4301,-0.2678,-0.102,-0.0334,0.0,0.0,0.0,0.0,0.0,0.0,0.0,0.0,0.0,0.0908,0.2719,0.4526,0.6297,0.8064,0.9878,1.0688,1.0688,1.0688,1.0688,1.0688,1.0688,1.0688,1.0688,1.0688,1.0688,1.0688,1.0688,1.0688,1.0688,-2.0244,0.0,0.0,0.0,-2.0237,0.0,0.0,0.0,-1.7618,0.0,-1.5996,-1.4882,-1.4773,-1.3474,-1.2607,-1.2607,-1.1208,-1.0332,-1.0332,-1.2075,0.0,0.0,-1.3904,-1.5011,-1.315,0.0,0.0,0.0,0.0,0.0,0.0,0.0,0.0,0.0,-1.4166,0.0,-1.0688,-1.0688,-1.0688,-1.0688,-1.0688,-1.0688,-1.0688,-1.0688,-1.0688,-1.0688,-1.0688,-1.0688,-1.0688,-1.0688,-1.0688,-1.0688,-1.0688,-1.0688,-1.0688,-1.0585,-1.0585,-1.018,-0.8366,-0.7864,-0.7464,-0.583,0.0,0.0,0.0,0.0,-0.7973,0.0,0.0,0.0,0.0,0.0,0.0,0.0,0.0,0.0,0.0,0.0,0.0,0.0,-0.9734,-0.9078,-0.7541,-0.5881,-0.423,-0.2622,-0.0933,0.0,0.0,0.0,0.0,0.0,0.0,0.0,0.0,0.0,0.0874,0.2585,0.4494,0.6264,0.7931,0.9845,1.0688,1.0688,1.0688,1.0688,1.0688,1.0688,1.0688,1.0688,1.0688,1.0688,1.0688,1.0688,1.0688,1.0688,-2.0882,-2.0882,-2.0882,0.0,-2.0708,-2.0635,0.0,0.0,0.0,0.0,-1.4752,-1.319,-1.1813,-1.1402,-1.1217,-1.1217,-1.0831,0.0,0.0,0.0,0.0,-1.0674,-1.4015,-1.5078,-1.3281,-1.5435,0.0,-1.8506,0.0,0.0,-2.1077,0.0,0.0,0.0,0.0,-1.355,-1.0688,-1.0688,-1.0688,-1.0688,-1.0688,-1.0688,-1.0688,0.0,-1.0688,-1.0688,-1.0688,-1.0688,-1.0688,-1.0688,-1.0688,-1.0688,-1.0688,-1.0688,-1.0452,-0.9105,-0.8701,-0.8302,-0.6531,-0.6064,-0.5964,-0.5498,-0.5348,-0.5435,0.0,0.0,0.0,0.0,0.0,0.0,0.0,0.0,0.0,0.0,0.0,0.0,0.0,0.0,0.0,-0.9792,-0.8737,-0.7869,-0.7439,-0.5877,-0.4244,-0.2618,-0.0961,0.0,0.0,0.0,0.0,0.0,0.0,0.0,0.0,0.0,0.0235,0.074,0.3891,0.5629,0.6164,0.9277,1.0688,1.0688,1.0688,1.0688,1.0688,1.0688,1.0688,1.0688,1.0688,1.0688,1.0688,1.0688,1.0688,1.0688,-2.1109,-2.1109,0.0,-2.1109,0.0,0.0,-1.9947,-1.9126,0.0,-1.603,-1.4354,0.0,-1.1827,-1.1121,-1.0688,-1.0688,-1.0688,0.0,-1.0688,0.0,0.0,-1.0754,-1.2574,-1.3161,-1.2186,-1.3877,0.0,-1.7371,0.0,0.0,-2.1077,0.0,0.0,0.0,0.0,-1.3259,-1.0688,-1.0688,-1.0688,-1.0688,-1.0688,-1.0688,0.0,-1.0688,-1.0688,-1.0688,-1.0688,-1.0688,-1.0688,-1.0688,-1.0688,-1.0688,-1.0688,-1.0147,-0.9305,-0.8299,-0.7464,-0.6462,-0.4693,-0.4226,-0.4024,-0.3221,-0.3053,-0.3254,-0.4024,-0.4226,-0.4416,0.0,0.0,0.0,0.0,0.0,0.0,0.0,0.0,0.0,0.0,0.0,0.0,0.0,-0.8995,-0.8475,-0.8522,-0.57,-0.347,-0.2563,-0.0963,0.0,0.0,0.0,0.0,0.0,0.0,0.0,0.0,0.0,0.0,0.0034,0.3657,0.5397,0.5531,0.9075,1.0688,1.0688,1.0688,1.0688,1.0688,1.0688,1.0688,1.0688,1.0688,1.0688,1.0688,1.0688,1.0688,1.0688,-2.1109,0.0,0.0,0.0,0.0,0.0,0.0,-1.7956,0.0,-1.5751,0.0,-1.2964,-1.2964,-1.16,-1.0688,-1.0688,0.0,-1.0688,-1.0688,-1.0688,-1.0688,-1.0688,-1.0688,-1.0688,-1.0688,-1.2186,-1.3807,0.0,0.0,0.0,0.0,0.0,0.0,0.0,0.0,0.0,0.0,-1.0688,-1.0688,-1.0688,-1.0688,-1.0688,-1.0688,-1.0688,-1.0688,-1.0688,-1.0688,-1.0688,-1.0688,-1.0688,-1.0688,-1.0688,-1.0688,-0.9474,-0.7964,-0.7731,-0.6431,-0.4661,-0.2853,-0.2351,-0.1981,-0.0404,0.0,-0.0404,-0.1981,-0.2351,-0.2786,-0.436,-0.4693,-0.4762,0.0,0.0,0.0,0.0,0.0,0.0,0.0,0.0,0.0,0.0,0.0,0.0,-0.9973,-0.5863,-0.3178,-0.3185,-0.1433,0.0,0.0,0.0,0.0,0.0,0.0,0.0,0.0,0.0,0.0,0.0034,0.3657,0.5397,0.5531,0.9075,1.0688,1.0688,1.0688,1.0688,1.0688,1.0688,1.0688,1.0688,1.0688,1.0688,1.0688,1.0688,1.0688,1.0688,-2.1109,0.0,0.0,0.0,0.0,-1.802,-1.6598,-1.5139,-1.4101,-1.3811,-1.2252,-1.1144,-1.1144,-1.0883,-1.0688,-1.0688,-1.0688,0.0,0.0,0.0,0.0,-1.0688,-1.0688,-1.0688,-1.0688,-1.1012,-1.2025,0.0,0.0,0.0,0.0,0.0,0.0,0.0,0.0,0.0,-1.0688,-1.0688,0.0,-1.0688,-1.0688,-1.0688,-1.0688,-1.0688,-1.0688,-1.0688,-1.0688,-1.0688,-1.0688,-1.0688,-1.0688,-1.0688,-1.0688,-0.9474,-0.7731,-0.6264,-0.4593,-0.2785,-0.0975,-0.0471,-0.0404,-0.0067,0.0,-0.0067,-0.0404,-0.0471,-0.0572,-0.0874,-0.0941,-0.1411,-0.2887,0.0,0.0,0.0,0.0,0.0,0.0,0.0,0.0,0.0,0.0,-0.7073,-0.9961,-0.8092,-0.6767,-0.6849,-0.3992,0.0,0.0,0.0,0.0,0.0,0.0,0.0,0.0,0.0,0.0,0.0034,0.3657,0.5397,0.5531,0.9075,1.0688,1.0688,1.0688,1.0688,1.0688,1.0688,1.0688,1.0688,1.0688,1.0688,1.0688,1.0688,1.0688,1.0688,-2.1109,0.0,0.0,0.0,0.0,0.0,0.0,-1.3062,-1.2285,-1.3193,-1.2578,-1.2055,-1.2055,-1.124,-1.0688,-1.0688,-1.0688,-1.0688,-1.0688,-1.0688,-1.0688,-1.0688,-1.0688,-1.0688,-1.0688,-1.0688,-1.1534,-1.3292,0.0,0.0,0.0,0.0,0.0,0.0,0.0,-1.1501,0.0,0.0,0.0,-1.0688,-1.0688,-1.0688,-1.0688,-1.0688,-1.0688,-1.0688,-1.0688,-1.0688,-1.0688,-1.0688,-1.0081,-0.9305,-0.9305,-0.7431,-0.5091,-0.4258,-0.2719,-0.1109,-0.0235,0.0,0.0,0.0,0.0,0.0,0.0,0.0,0.0,0.0,0.0,-0.0538,-0.235,-0.3422,0.0,0.0,0.0,0.0,0.0,0.0,0.0,0.0,0.0,0.0,0.0,0.0,0.0,0.0,0.0,0.0,0.0,0.0,0.0,0.0,0.0,0.0,0.0,0.0,0.0,0.0034,0.3657,0.5397,0.5531,0.9075,1.0688,1.0688,1.0688,1.0688,1.0688,1.0688,1.0688,1.0688,1.0688,1.0688,1.0688,1.0688,1.0688,1.0688,0.0,-2.0557,0.0,0.0,-1.6501,-1.4879,-1.3517,-1.1828,-1.1178,-1.2578,-1.2738,-1.2738,-1.2738,-1.1534,-1.0688,-1.0688,-1.0688,-1.0688,-1.0688,-1.0688,-1.0688,-1.0688,-1.0688,-1.0688,-1.0688,-1.0688,-1.1372,0.0,0.0,0.0,0.0,0.0,0.0,0.0,0.0,0.0,0.0,0.0,-1.0688,-1.0688,-1.0688,-1.0688,-1.0688,-1.0688,-1.0688,-1.0688,-1.0688,-1.0688,-1.0688,-1.0688,-0.9507,-0.7997,-0.7997,-0.5559,-0.2685,-0.2685,-0.1411,0.0,0.0,0.0,0.0,0.0,0.0,0.0,0.0,0.0,0.0,0.0,0.0,-0.0538,-0.235,-0.2383,0.0,0.0,0.0,0.0,0.0,0.0,0.0,0.0,0.0,0.0,-0.711,0.0,0.0,0.0,0.0,0.0,-0.0673,0.0,0.0,0.0,0.0,0.0,0.0,0.0,0.0202,0.0605,0.3856,0.5598,0.6064,0.9241,1.0688,1.0688,1.0688,1.0688,1.0688,1.0688,1.0688,1.0688,1.0688,1.0688,1.0688,1.0688,1.0688,1.0688,0.0,0.0,0.0,0.0,0.0,-1.3484,-1.332,-1.1828,-1.075,-1.0916,-1.0946,-1.0946,-1.0946,-1.0784,-1.0688,-1.0688,-1.0688,-1.0688,-1.0688,-1.0688,-1.0688,-1.0688,-1.0688,-1.0688,-1.0688,-1.0688,-1.0787,0.0,0.0,0.0,0.0,0.0,0.0,0.0,0.0,0.0,0.0,-1.0688,-1.0688,-1.0688,-1.0688,-1.0688,-1.0688,-1.0688,-1.0688,-1.0688,-1.0688,-1.0688,-1.0688,-1.0688,-0.9507,-0.7997,-0.7997,-0.5559,-0.2685,-0.2685,-0.1411,0.0,0.0,0.0,0.0,0.0,0.0,0.0,0.0,0.0,0.0,0.0,0.0,-0.0538,-0.235,-0.1344,-0.084,0.0,0.0,0.0,0.0,0.0,0.0,0.0,0.0,0.0,0.0,-0.7051,0.0,0.0,-0.5225,0.0,0.0,0.0,0.0,0.0,0.0,0.0,0.0,0.0,0.0807,0.2484,0.4459,0.6231,0.7831,0.9812,1.0688,1.0688,1.0688,1.0688,1.0688,1.0688,1.0688,1.0688,1.0688,1.0688,1.0688,1.0688,1.0688,1.0688,0.0,0.0,0.0,0.0,0.0,0.0,0.0,-1.1144,-1.0688,-1.0688,-1.0688,-1.0688,-1.0688,-1.0688,-1.0688,-1.0688,-1.0688,-1.0688,-1.0688,-1.0688,-1.0688,-1.0688,-1.0688,-1.0688,-1.0688,-1.0688,-1.0688,0.0,0.0,0.0,0.0,0.0,0.0,0.0,0.0,-1.0688,-1.0688,-1.0688,-1.0688,-1.0688,-1.0688,-1.0688,-1.0688,-1.0688,-1.0688,-1.0688,-1.0688,-1.0688,-1.0688,-1.0688,-0.8806,-0.6431,-0.6431,-0.3989,-0.1075,-0.1075,-0.0572,0.0,0.0,0.0,0.0,0.0,0.0,0.0,0.0,0.0,0.0,0.0,0.0,-0.0235,-0.0941,-0.0504,-0.0235,0.0,0.0,0.0,0.0,0.0,0.0,0.0,0.0,0.0,0.0,-0.4424,0.0,0.0,0.0,0.0,0.0,0.0,0.0,0.0,0.0,0.0,0.0,0.0,0.0908,0.2719,0.4526,0.6297,0.8064,0.9878,1.0688,1.0688,1.0688,1.0688,1.0688,1.0688,1.0688,1.0688,1.0688,1.0688,1.0688,1.0688,1.0688,1.0688,-2.0424,0.0,-1.7178,0.0,-1.3676,-1.2136,-1.0945,-1.0752,-1.0769,-1.0843,-1.085,-1.0819,-1.0694,-1.0688,-1.0688,-1.0688,-1.0688,-1.0688,-1.0688,-1.0688,-1.0688,-1.0688,-1.0688,0.0,-1.0688,-1.0688,-1.0688,-1.0688,-1.1927,0.0,0.0,0.0,0.0,0.0,-1.0688,-1.0688,-1.0688,-1.0688,-1.0688,-1.0688,-1.0688,-1.0688,-1.0688,-1.0688,-1.0688,-1.0688,-1.0688,-1.0688,-1.0688,-1.0688,-0.8338,-0.5397,-0.5397,-0.3288,-0.0673,-0.0168,0.0,0.0,0.0,0.0,0.0,0.0,0.0,0.0,0.0,0.0,0.0,0.0,0.0,0.0,0.0,0.0,0.0,0.0,0.0,0.0,0.0,0.0,0.0,0.0,0.0,-0.0504,-0.178,-0.2383,0.0,0.0,0.0,0.0,0.0,0.0,0.0,0.0,0.0,0.0,0.0,0.0,0.1176,0.3523,0.4795,0.6598,0.8837,1.0114,1.0688,1.0688,1.0688,1.0688,1.0688,1.0688,1.0688,1.0688,1.0688,1.0688,1.0688,1.0688,1.0688,1.0688,-1.8864,-1.7146,-1.5367,-1.3648,-1.1894,-1.0772,-1.0887,-1.0911,-1.0961,-1.1172,-1.1193,-1.108,-1.0751,-1.0688,-1.0688,-1.0688,-1.0688,-1.0688,-1.0688,-1.0688,-1.0688,0.0,0.0,-1.0688,-1.0688,-1.0688,-1.0688,-1.0688,0.0,0.0,-1.0721,0.0,-1.0717,-1.0688,-1.0688,-1.0688,-1.0688,-1.0688,-1.0688,-1.0688,-1.0688,-1.0688,-1.0688,-1.0688,-1.0688,-1.0688,-1.0688,-1.0688,-1.0688,-1.0688,-0.8338,-0.5397,-0.5397,-0.4158,-0.2317,-0.0538,0.0,0.0,0.0,0.0,0.0,0.0,0.0,0.0,0.0,0.0,0.0,0.0,0.0,0.0,0.0,0.0,0.0,0.0,0.0,0.0,0.0,0.0,0.0,0.0,0.0,0.0,-0.0034,-0.1646,0.0,0.0,0.0,0.0,0.0,0.0,0.0,0.0,0.0,0.0,0.0,0.0,0.1814,0.5364,0.5397,0.7236,1.0688,1.0688,1.0688,1.0688,1.0688,1.0688,1.0688,1.0688,1.0688,1.0688,1.0688,1.0688,1.0688,1.0688,1.0688,1.0688,-2.0715,-1.9375,-1.81,-1.7564,-1.4969,-1.2956,-1.3016,-1.194,-1.1145,-1.1193,-1.1196,-1.1162,-1.1067,-1.1057,-1.1057,0.0,-1.0931,-1.0843,0.0,-1.0745,-1.0688,-1.0688,-1.0688,-1.0688,-1.0688,-1.0688,-1.0688,-1.0688,0.0,0.0,0.0,-1.0688,-1.0688,-1.0688,-1.0688,-1.0688,-1.0688,-1.0688,-1.0688,-1.0688,-1.0688,-1.0688,-1.0688,-1.0688,-1.0688,-1.0688,-1.0688,-1.0688,-1.0518,-0.9274,-0.81,-0.6762,-0.4324,-0.2317,-0.074,-0.0168,0.0,0.0,0.0,0.0,0.0,0.0,0.0,0.0,0.0,0.0,0.0,0.0,0.0,0.0,0.0,0.0,0.0,0.0,0.0,0.0,0.0,0.0,0.0,0.0,0.0,0.0,0.0,-0.0504,0.0,0.0,0.0,0.0,0.0,0.0,0.0,0.0,0.0,0.0,0.0,0.0,0.1814,0.5397,0.5397,0.7267,1.0688,1.0688,1.0688,1.0688,1.0688,1.0688,1.0688,1.0688,1.0688,1.0688,1.0688,1.0688,1.0688,1.0688,1.0688,1.0688,-2.0849,-1.9441,-1.8133,-1.7417,-1.4892,-1.2956,-1.3023,-1.2038,-1.1305,-1.1324,-1.1335,-1.1335,-1.1335,-1.1335,0.0,-1.1206,-1.108,-1.0972,-1.0884,-1.0826,-1.0745,-1.0688,-1.0688,-1.0688,-1.0688,-1.0688,0.0,-1.0688,-1.0688,-1.0688,-1.0688,-1.0688,-1.0688,-1.0688,-1.0688,-1.0688,-1.0688,-1.0688,-1.0688,-1.0688,-1.0688,-1.0688,-1.0688,-1.0688,-1.0688,-1.0688,-1.0688,-1.0688,-1.0416,-0.8601,-0.7564,-0.6529,-0.3622,-0.1445,0.0,0.0,0.0,0.0,0.0,0.0,0.0,0.0,0.0,0.0,0.0,0.0,0.0,0.0,0.0,0.0,0.0,0.0,0.0,0.0,0.0,0.0,0.0,0.0,0.0,0.0,0.0,0.0,0.0,0.0,0.0,0.0,0.0,0.0,0.0,0.0,0.0,0.0,0.0,0.0,0.0,0.0673,0.2484,0.5431,0.6767,0.854,1.0688,1.0688,1.0688,1.0688,1.0688,1.0688,1.0688,1.0688,1.0688,1.0688,1.0688,1.0688,1.0688,1.0688,1.0688,1.0688,-1.9751,-1.8043,-1.6292,0.0,-1.2693,0.0,-1.1593,-1.1512,-1.1457,-1.1563,-1.1584,-1.1584,-1.1584,-1.1584,-1.1504,-1.1254,0.0,0.0,0.0,-1.0924,-1.085,-1.0711,-1.0691,-1.0688,-1.0688,-1.0688,-1.0688,-1.0688,-1.0688,-1.0688,-1.0688,-1.0688,-1.0688,-1.0688,-1.0688,-1.0688,-1.0688,-1.0688,-1.0688,-1.0688,-1.0688,-1.0688,-1.0688,-1.0688,-1.0688,-1.0688,-1.0688,-1.0688,-1.0416,-0.8601,-0.6829,-0.5095,-0.3254,-0.1445,0.0,0.0,0.0,0.0,0.0,0.0,0.0,0.0,0.0,0.0,0.0,0.0,0.0,0.0,0.0,0.0,0.0,0.0,0.0,0.0,0.0,0.0,0.0,0.0,0.0,0.0,0.0,0.0,0.0,0.0,0.0,0.0,0.0,0.0,0.0,0.0,0.0,0.0,0.0,0.0,0.0,0.178,0.3657,0.5631,0.9075,1.0688,1.0688,1.0688,1.0688,1.0688,1.0688,1.0688,1.0688,1.0688,1.0688,1.0688,1.0688,1.0688,1.0688,1.0688,1.0688,1.0688,0.0,0.0,-1.914,-1.8686,-1.5866,-1.3652,-1.3692,-1.2476,-1.1543,-1.1613,-1.1584,-1.1584,-1.1584,-1.1584,-1.1553,-1.1518,-1.1406,-1.1321,-1.1287,-1.1039,-1.0897,-1.0863,-1.0748,-1.0688,-1.0688,-1.0688,-1.0688,-1.0688,-1.0688,-1.0688,-1.0688,-1.0688,-1.0688,-1.0688,-1.0688,-1.0688,-1.0688,-1.0688,-1.0688,-1.0688,-1.0688,-1.0688,-1.0688,-1.0688,-1.0688,-1.0688,-1.0688,-1.0688,-1.0416,-0.8601,-0.6829,-0.5095,-0.3254,-0.1445,0.0,0.0,0.0,0.0,0.0,0.0,0.0,0.0,0.0,0.0,0.0,0.0,0.0,0.0,0.0,0.0,0.0,0.0,0.0,0.0,0.0,0.0,0.0,0.0,0.0,0.0,0.0,0.0,0.0,0.0,0.0,0.0,0.0,0.0,0.0,0.0,0.0,0.0,0.0,0.0,0.0,0.178,0.429,0.7398,0.9643,1.0688,1.0688,1.0688,1.0688,1.0688,1.0688,1.0688,1.0688,1.0688,1.0688,1.0688,1.0688,1.0688,1.0688,1.0688,1.0688,1.0688,-2.036,-1.9364,-1.8234,-1.6509,-1.4507,-1.3135,-1.3135,-1.2252,-1.1584,-1.1584,-1.1584,-1.1584,-1.1584,-1.1584,-1.1584,-1.1584,-1.1545,-1.1467,-1.1396,-1.124,-1.1056,-1.0921,-1.0836,-1.0759,-1.0688,-1.0688,-1.0688,-1.0688,-1.0688,-1.0688,-1.0688,-1.0688,-1.0688,-1.0688,-1.0688,-1.0688,-1.0688,-1.0688,-1.0688,-1.0688,-1.0688,-1.0688,-1.0688,-1.0688,-1.0688,-1.0688,-1.0688,-1.0688,-1.0416,-0.8601,-0.6829,-0.5095,-0.3254,-0.1445,0.0,0.0,0.0,0.0,0.0,0.0,0.0,0.0,0.0,0.0,0.0,0.0,0.0,0.0,0.0,0.0,0.0,0.0,0.0,0.0,0.0,0.0,0.0,0.0,0.0,0.0,0.0,0.0,0.0,0.0,0.0,0.0,0.0,0.0,0.0,0.0,0.0,0.0,0.0,0.0,0.0,0.2618,0.5728,0.9238,1.0213,1.0688,1.0688,1.0688,1.0688,1.0688,1.0688,1.0688,1.0688,1.0688,1.0688,1.0688,1.0688,1.0688,1.0688,1.0688,1.0688,1.0688,-1.8688,-1.7844,-1.6549,-1.3067,-1.2219,-1.1936,-1.1655,-1.1584,-1.1584,-1.1584,-1.1584,-1.1584,-1.1584,-1.1584,-1.1584,-1.1584,-1.1584,-1.1565,-1.1433,-1.1402,-1.1277,-1.0992,-1.0938,-1.0853,-1.0725,-1.0698,-1.0688,-1.0688,-1.0688,-1.0688,-1.0688,-1.0688,-1.0688,-1.0688,-1.0688,-1.0688,-1.0688,-1.0688,-1.0688,-1.0688,-1.0688,-1.0688,-1.0688,-1.0688,-1.0688,-1.0688,-1.0688,-1.0688,-1.0485,-0.8936,-0.7065,-0.513,-0.359,-0.168,0.0,0.0,0.0,0.0,0.0,0.0,0.0,0.0,0.0,0.0,0.0,0.0,0.0,0.0,0.0,0.0,0.0,0.0,0.0,0.0,0.0,0.0,0.0,0.0,0.0,0.0,0.0,0.0,0.0,0.0,0.0,0.0,0.0,0.0,0.0,0.0,0.0,0.0,0.0,0.0269,0.0807,0.4124,0.7434,1.0688,1.0688,1.0688,1.0688,1.0688,1.0688,1.0688,1.0688,1.0688,1.0688,1.0688,1.0688,1.0688,1.0688,1.0688,1.0688,1.0688,1.0688,1.0688,-2.2125,-2.0756,-1.8932,-1.6726,-1.5035,-1.3412,-1.1832,-1.1584,-1.1584,-1.1584,-1.1584,-1.1584,-1.1584,-1.1584,-1.1584,-1.1584,-1.1584,-1.1573,-1.1586,-1.1463,-1.1369,-1.1324,-1.1049,-1.0904,-1.088,-1.0752,-1.0688,-1.0688,-1.0688,-1.0688,-1.0688,-1.0688,-1.0688,-1.0688,-1.0688,-1.0688,-1.0688,-1.0688,-1.0688,-1.0688,-1.0688,-1.0688,-1.0688,-1.0688,-1.0688,-1.0688,-1.0688,-1.0688,-1.0651,-1.0382,-0.8105,-0.5362,-0.5061,-0.2685,0.0,0.0,0.0,0.0,0.0,0.0,0.0,0.0,0.0,0.0,0.0,0.0,0.0,0.0,0.0,0.0,0.0,0.0,0.0,0.0,0.0,0.0,0.0,0.0,0.0,0.0,0.0,0.0,0.0,0.0,0.0,0.0,0.0,0.0,0.0,0.0,0.0,0.0,0.0,0.1478,0.4526,0.6596,0.8634,1.0688,1.0688,1.0688,1.0688,1.0688,1.0688,1.0688,1.0688,1.0688,1.0688,1.0688,1.0688,1.0688,1.0688,1.0688,1.0688,1.0688,1.0688,1.0688,-2.1596,-2.0686,-1.9176,-1.6192,-1.4995,-1.3765,-1.1903,-1.1584,-1.1584,-1.1584,-1.1584,-1.1584,-1.1584,-1.1584,-1.1584,-1.1584,-1.1584,-1.1584,-1.1584,-1.1552,-1.1477,-1.1396,-1.126,-1.1076,-1.0884,-1.0765,-1.0688,-1.0688,-1.0688,-1.0688,-1.0688,-1.0688,-1.0688,-1.0688,-1.0688,-1.0688,-1.0688,-1.0688,-1.0688,-1.0688,-1.0688,-1.0688,-1.0688,-1.0688,-1.0688,-1.0688,-1.0688,-1.0688,-1.0688,-1.0688,-0.8338,-0.5397,-0.5397,-0.2919,0.0,0.0,0.0,0.0,0.0,0.0,0.0,0.0,0.0,0.0,0.0,0.0,0.0,0.0,0.0,0.0,0.0,0.0,0.0,0.0,0.0,0.0,0.0,0.0,0.0,0.0,0.0,0.0,0.0,0.0,0.0,0.0,0.0,0.0,0.0,0.0,0.0,0.0,0.0941,0.2719,0.5364,0.7131,0.8903,1.0688,1.0688,1.0688,1.0688,1.0688,1.0688,1.0688,1.0688,1.0688,1.0688,1.0688,1.0688,1.0688,1.0688,1.0688,1.0688,1.0688,1.0688,1.0688,-2.1038,-2.0756,-1.9704,-1.6293,-1.5345,-1.4432,-1.2534,-1.1864,-1.1584,-1.1584,-1.1584,-1.1584,-1.1584,-1.1584,-1.1584,-1.1584,-1.1584,-1.1584,-1.1584,-1.1584,-1.1565,-1.145,-1.1409,-1.1253,-1.0921,-1.0799,-1.0721,-1.0688,-1.0688,-1.0688,-1.0688,-1.0688,-1.0688,-1.0688,-1.0688,-1.0688,-1.0688,-1.0688,-1.0688,-1.0688,-1.0688,-1.0688,-1.0688,-1.0688,-1.0688,-1.0688,-1.0688,-1.0688,-1.0688,-1.0688,-0.8338,-0.5397,-0.5397,-0.2919,0.0,0.0,0.0,0.0,0.0,0.0,0.0,0.0,0.0,0.0,0.0,0.0,0.0,0.0,0.0,0.0,0.0,0.0,0.0,0.0,0.0,0.0,0.0,0.0,0.0,0.0,0.0,0.0,0.0,0.0,0.0,0.0,0.0,0.0,0.0,0.0,0.0,0.0,0.2149,0.399,0.5397,0.7533,0.9338,1.0688,1.0688,1.0688,1.0688,1.0688,1.0688,1.0688,1.0688,1.0688,1.0688,1.0688,1.0688,1.0688,1.0688,1.0688,1.0688,1.0688,1.0688,1.0688,-2.2722,-2.2688,-2.2057,-2.0016,-1.8194,-1.6369,-1.4468,-1.271,-1.1584,-1.1584,-1.1584,-1.1584,-1.1584,-1.1584,-1.1584,-1.1584,-1.1584,-1.1584,-1.1584,-1.1584,-1.1613,-1.1603,-1.1467,-1.1253,-1.0921,-1.0904,-1.083,-1.0688,-1.0688,-1.0688,-1.0688,-1.0688,-1.0688,-1.0688,-1.0688,-1.0688,-1.0688,-1.0688,-1.0688,-1.0688,-1.0688,-1.0688,-1.0688,-1.0688,-1.0688,-1.0688,-1.0688,-1.0688,-1.0688,-1.0688,-0.8338,-0.5397,-0.5397,-0.2919,0.0,0.0,0.0,0.0,0.0,0.0,0.0,0.0,0.0,0.0,0.0,0.0,0.0,0.0,0.0,0.0,0.0,0.0,0.0,0.0,0.0,0.0,0.0,0.0,0.0,0.0,0.0,0.0,0.0,0.0,0.0,0.0,0.0,0.0,0.0,0.0,0.0,0.0,0.3388,0.5263,0.5397,0.8806,1.0585,1.0688,1.0688,1.0688,1.0688,1.0688,1.0688,1.0688,1.0688,1.0688,1.0688,1.0688,1.0688,1.0688,1.0688,1.0688,1.0688,1.0688,1.0688,1.0688,-2.2893,-2.2893,-2.2297,-2.0444,-1.8479,-1.6585,-1.4676,-1.2817,-1.1584,-1.1584,-1.1584,-1.1584,-1.1584,-1.1584,-1.1584,-1.1584,-1.1584,-1.1584,-1.1584,-1.1584,-1.1584,-1.1584,-1.1474,-1.1338,-1.1226,-1.1009,-1.0887,-1.083,-1.0732,-1.0688,-1.0688,-1.0688,-1.0688,-1.0688,-1.0688,-1.0688,-1.0688,-1.0688,-1.0688,-1.0688,-1.0688,-1.0688,-1.0688,-1.0688,-1.0688,-1.0688,-1.0688,-1.0688,-1.0688,-1.0688,-0.9072,-0.6831,-0.573,-0.369,-0.1445,-0.0336,0.0,0.0,0.0,0.0,0.0,0.0,0.0,0.0,0.0,0.0,0.0,0.0,0.0,0.0,0.0,0.0,0.0,0.0,0.0,0.0,0.0,0.0,0.0,0.0,0.0,0.0,0.0,0.0,0.0,0.0,0.0,0.0,0.0,0.0,0.0,0.0,0.3523,0.5397,0.5397,0.8909,1.0688,1.0688,1.0688,1.0688,1.0688,1.0688,1.0688,1.0688,1.0688,1.0688,1.0688,1.0688,1.0688,1.0688,1.0688,1.0688,1.0688,1.0688,1.0688,1.0688,-2.2893,-2.2893,-2.2475,-2.1211,-1.8863,-1.6761,-1.5491,-1.3206,-1.1584,-1.1584,-1.1584,-1.1584,-1.1584,-1.1584,-1.1584,-1.1584,-1.1584,-1.1584,-1.1584,-1.1584,-1.1584,-1.1584,-1.1518,-1.144,-1.1392,-1.1158,-1.1009,-1.0914,-1.0809,-1.0735,-1.0688,-1.0688,-1.0688,-1.0688,-1.0688,-1.0688,-1.0688,-1.0688,-1.0688,-1.0688,-1.0688,-1.0688,-1.0688,-1.0688,-1.0688,-1.0688,-1.0688,-1.0688,-1.0688,-1.0688,-0.9507,-0.7698,-0.5964,-0.3757,-0.1613,-0.037,0.0,0.0,0.0,0.0,0.0,0.0,0.0,0.0,0.0,0.0,0.0,0.0,0.0,0.0,0.0,0.0,0.0,0.0,0.0,0.0,0.0,0.0,0.0,0.0,0.0,0.0,0.0,0.0,0.0,0.0,0.0,0.0,0.0,0.0,0.0,0.0,0.3523,0.5397,0.5397,0.8909,1.0688,1.0688,1.0688,1.0688,1.0688,1.0688,1.0688,1.0688,1.0688,1.0688,1.0688,1.0688,1.0688,1.0688,1.0688,1.0688,1.0688,1.0688,1.0688,1.0688,-2.2893,-2.2893,-2.2893,-2.2893,-1.9739,-1.7218,-1.7218,-1.4018,-1.1619,-1.1584,-1.1584,-1.1584,-1.1584,-1.1584,-1.1584,-1.1584,-1.1584,-1.1584,-1.1584,-1.1584,-1.1584,-1.1584,-1.1584,-1.1548,-1.1396,-1.1392,-1.1246,-1.0884,-1.0917,-1.0836,-1.0688,-1.0688,-1.0688,-1.0688,-1.0688,-1.0688,-1.0688,-1.0688,-1.0688,-1.0688,-1.0688,-1.0688,-1.0688,-1.0688,-1.0688,-1.0688,-1.0688,-1.0688,-1.0688,-1.0688,-0.9507,-0.7731,-0.5964,-0.2919,-0.0034,0.0,0.0,0.0,0.0,0.0,0.0,0.0,0.0,0.0,0.0,0.0,0.0,0.0,0.0,0.0,0.0,0.0,0.0,0.0,0.0,0.0,0.0,0.0,0.0,0.0,0.0,0.0,0.0,0.0,0.0,0.0,0.0,0.0,0.0,0.0,0.0,0.0,0.3523,0.5397,0.5397,0.8909,1.0688,1.0688,1.0688,1.0688,1.0688,1.0688,1.0688,1.0688,1.0688,1.0688,1.0688,1.0688,1.0688,1.0688,1.0688,1.0688,1.0688,1.0688,1.0688,1.0688,-2.2893,-2.2893,-2.2893,-2.2893,-2.0859,-1.8758,-1.7428,-1.5137,-1.3095,-1.176,-1.1584,-1.1584,-1.1584,-1.1584,-1.1584,-1.1584,-1.1584,-1.1584,-1.1584,-1.1584,-1.1584,-1.1584,-1.1584,-1.1563,-1.1552,-1.1447,-1.1348,-1.1257,-1.1016,-1.089,-1.0843,-1.0738,-1.0688,-1.0688,-1.0688,-1.0688,-1.0688,-1.0688,-1.0688,-1.0688,-1.0688,-1.0688,-1.0688,-1.0688,-1.0688,-1.0688,-1.0688,-1.0688,-1.0688,-1.0688,-1.0349,-0.9374,-0.6366,-0.3791,-0.1646,-0.037,0.0,0.0,0.0,0.0,0.0,0.0,0.0,0.0,0.0,0.0,0.0,0.0,0.0,0.0,0.0,0.0,0.0,0.0,0.0,0.0,0.0,0.0,0.0,0.0,0.0,0.0,0.0,0.0,0.0,0.0,0.0,0.0,0.0,0.0,0.0,0.0,0.3523,0.5397,0.5397,0.8909,1.0688,1.0688,1.0688,1.0688,1.0688,1.0688,1.0688,1.0688,1.0688,1.0688,1.0688,1.0688,1.0688,1.0688,1.0688,1.0688,1.0688,1.0688,1.0688,1.0688,-2.2893,-2.2893,-2.2893,-2.2893,-2.0721,-1.8549,-1.7393,-1.4964,-1.2885,-1.176,-1.1584,-1.1584,-1.1584,-1.1584,-1.1584,-1.1584,-1.1584,-1.1584,-1.1584,-1.1584,-1.1584,-1.1584,-1.1584,-1.1584,-1.1584,-1.1528,-1.1453,-1.1392,-1.1151,-1.0968,-1.0911,-1.0759,-1.0688,-1.0688,-1.0688,-1.0688,-1.0688,-1.0688,-1.0688,-1.0688,-1.0688,-1.0688,-1.0688,-1.0688,-1.0688,-1.0688,-1.0688,-1.0688,-1.0688,-1.0688,-1.0216,-0.9138,-0.6297,-0.4158,-0.2351,-0.0538,0.0,0.0,0.0,0.0,0.0,0.0,0.0,0.0,0.0,0.0,0.0,0.0,0.0,0.0,0.0,0.0,0.0,0.0,0.0,0.0,0.0,0.0,0.0,0.0,0.0,0.0,0.0,0.0,0.0,0.0,0.0,0.0,0.0,0.0,0.0336,0.1042,0.389,0.573,0.6431,0.9277,1.0688,1.0688,1.0688,1.0688,1.0688,1.0688,1.0688,1.0688,1.0688,1.0688,1.0688,1.0688,1.0688,1.0688,1.0688,1.0688,1.0688,1.0688,1.0688,1.0688,-2.2893,-2.2893,-2.2893,-2.2893,-2.0016,-1.7604,-1.7253,-1.4303,-1.1972,-1.1655,-1.1584,-1.1584,-1.1584,-1.1584,-1.1584,-1.1584,-1.1584,-1.1584,-1.1584,-1.1584,-1.1584,-1.1584,-1.1584,-1.1584,-1.1584,-1.1584,-1.1552,-1.1413,-1.1291,-1.1107,-1.0931,-1.0779,-1.0698,-1.0688,-1.0688,-1.0688,-1.0688,-1.0688,-1.0688,-1.0688,-1.0688,-1.0688,-1.0688,-1.0688,-1.0688,-1.0688,-1.0688,-1.0688,-1.0688,-1.0688,-0.9609,-0.7897,-0.5997,-0.4258,-0.2551,-0.0572,0.0,0.0,0.0,0.0,0.0,0.0,0.0,0.0,0.0,0.0,0.0,0.0,0.0,0.0,0.0,0.0,0.0,0.0,0.0,0.0,0.0,0.0,0.0,0.0,0.0,0.0,0.0,0.0,0.0,0.0,0.0,0.0,0.0,0.0,0.074,0.2417,0.436,0.6164,0.7764,0.9712,1.0688,1.0688,1.0688,1.0688,1.0688,1.0688,1.0688,1.0688,1.0688,1.0688,1.0688,1.0688,1.0688,1.0688,1.0688,1.0688,1.0688,1.0688,1.0688,1.0688,-2.2893,-2.2893,-2.2893,-2.2893,-2.2229,-2.0652,-1.7674,-1.6514,-1.4933,-1.1972,-1.1584,-1.1584,-1.1584,-1.1584,-1.1584,-1.1584,-1.1584,-1.1584,-1.1584,-1.1584,-1.1584,-1.1584,-1.1584,-1.1584,-1.1584,-1.1584,-1.1603,-1.1569,-1.1416,-1.1263,-1.1149,-1.0934,-1.0799,-1.0688,-1.0688,-1.0688,-1.0688,-1.0688,-1.0688,-1.0688,-1.0688,-1.0688,-1.0688,-1.0688,-1.0688,-1.0688,-1.0688,-1.0688,-1.0688,-1.0688,-1.0452,-0.9576,-0.64,-0.513,-0.4191,-0.0941,0.0,0.0,0.0,0.0,0.0,0.0,0.0,0.0,0.0,0.0,0.0,0.0,0.0,0.0,0.0,0.0,0.0,0.0,0.0,0.0,0.0,0.0,0.0,0.0,0.0,0.0,0.0,0.0,0.0,0.0,0.0,0.0,0.0,0.0,0.0168,0.0572,0.3722,0.5598,0.5964,0.9108,1.0688,1.0688,1.0688,1.0688,1.0688,1.0688,1.0688,1.0688,1.0688,1.0688,1.0688,1.0688,1.0688,1.0688,1.0688,1.0688,1.0688,1.0688,1.0688,1.0688,-2.2893,-2.2893,-2.2893,-2.2893,-2.216,-2.0583,-1.7639,-1.6439,-1.4822,-1.1972,-1.1584,-1.1584,-1.1584,-1.1584,-1.1584,-1.1584,-1.1584,-1.1584,-1.1584,-1.1584,-1.1584,-1.1584,-1.1584,-1.1584,-1.1584,-1.1584,-1.1584,-1.1584,-1.1467,-1.1346,-1.1193,-1.0982,-1.0833,-1.0688,-1.0688,-1.0688,-1.0688,-1.0688,-1.0688,-1.0688,-1.0688,-1.0688,-1.0688,-1.0688,-1.0688,-1.0688,-1.0688,-1.0688,-1.0688,-1.0688,-1.0688,-1.0081,-0.6533,-0.5397,-0.4693,-0.1075,0.0,0.0,0.0,0.0,0.0,0.0,0.0,0.0,0.0,0.0,0.0,0.0,0.0,0.0,0.0,0.0,0.0,0.0,0.0,0.0,0.0,0.0,0.0,0.0,0.0,0.0,0.0,0.0,0.0,0.0,0.0,0.0,0.0,0.0,0.0404,0.1277,0.312,0.4927,0.6631,0.8468,0.9845,1.0688,1.0688,1.0688,1.0688,1.0688,1.0688,1.0688,1.0688,1.0688,1.0688,1.0688,1.0688,1.0688,1.0688,1.0688,1.0688,1.0688,1.0688,1.0688,-2.2893,-2.2893,-2.2893,-2.2893,-2.1349,-1.9426,-1.7499,-1.5597,-1.3729,-1.1868,-1.1584,-1.1584,-1.1584,-1.1584,-1.1584,-1.1584,-1.1584,-1.1584,-1.1584,-1.1584,-1.1584,-1.1584,-1.1584,-1.1584,-1.1584,-1.1584,-1.1584,-1.1584,-1.1494,-1.1338,-1.1196,-1.1043,-1.0857,-1.0688,-1.0688,-1.0688,-1.0688,-1.0688,-1.0688,-1.0688,-1.0688,-1.0688,-1.0688,-1.0688,-1.0688,-1.0688,-1.0688,-1.0688,-1.0688,-1.0688,-1.0688,-1.0081,-0.6533,-0.5397,-0.4693,-0.1075,0.0,0.0,0.0,0.0,0.0,0.0,0.0,0.0,0.0,0.0,0.0,0.0,0.0,0.0,0.0,0.0,0.0,0.0,0.0,0.0,0.0,0.0,0.0,0.0,0.0,0.0,0.0,0.0,0.0,0.0,0.0,0.0,0.0,0.0,0.0673,0.2183,0.2551,0.4123,0.7062,0.7695,0.8767,1.0246,1.0552,1.0688,1.0688,1.0688,1.0688,1.0688,1.0688,1.0688,1.0688,1.0688,1.0688,1.0688,1.0688,1.0688,1.0688,1.0688,1.0688,1.0688,-2.2893,-2.2893,-2.2893,-2.2893,-2.1349,-1.9426,-1.7499,-1.5597,-1.3729,-1.1868,-1.1584,-1.1584,-1.1584,-1.1584,-1.1584,-1.1584,-1.1584,-1.1584,-1.1584,-1.1584,-1.1584,-1.1584,-1.1584,-1.1584,-1.1584,-1.1584,-1.1584,-1.1584,-1.1563,-1.1443,-1.1196,-1.1176,-1.0985,-1.0688,-1.0688,-1.0688,-1.0688,-1.0688,-1.0688,-1.0688,-1.0688,-1.0688,-1.0688,-1.0688,-1.0688,-1.0688,-1.0688,-1.0688,-1.0688,-1.0688,-1.0688,-1.0081,-0.6533,-0.5397,-0.4693,-0.1075,0.0,0.0,0.0,0.0,0.0,0.0,0.0,0.0,0.0,0.0,0.0,0.0,0.0,0.0,0.0,0.0,0.0,0.0,0.0,0.0,0.0,0.0,0.0,0.0,0.0,0.0,0.0,0.0,0.0,0.0,0.0,0.0,0.0,0.0,0.0101,0.037,0.1881,0.2919,0.3421,0.646,0.813,0.8399,0.9945,1.0688,1.0688,1.0688,1.0688,1.0688,1.0688,1.0688,1.0688,1.0688,1.0688,1.0688,1.0688,1.0688,1.0688,1.0688,1.0688,1.0688,-2.2893,-2.2893,-2.2893,-2.2893,-2.2194,-2.0646,-1.7674,-1.6514,-1.4893,-1.1972,-1.1584,-1.1584,-1.1584,-1.1584,-1.1584,-1.1584,-1.1584,-1.1584,-1.1584,-1.1584,-1.1584,-1.1584,-1.1584,-1.1584,-1.1584,-1.1584,-1.1584,-1.1584,-1.1584,-1.1508,-1.1325,-1.1237,-1.105,-1.0809,-1.0725,-1.0688,-1.0688,-1.0688,-1.0688,-1.0688,-1.0688,-1.0688,-1.0688,-1.0688,-1.0688,-1.0688,-1.0688,-1.0688,-1.0688,-1.0688,-1.0688,-1.025,-0.7667,-0.6197,-0.4896,-0.2283,-0.0807,0.0,0.0,0.0,0.0,0.0,0.0,0.0,0.0,0.0,0.0,0.0,0.0,0.0,0.0,0.0,0.0,0.0,0.0,0.0,0.0,0.0,0.0,0.0,0.0,0.0,0.0,0.0,0.0,0.0,0.0,0.0,0.0,0.0,0.0,0.0,0.0773,0.168,0.2685,0.526,0.7031,0.803,0.9842,1.0688,1.0688,1.0688,1.0688,1.0688,1.0688,1.0688,1.0688,1.0688,1.0688,1.0688,1.0688,1.0688,1.0688,1.0688,1.0688,1.0688]},{"header":{"parameterUnit":"m.s-1","parameterCategory":1,"la1":30.6,"la2":28.766,"lo1":-90.7593,"lo2":-88.6598,"dy":0.0162,"dx":0.0183,"nx":116,"ny":114,"refTime":"2023-03-16T18:00:00:Z","depth":0,"parameterNumber":3,"parameterNumberName":"V-component_of_WINDS"},"data":[0.0,0.0,0.0,0.0,0.0,0.0,0.0,0.0,0.0,0.0,0.0,0.0,0.0,0.0,0.0,0.0,0.0,0.0,0.0,0.0,0.0,0.0,0.0,0.0,0.0,0.0,0.0,0.0,0.0,0.0,0.0,0.0,0.0,0.0,0.0,0.0,0.0,0.0,0.0,0.0,0.0,0.0,0.0,0.0,0.0,0.0,0.0,0.0,0.0,0.0,0.0,0.0,0.0,0.0,0.0,0.0,0.0,0.0,0.0,0.0,0.0,0.0,0.0,0.0,0.0,0.0,0.0,0.0,0.0,0.0,0.0,0.0,0.0,0.0,0.0,0.0,0.0,0.0,0.0,0.0,0.0,0.0,0.0,0.0,0.0,0.0,0.0,0.0,0.0,0.0,0.0,0.0,0.0,0.0,0.0,0.0,0.0,0.0,0.0,0.0,0.0,0.0,0.0,0.0,0.0,0.0,0.0,0.0,0.0,0.0,0.0,0.0,0.0,0.0,0.0,0.0,0.0,0.0,0.0,0.0,0.0,0.0,0.0,0.0,0.0,0.0,0.0,0.0,0.0,0.0,0.0,0.0,0.0,0.0,0.0,0.0,0.0,0.0,0.0,0.0,0.0,0.0,0.0,0.0,0.0,0.0,0.0,0.0,0.0,0.0,0.0,0.0,0.0,0.0,0.0,0.0,0.0,0.0,0.0,0.0,0.0,0.0,0.0,0.0,0.0,0.0,0.0,0.0,0.0,0.0,0.0,0.0,0.0,0.0,0.0,0.0,0.0,0.0,0.0,0.0,0.0,0.0,0.0,0.0,0.0,0.0,0.0,0.0,0.0,0.0,0.0,0.0,0.0,0.0,0.0,0.0,0.0,0.0,0.0,0.0,0.0,0.0,0.0,0.0,0.0,0.0,0.0,0.0,0.0,0.0,0.0,0.0,0.0,0.0,0.0,0.0,0.0,0.0,0.0,0.0,0.0,0.0,0.0,0.0,0.0,0.0,0.0,0.0,0.0,0.0,0.0,0.0,0.0,0.0,0.0,0.0,0.0,0.0,0.0,0.0,0.0,0.0,0.0,0.0,0.0,0.0,0.0,0.0,0.0,0.0,0.0,0.0,0.0,0.0,0.0,0.0,0.0,0.0,0.0,0.0,0.0,0.0,0.0,0.0,0.0,0.0,0.0,0.0,0.0,0.0,0.0,0.0,0.0,0.0,0.0,0.0,0.0,0.0,0.0,0.0,0.0,0.0,0.0,0.0,0.0,0.0,0.0,0.0,0.0,0.0,0.0,0.0,0.0,0.0,0.0,0.0,0.0,0.0,0.0,0.0,0.0,0.0,0.0,0.0,0.0,0.0,0.0,0.0,0.0,0.0,0.0,0.0,0.0,0.0,0.0,0.0,0.0,0.0,0.0,0.0,0.0,0.0,0.0,0.0,0.0,0.0,0.0,0.0,0.0,0.0,0.0,0.0,0.0,0.0,0.0,0.0,0.0,0.0,0.0,0.0,0.0,0.0,0.0,0.0,0.0,0.0,0.0,0.0,0.0,0.0,0.0,0.0,0.0,0.0,0.0,0.0,0.0,0.0,0.0,0.0,0.0,0.0,0.0,0.0,0.0,0.0,0.0,0.0,0.0,0.0,0.0,0.0,0.0,0.0,0.0,0.0,0.0,0.0,0.0,0.0,0.0,0.0,0.0,0.0,0.0,0.0,0.0,0.0,0.0,0.0,0.0,0.0,0.0,0.0,0.0,0.0,0.0,0.0,0.0,0.0,0.0,0.0,0.0,0.0,0.0,0.0,0.0,0.0,0.0,0.0,0.0,0.0,0.0,0.0,0.0,0.0,0.0,0.0,0.0,0.0,0.0,0.0,0.0,0.0,0.0,0.0,0.0,0.0,0.0,0.0,0.0,0.0,0.0,0.0,0.0,0.0,0.0,0.0,0.0,0.0,0.0,0.0,0.0,0.0,0.0,0.0,0.0,0.0,0.0,0.0,0.0,0.0,0.0,0.0,0.0,0.0,0.0,0.0,0.0,0.0,0.0,0.0,0.0,0.0,0.0,0.0,0.0,0.0,0.0,0.0,0.0,0.0,0.0,0.0,0.0,0.0,0.0,0.0,0.0,0.0,0.0,0.0,0.0,0.0,0.0,0.0,0.0,0.0,0.0,0.0,0.0,0.0,0.0,0.0,0.0,0.0,0.0,0.0,0.0,0.0,0.0,0.0,0.0,0.0,0.0,0.0,0.0,0.0,0.0,0.0,0.0,0.0,0.0,0.0,0.0,0.0,0.0,0.0,0.0,0.0,0.0,0.0,0.0,0.0,0.0,0.0,0.0,0.0,0.0,0.0,0.0,0.0,0.0,0.0,0.0,0.0,0.0,0.0,0.0,0.0,0.0,0.0,0.0,0.0,0.0,0.0,0.0,0.0,0.0,0.0,0.0,0.0,0.0,0.0,0.0,0.0,0.0,0.0,0.0,0.0,0.0,0.0,0.0,0.0,0.0,0.0,0.0,0.0,0.0,0.0,0.0,0.0,0.0,0.0,0.0,0.0,0.0,0.0,0.0,0.0,0.0,0.0,0.0,0.0,0.0,0.0,0.0,0.0,0.0,0.0,0.0,0.0,0.0,0.0,0.0,0.0,0.0,0.0,0.0,0.0,0.0,0.0,0.0,0.0,0.0,0.0,0.0,0.0,0.0,0.0,0.0,0.0,0.0,0.0,0.0,0.0,0.0,0.0,0.0,0.0,0.0,0.0,0.0,0.0,0.0,0.0,0.0,0.0,0.0,0.0,0.0,0.0,0.0,0.0,0.0,0.0,0.0,0.0,0.0,0.0,0.0,0.0,0.0,0.0,0.0,0.0,0.0,0.0,0.0,0.0,0.0,0.0,0.0,0.0,0.0,0.0,0.0,0.0,0.0,0.0,0.0,0.0,0.0,0.0,0.0,0.0,0.0,0.0,0.0,0.0,0.0,0.0,0.0,0.0,0.0,0.0,0.0,0.0,0.0,0.0,0.0,0.0,0.0,0.0,0.0,0.0,0.0,0.0,0.0,0.0,0.0,0.0,0.0,0.0,0.0,0.0,0.0,0.0,0.0,0.0,0.0,0.0,0.0,0.0,0.0,0.0,0.0,0.0,0.0,0.0,0.0,0.0,0.0,0.0,0.0,0.0,0.0,0.0,0.0,0.0,0.0,0.0,0.0,0.0,0.0,0.0,0.0,0.0,0.0,0.0,0.0,0.0,0.0,0.0,0.0,0.0,0.0,0.0,0.0,0.0,0.0,0.0,0.0,0.0,0.0,0.0,0.0,0.0,0.0,0.0,0.0,0.0,0.0,0.0,0.0,0.0,0.0,0.0,0.0,0.0,0.0,0.0,0.0,0.0,0.0,0.0,0.0,0.0,0.0,0.0,0.0,0.0,0.0,0.0,0.0,0.0,0.0,0.0,0.0,0.0,0.0,0.0,0.0,0.0,0.0,0.0,0.0,0.0,0.0,0.0,0.0,0.0,0.0,0.0,0.0,0.0,0.0,0.0,0.0,0.0,0.0,0.0,0.0,0.0,0.0,0.0,0.0,0.0,0.0,0.0,0.0,0.0,0.0,0.0,0.0,0.0,0.0,0.0,0.0,0.0,0.0,0.0,0.0,0.0,0.0,0.0,0.0,0.0,0.0,0.0,0.0,0.0,0.0,0.0,0.0,0.0,0.0,0.0,0.0,0.0,0.0,0.0,0.0,0.0,0.0,0.0,0.0,0.0,0.0,0.0,0.0,0.0,0.0,0.0,0.0,0.0,0.0,0.0,0.0,0.0,0.0,0.0,0.0,0.0,0.0,0.0,0.0,0.0,0.0,0.0,0.0,0.0,0.0,0.0,0.0,0.0,0.0,0.0,0.0,0.0,0.0,0.0,0.0,0.0,0.0,0.0,0.0,0.0,0.0,0.0,0.0,0.0,0.0,0.0,0.0,0.0,0.0,0.0,0.0,0.0,0.0,0.0,0.0,0.0,0.0,0.0,0.0,0.0,0.0,0.0,0.0,0.0,0.0,0.0,0.0,0.0,0.0,0.0,0.0,0.0,0.0,0.0,0.0,0.0,0.0,0.0,0.0,0.0,0.0,0.0,0.0,0.0,0.0,0.0,0.0,0.0,0.0,0.0,0.0,0.0,0.0,0.0,0.0,0.0,0.0,0.0,0.0,0.0,0.0,0.0,0.0,0.0,0.0,0.0,0.0,0.0,0.0,0.0,0.0,0.0,0.0,0.0,0.0,0.0,0.0,0.0,0.0,0.0,0.0,0.0,0.0,0.0,0.0,0.0,0.0,0.0,0.0,0.0,0.0,0.0,0.0,0.0,0.0,0.0,0.0,0.0,0.0,0.0,0.0,0.0,0.0,0.0,0.0,0.0,0.0,0.0,0.0,0.0,0.0,0.0,0.0,0.0,0.0,0.0,0.0,0.0,0.0,0.0,0.0,0.0,0.0,0.0,0.0,0.0,0.0,0.0,0.0,0.0,0.0,0.0,0.0,0.0,0.0,0.0,0.0,0.0,0.0,0.0,0.0,0.0,0.0,0.0,0.0,0.0,0.0,0.0,0.0,0.0,0.0,0.0,0.0,0.0,0.0,0.0,0.0,0.0,0.0,0.0,0.0,0.0,0.0,0.0,0.0,0.0,0.0,0.0,0.0,0.0,0.0,0.0,0.0,0.0,0.0,0.0,0.0,0.0,0.0,0.0,0.0,0.0,0.0,0.0,0.0,0.0,0.0,0.0,0.0,0.0,0.0,0.0,0.0,0.0,0.0,0.0,0.0,0.0,0.0,0.0,0.0,0.0,0.0,0.0,0.0,0.0,0.0,0.0,0.0,0.0,0.0,0.0,0.0,0.0,0.0,0.0,0.0,0.0,0.0,0.0,0.0,0.0,0.0,0.0,0.0,0.0,0.0,0.0,0.0,0.0,0.0,0.0,0.0,0.0,0.0,0.0,0.0,0.0,0.0,0.0,0.0,0.0,0.0,0.0,0.0,0.0,0.0,0.0,0.0,0.0,0.0,0.0,0.0,0.0,0.0,0.0,0.0,0.0,0.0,0.0,0.0,0.0,0.0,0.0,0.0,0.0,0.0,0.0,0.0,0.0,0.0,0.0,0.0,0.0,0.0,0.0,0.0,0.0,0.0,0.0,0.0,0.0,0.0,0.0,0.0,0.0,0.0,0.0,0.0,0.0,0.0,0.0,0.0,0.0,0.0,0.0,0.0,0.0,0.0,0.0,0.0,0.0,0.0,0.0,0.0,0.0,0.0,0.0,0.0,0.0,0.0,0.0,0.0,0.0,0.0,0.0,0.0,0.0,0.0,0.0,0.0,0.0,0.0,0.0,0.0,0.0,0.0,0.0,0.0,0.0,0.0,0.0,0.0,0.0,0.0,0.0,0.0,0.0,0.0,0.0,0.0,0.0,0.0,0.0,0.0,0.0,0.0,0.0,0.0,0.0,0.0,0.0,0.0,0.0,0.0,0.0,0.0,0.0,0.0,0.0,0.0,0.0,0.0,0.0,0.0,0.0,0.0,0.0,0.0,0.0,0.0,0.0,0.0,0.0,0.0,0.0,0.0,0.0,0.0,0.0,0.0,0.0,0.0,0.0,0.0,0.0,0.0,0.0,0.0,0.0,0.0,0.0,0.0,0.0,0.0,0.0,0.0,0.0,0.0,0.0,0.0,0.0,0.0,0.0,0.0,0.0,0.0,0.0,0.0,0.0,0.0,0.0,0.0,0.0,0.0,0.0,0.0,0.0,0.0,0.0,0.0,0.0,0.0,0.0,0.0,0.0,0.0,0.0,0.0,0.0,0.0,0.0,0.0,0.0,0.0,0.0,0.0,0.0,0.0,0.0,0.0,0.0,0.0,0.0,0.0,0.0,0.0,0.0,0.0,0.0,0.0,0.0,0.0,0.0,0.0,0.0,0.0,0.0,0.0,0.0,0.0,0.0,0.0,0.0,0.0,0.0,0.0,0.0,0.0,0.0,0.0,0.0,0.0,0.0,0.0,0.0,0.0,0.0,0.0,0.0,0.0,0.0,0.0,0.0,0.0,0.0,0.0,0.0,0.0,0.0,0.0,0.0,3.9275,0.0,0.0,0.0,0.0,0.0,0.0,0.0,0.0,0.0,0.0,0.0,0.0,0.0,0.0,0.0,0.0,0.0,0.0,0.0,0.0,0.0,0.0,0.0,0.0,0.0,0.0,0.0,0.0,0.0,0.0,0.0,0.0,0.0,0.0,0.0,0.0,0.0,0.0,0.0,0.0,0.0,0.0,0.0,0.0,0.0,0.0,0.0,0.0,0.0,0.0,0.0,0.0,0.0,0.0,0.0,0.0,0.0,0.0,0.0,0.0,0.0,0.0,0.0,0.0,0.0,0.0,0.0,0.0,0.0,0.0,0.0,0.0,0.0,0.0,0.0,0.0,0.0,0.0,0.0,0.0,0.0,0.0,0.0,0.0,0.0,0.0,0.0,0.0,0.0,0.0,0.0,0.0,0.0,0.0,0.0,0.0,0.0,0.0,0.0,0.0,0.0,0.0,0.0,0.0,0.0,0.0,0.0,0.0,0.0,0.0,0.0,0.0,0.0,0.0,0.0,0.0,4.0575,0.0,0.0,0.0,0.0,0.0,0.0,0.0,0.0,0.0,0.0,0.0,0.0,0.0,0.0,0.0,0.0,0.0,0.0,0.0,0.0,0.0,0.0,0.0,0.0,0.0,0.0,0.0,0.0,0.0,0.0,0.0,0.0,0.0,0.0,0.0,0.0,0.0,0.0,0.0,0.0,0.0,0.0,0.0,0.0,0.0,0.0,0.0,0.0,0.0,0.0,0.0,0.0,0.0,0.0,0.0,0.0,0.0,0.0,0.0,0.0,0.0,0.0,0.0,0.0,0.0,0.0,0.0,0.0,0.0,0.0,0.0,0.0,0.0,0.0,0.0,0.0,0.0,0.0,0.0,0.0,0.0,0.0,0.0,0.0,0.0,0.0,0.0,0.0,0.0,0.0,0.0,0.0,0.0,0.0,0.0,0.0,0.0,0.0,0.0,0.0,0.0,0.0,0.0,0.0,0.0,0.0,0.0,0.0,4.1525,4.1525,4.1525,4.1525,4.1874,4.247,4.1801,4.1277,4.0881,4.1328,0.0,0.0,0.0,0.0,0.0,0.0,0.0,0.0,0.0,0.0,0.0,0.0,0.0,0.0,0.0,0.0,0.0,0.0,0.0,0.0,0.0,0.0,0.0,0.0,0.0,0.0,0.0,0.0,0.0,0.0,0.0,0.0,0.0,0.0,0.0,0.0,0.0,0.0,4.3379,4.3379,4.3379,4.3301,4.1855,0.0,0.0,0.0,0.0,0.0,0.0,0.0,0.0,0.0,0.0,0.0,0.0,0.0,0.0,0.0,0.0,0.0,0.0,0.0,0.0,0.0,0.0,0.0,0.0,0.0,0.0,0.0,0.0,0.0,0.0,0.0,0.0,0.0,0.0,0.0,0.0,0.0,0.0,0.0,0.0,0.0,0.0,0.0,4.1526,4.1059,0.0,0.0,0.0,0.0,0.0,0.0,0.0,0.0,0.0,0.0,0.0,0.0,0.0,4.2484,4.2139,4.3122,4.3474,4.3176,4.3176,4.3176,4.3176,4.3176,4.3231,4.3341,4.3231,0.0,4.308,4.315,0.0,0.0,0.0,0.0,0.0,0.0,0.0,0.0,0.0,0.0,0.0,0.0,0.0,0.0,0.0,0.0,0.0,0.0,0.0,0.0,0.0,0.0,0.0,0.0,0.0,0.0,0.0,0.0,0.0,0.0,0.0,0.0,0.0,0.0,0.0,0.0,4.4199,4.418,4.3691,4.3691,4.3691,4.3672,4.293,4.2617,4.2637,4.2988,0.0,0.0,0.0,0.0,0.0,0.0,0.0,0.0,0.0,0.0,0.0,0.0,0.0,0.0,0.0,0.0,0.0,0.0,0.0,0.0,0.0,0.0,0.0,0.0,0.0,0.0,0.0,0.0,0.0,0.0,0.0,0.0,0.0,0.0,0.0,0.0,0.0,0.0,0.0,4.2371,4.2621,4.2661,4.3062,4.3538,0.0,0.0,0.0,0.0,0.0,0.0,0.0,0.0,0.0,4.3368,4.3831,4.3929,4.3609,4.3852,4.4039,4.4117,4.3899,4.3907,4.4117,4.4117,4.4117,4.411,4.3891,4.378,4.3783,4.3572,4.3506,4.3506,0.0,0.0,0.0,0.0,4.3506,4.3506,0.0,0.0,0.0,0.0,0.0,0.0,0.0,0.0,0.0,0.0,0.0,0.0,0.0,0.0,0.0,4.1191,0.0,0.0,0.0,0.0,0.0,0.0,0.0,0.0,0.0,0.0,0.0,0.0,4.5019,4.5,4.4375,4.4375,4.4375,4.4375,4.4375,4.4121,4.3711,4.3945,4.3906,0.0,0.0,0.0,0.0,0.0,0.0,0.0,0.0,0.0,0.0,0.0,0.0,0.0,0.0,0.0,0.0,0.0,0.0,0.0,0.0,0.0,0.0,0.0,0.0,0.0,0.0,0.0,0.0,0.0,0.0,0.0,0.0,0.0,0.0,0.0,0.0,0.0,0.0,4.323,4.3622,4.4037,4.4335,4.4766,0.0,0.0,0.0,0.0,0.0,0.0,4.5485,4.5481,4.5322,4.4977,4.4966,4.4855,4.4593,4.4297,4.4297,4.4612,4.4308,4.4304,4.4593,4.4593,4.4593,4.4573,4.4276,4.4146,4.411,4.3687,4.3506,4.3506,4.3506,4.3506,4.3506,4.3506,4.3506,4.3505,0.0,0.0,0.0,0.0,0.0,0.0,0.0,0.0,0.0,0.0,0.0,0.0,0.0,0.0,4.1191,4.1191,4.1191,4.1523,0.0,0.0,0.0,0.0,0.0,0.0,0.0,0.0,0.0,4.6172,4.6211,4.6211,4.6172,4.6172,4.6172,4.6172,4.6172,4.5254,4.375,4.457,4.4453,4.3769,0.0,0.0,0.0,0.0,0.0,0.0,0.0,0.0,0.0,0.0,0.0,0.0,0.0,0.0,0.0,0.0,0.0,0.0,0.0,0.0,0.0,0.0,0.0,0.0,0.0,0.0,0.0,0.0,0.0,0.0,0.0,0.0,0.0,0.0,0.0,0.0,0.0,0.0,0.0,4.4568,4.4862,0.0,0.0,0.0,0.0,4.5594,4.5594,4.5452,4.5134,4.5137,4.4966,4.465,4.4637,4.4624,4.4593,4.4573,4.4573,4.4593,4.4573,4.4573,4.4593,4.4593,4.4593,4.4593,4.4573,4.4567,4.4514,4.3791,4.3506,4.3506,4.3506,4.3506,4.3506,4.3506,4.3506,4.3548,0.0,0.0,0.0,0.0,0.0,0.0,0.0,0.0,0.0,0.0,0.0,0.0,0.0,4.1191,4.1191,4.1191,4.1191,4.1543,4.2344,0.0,0.0,0.0,0.0,0.0,0.0,0.0,4.6308,4.6308,4.6308,4.6308,4.6308,4.6308,4.6308,4.6308,4.6308,4.5957,4.5391,4.5703,4.5664,4.5391,4.5703,4.5644,0.0,0.0,0.0,0.0,0.0,0.0,0.0,0.0,0.0,0.0,0.0,0.0,0.0,0.0,0.0,0.0,0.0,0.0,0.0,0.0,0.0,0.0,0.0,0.0,0.0,0.0,0.0,0.0,0.0,0.0,0.0,0.0,0.0,0.0,0.0,0.0,0.0,4.5248,4.5347,0.0,4.5424,4.5522,4.5594,4.5594,4.5594,4.5555,4.5429,4.5424,4.5362,4.5248,4.5248,4.5248,4.5248,4.5542,4.5828,4.6084,4.6386,4.6645,4.6854,4.6854,4.6854,4.6843,4.6628,4.6527,4.6491,4.6008,4.5177,4.422,4.422,4.4519,4.4976,4.4976,4.5346,4.5832,0.0,0.0,0.0,0.0,0.0,0.0,0.0,0.0,0.0,0.0,0.0,4.1191,4.1191,4.1191,4.1191,4.1191,4.1191,4.166,4.2729,0.0,0.0,0.0,0.0,0.0,0.0,4.6308,4.6308,4.6308,4.6308,4.6308,4.6308,4.6308,4.6308,4.6308,4.6308,4.6308,4.6308,4.6308,4.6308,4.6308,4.6308,4.6308,4.6308,0.0,0.0,0.0,0.0,0.0,0.0,0.0,0.0,0.0,0.0,0.0,0.0,0.0,0.0,0.0,0.0,0.0,0.0,0.0,0.0,0.0,0.0,0.0,0.0,0.0,0.0,0.0,0.0,0.0,0.0,0.0,0.0,0.0,0.0,4.5594,4.5594,4.5594,4.5594,4.5594,4.5594,4.5594,4.5594,4.5594,4.5594,4.5725,4.6013,4.6033,4.6167,4.6436,4.6436,4.6436,4.6436,4.6751,4.7039,4.7312,4.7614,4.7893,4.8101,4.8101,4.8101,4.8096,4.7877,4.7766,4.775,4.7535,4.678,4.5767,4.5527,4.5776,4.6229,4.6229,4.6601,4.7119,0.0,0.0,0.0,0.0,0.0,0.0,0.0,0.0,0.0,0.0,4.1191,4.1191,4.1191,4.1191,4.1191,4.1191,4.1211,4.191,4.3493,4.3626,0.0,0.0,0.0,0.0,4.6308,4.6308,4.6289,4.6289,4.6289,4.6289,4.6289,4.6289,4.6308,4.6308,4.6308,4.6308,4.6308,4.6308,4.6308,4.6308,4.6308,4.6308,4.6308,0.0,0.0,0.0,0.0,0.0,0.0,0.0,0.0,0.0,0.0,0.0,0.0,0.0,0.0,0.0,0.0,0.0,0.0,0.0,0.0,0.0,0.0,0.0,0.0,0.0,0.0,0.0,0.0,0.0,0.0,0.0,0.0,0.0,4.5625,4.5594,4.5594,4.5594,4.5594,4.5594,4.5594,4.5609,4.5633,4.5633,4.5667,4.6052,4.6889,4.6947,4.7293,4.8082,4.8101,4.8101,4.8139,4.8159,4.8197,4.8216,4.8255,4.8255,4.8255,4.8255,4.8255,4.8255,4.8255,4.8255,4.8255,4.8255,4.8255,4.8174,4.7421,4.7158,4.7177,4.7177,4.7196,4.7261,0.0,0.0,0.0,0.0,0.0,0.0,0.0,0.0,0.0,0.0,4.1191,4.1191,4.1191,4.1191,4.1191,4.1191,4.1738,4.2515,4.3533,0.0,0.0,0.0,0.0,0.0,4.6308,4.6201,4.6149,4.6149,4.6069,4.605,4.6149,4.6149,4.6201,4.6308,4.6308,4.6308,4.6308,4.6308,4.6308,4.6308,4.6308,4.6308,4.6308,0.0,0.0,0.0,0.0,0.0,0.0,0.0,0.0,0.0,0.0,0.0,0.0,0.0,0.0,0.0,0.0,0.0,0.0,0.0,0.0,0.0,0.0,0.0,0.0,0.0,0.0,0.0,0.0,0.0,0.0,0.0,4.5872,4.5802,4.5627,4.5594,4.5594,4.5594,4.5594,4.5594,4.5594,4.6163,4.6547,4.6547,4.7086,4.7528,4.7755,4.7774,4.787,4.8082,4.8101,4.8394,4.9048,4.9668,5.0279,5.087,5.1505,5.1793,5.1793,5.1793,5.1793,5.1793,5.1793,5.1793,5.1793,5.1793,5.1793,5.1533,4.8876,4.8205,4.8766,4.8766,4.9173,4.9726,0.0,0.0,0.0,0.0,0.0,0.0,0.0,0.0,0.0,0.0,4.1191,4.1191,4.1191,4.1191,4.1191,4.1191,4.1911,4.2692,4.3467,0.0,0.0,0.0,0.0,4.6013,4.612,4.6068,4.6026,4.6026,4.5932,4.5934,4.6027,4.6077,4.6145,4.6223,4.6269,4.6308,4.6308,4.6308,4.6308,4.6308,4.6308,4.6308,4.6308,4.6308,4.6308,4.6308,4.6308,4.6308,4.6308,4.6308,0.0,0.0,0.0,0.0,0.0,0.0,0.0,0.0,0.0,0.0,0.0,0.0,0.0,0.0,0.0,0.0,0.0,0.0,0.0,0.0,0.0,0.0,0.0,0.0,4.6479,4.6538,4.6771,4.6433,4.6144,4.6144,4.6436,4.6648,4.6648,4.7105,4.7408,4.7408,4.7832,4.8413,4.9144,4.9183,4.951,5.0216,5.0236,5.0491,5.0991,5.1491,5.1972,5.2447,5.2967,5.3197,5.3197,5.3197,5.3197,5.3197,5.3197,5.3197,5.3197,5.3197,5.3197,0.0,0.0,0.0,0.0,0.0,5.1318,5.1746,0.0,0.0,0.0,0.0,0.0,0.0,0.0,0.0,0.0,0.0,0.0,4.1191,4.1191,4.1191,4.1191,4.1191,4.1954,4.2794,0.0,0.0,0.0,4.5803,4.5809,4.5836,4.5899,4.5888,4.59,4.59,4.5867,4.5867,4.5883,4.6014,4.6072,4.6082,4.62,4.6248,4.6248,4.6248,4.6268,4.6288,4.6268,4.6269,4.6308,4.6308,4.6308,4.6308,4.6308,4.6308,4.6308,4.6308,0.0,0.0,0.0,0.0,0.0,0.0,0.0,0.0,0.0,0.0,0.0,0.0,0.0,0.0,0.0,0.0,0.0,0.0,0.0,0.0,0.0,0.0,0.0,0.0,4.7444,4.7639,4.8392,4.7762,4.7176,4.7068,4.7677,4.8101,4.8101,4.8274,4.8403,4.8416,4.8594,4.9378,5.0931,0.0,0.0,0.0,0.0,5.3255,5.3356,5.3351,5.339,5.3491,5.3491,5.3491,5.3491,5.3491,5.3491,5.3491,5.3491,5.3491,5.3491,5.3491,5.3491,5.3467,5.3274,5.3197,5.3197,5.3197,5.3197,5.3197,0.0,0.0,0.0,0.0,0.0,0.0,0.0,0.0,0.0,4.1191,4.1191,4.1191,4.1191,4.1191,4.1191,4.1191,4.2521,4.3948,0.0,0.0,4.5857,4.5884,4.5884,4.5896,4.5899,4.5853,4.5831,4.5831,4.5702,4.5706,4.5811,4.5841,4.5898,4.5934,4.5972,4.5981,4.5981,4.5981,4.6039,4.612,4.6029,4.6112,4.6308,4.6308,4.6308,4.6308,4.6308,4.6308,4.6308,4.6308,4.6308,4.6308,4.6308,0.0,0.0,0.0,0.0,0.0,0.0,0.0,0.0,0.0,0.0,0.0,0.0,0.0,0.0,0.0,0.0,0.0,0.0,0.0,0.0,4.8442,4.8426,4.8436,4.8481,4.8927,4.894,4.813,4.8071,4.8101,4.8101,4.9375,5.0238,5.0356,5.1606,5.2568,5.3024,5.2931,5.3034,5.3359,5.3258,5.3549,5.4241,5.4241,5.4568,5.5222,0.0,0.0,5.5222,5.5222,5.5222,5.5222,5.5222,5.5222,5.5222,5.5222,5.5222,5.5088,5.3741,5.3197,5.3197,5.3197,5.3197,5.3197,0.0,0.0,0.0,0.0,0.0,0.0,0.0,0.0,0.0,0.0,4.1191,4.1191,4.1191,4.1191,4.1347,4.1728,4.3224,0.0,0.0,4.5842,4.5842,4.5842,4.5786,4.5741,4.5741,4.5729,4.5696,4.5696,4.5631,4.5631,4.57,4.5778,4.5825,4.5845,4.5893,4.5901,4.5901,4.5901,4.5932,4.5992,4.5922,4.5983,4.6108,4.6108,4.6108,4.6108,4.6108,4.6108,4.6108,4.6108,4.6145,4.6198,4.6118,4.6146,4.62,0.0,0.0,0.0,0.0,0.0,0.0,0.0,0.0,0.0,0.0,0.0,0.0,0.0,0.0,4.8242,4.8242,0.0,4.9023,4.9386,4.9443,4.9574,4.9905,5.0632,5.0626,4.921,4.9667,5.0124,5.0195,5.1311,5.2117,5.2239,5.3022,5.3716,5.4217,5.4188,5.4356,5.478,5.4745,5.4905,5.5347,5.5347,5.5502,5.5808,5.5808,5.576,5.5708,5.5708,5.5708,5.5708,5.5708,5.5708,5.5708,5.5708,5.5708,5.5612,5.478,5.4453,5.4453,5.4453,5.4453,5.4453,0.0,0.0,0.0,0.0,0.0,0.0,0.0,0.0,0.0,0.0,4.1191,4.1191,4.1191,4.1171,4.1511,0.0,0.0,0.0,0.0,4.5812,4.5815,4.5803,4.5673,4.5594,4.5594,4.5594,4.5594,4.5594,4.5594,4.5594,4.5599,4.5715,4.5768,4.5756,4.5811,4.5846,4.5846,4.5846,4.5862,4.5881,4.5857,4.5862,4.5881,4.5857,4.5879,4.5901,4.5901,4.5901,4.5901,4.5901,4.5976,4.604,4.5928,4.5978,4.6051,4.6051,4.6188,0.0,0.0,0.0,0.0,0.0,0.0,0.0,0.0,4.8906,4.8906,4.8906,4.9023,4.9141,4.9141,4.9277,4.9629,5.0312,5.043,5.0723,5.1543,5.2158,5.2064,5.0775,5.1672,5.2421,5.2531,5.3233,5.3751,5.3881,5.4046,5.4461,5.5182,5.5219,5.5517,5.6213,5.6207,5.6194,5.6194,5.6369,5.6345,5.6199,5.6354,5.6387,5.6281,5.6281,5.6271,5.6235,5.6211,5.6203,5.6203,5.6203,5.6203,5.6203,5.6203,5.6203,5.6165,5.5824,5.5708,5.5708,0.0,0.0,0.0,0.0,0.0,0.0,0.0,0.0,0.0,0.0,0.0,0.0,0.0,0.0,0.0,0.0,0.0,0.0,4.5764,4.5853,4.5868,4.5806,4.5673,4.5594,4.5594,4.5594,4.5594,4.5594,4.5594,4.5594,4.5594,4.562,4.561,4.5614,4.5639,4.5628,4.5628,4.5628,4.57,4.5796,4.5685,4.5703,4.5793,4.5681,4.5731,4.5901,4.5901,4.5901,4.5901,4.5901,4.591,4.5918,4.5903,4.591,4.592,4.592,0.0,4.7084,4.7096,4.7746,4.8488,4.869,4.875,4.8789,0.0,4.8906,4.8906,4.8906,4.9512,5.0058,5.0058,5.0644,5.1152,5.125,5.1269,5.1562,5.2422,5.2636,5.289,5.3455,5.347,5.3446,5.3441,5.4224,5.4796,5.492,5.5642,5.6172,5.6403,5.6295,5.628,5.6377,5.6253,5.6194,5.6194,5.6919,5.7242,5.7248,5.8012,5.8376,5.8358,5.8358,5.8291,5.817,5.8067,5.8011,5.8011,5.8011,5.8011,5.8011,5.8011,5.8011,5.7819,5.6261,5.5708,5.5708,0.0,0.0,0.0,0.0,0.0,0.0,0.0,0.0,0.0,0.0,0.0,0.0,0.0,0.0,0.0,0.0,0.0,0.0,4.5751,4.5826,4.5832,4.5803,4.5673,4.5594,4.5594,4.5594,4.5594,4.5594,4.5594,4.5594,4.5594,4.5594,4.5594,4.5594,4.5594,4.5594,4.5594,4.5594,4.5627,4.5684,4.5614,4.5631,4.568,4.5629,4.5649,4.5736,4.5736,4.5736,0.0,0.0,4.5786,4.5828,4.5751,4.6093,4.6532,4.6532,4.7169,0.0,4.8037,4.8386,4.8852,4.9491,4.9668,4.9785,5.0254,5.0351,5.0351,5.0351,5.0644,5.0898,5.0898,5.1172,5.1406,5.1406,5.1836,5.2285,5.2656,5.3574,5.4355,5.4707,5.5106,5.5143,5.4636,5.5319,5.5832,5.5967,5.6319,5.6538,5.6601,5.7027,5.7276,5.7276,5.7709,5.7952,5.7952,5.8285,5.8382,5.8274,5.8646,5.8771,5.8701,5.8701,5.8629,5.8507,5.8441,5.8364,5.8294,5.8294,5.8294,5.8294,5.8294,5.8294,5.8204,5.7473,5.7203,5.7203,0.0,0.0,0.0,0.0,0.0,0.0,0.0,0.0,0.0,0.0,0.0,0.0,0.0,0.0,0.0,0.0,0.0,0.0,0.0,4.5657,4.578,4.5747,4.564,4.5594,4.5594,4.5594,4.5594,4.5594,4.5594,4.5594,4.5594,4.5594,4.5594,4.5594,4.5594,4.5594,4.5594,4.5594,4.5594,4.5594,4.5594,4.5594,4.5594,4.5594,4.5594,4.5594,4.5594,4.5594,0.0,0.0,4.5815,4.6081,4.5988,4.6582,4.7291,4.7291,4.7929,4.871,4.9224,4.9352,4.9552,5.0349,5.0527,5.0683,5.1269,5.1406,5.1406,5.1406,5.1406,5.1406,5.1406,5.1601,5.1758,5.1758,5.248,5.3144,5.3379,5.4492,5.539,5.5625,5.6211,5.6348,5.5723,5.6141,5.6508,5.6582,5.6816,5.6953,5.6953,5.7773,5.8262,5.8262,5.8867,5.9199,5.9199,5.9414,5.9469,5.9328,5.9562,5.9619,5.9521,5.949,5.9419,5.9338,5.9281,5.9224,5.9123,5.9072,5.9036,5.903,5.9007,5.8992,5.8992,5.8992,5.8704,5.8294,0.0,0.0,0.0,0.0,0.0,0.0,0.0,0.0,0.0,0.0,0.0,0.0,0.0,0.0,0.0,0.0,0.0,0.0,0.0,4.5258,4.574,4.5612,4.5594,4.5594,4.5594,4.5594,4.5594,4.5594,4.5594,4.5594,4.5594,4.5594,4.5594,4.5594,4.5594,4.5594,4.5594,4.5594,4.5594,4.5594,4.5594,4.5594,4.5594,4.5594,4.5594,4.5594,4.5594,0.0,0.0,0.0,4.6167,4.6879,4.6851,4.7413,0.0,4.8076,4.8673,0.0,5.0712,5.1038,5.1076,5.1303,5.1367,5.1367,5.1387,5.1406,5.1406,5.1406,5.1406,5.1406,5.1406,5.209,5.2656,5.2656,5.3398,5.4258,5.5098,5.5273,5.5605,5.6465,5.6582,5.6582,5.6562,5.6582,5.6601,5.6601,5.7383,5.7851,5.7851,5.8691,5.916,5.916,5.9199,5.9199,5.9199,5.9961,6.0351,6.0351,6.1211,6.1601,6.1601,6.1472,6.1402,6.1394,6.1264,6.1219,6.1181,6.0999,6.0915,6.0908,6.0765,6.0723,6.0723,6.0723,5.9704,5.8294,0.0,0.0,0.0,0.0,0.0,0.0,0.0,0.0,0.0,0.0,0.0,0.0,0.0,0.0,0.0,0.0,0.0,0.0,0.0,4.4622,4.5035,4.5575,4.5594,4.5594,4.5594,4.5594,4.5594,4.5594,4.5594,4.5594,4.5594,4.5594,4.5594,4.5594,4.5594,4.5594,4.5594,4.5594,4.5594,4.5594,4.5594,4.5594,4.5594,4.5594,4.5594,4.5594,0.0,0.0,0.0,0.0,0.0,0.0,4.7524,0.0,0.0,4.9668,0.0,0.0,5.0837,5.0963,5.0996,5.115,5.1202,5.1202,5.1202,5.1202,5.1202,5.1202,5.1629,5.1996,5.1996,5.278,5.3431,5.3431,5.4233,5.4961,5.5254,5.5801,5.6269,5.6562,5.6601,5.6601,5.6601,5.7129,5.7461,5.7461,5.8262,5.8769,5.8769,5.9551,6.0,6.0,6.0566,6.0859,6.0859,6.1133,6.1269,6.1269,6.1562,6.1699,6.1699,6.1657,6.1581,6.1502,6.1451,6.1373,6.1283,6.1227,6.1128,6.0993,6.0949,6.0882,6.0806,6.0806,6.0441,5.9954,0.0,0.0,0.0,0.0,0.0,0.0,0.0,0.0,0.0,0.0,0.0,0.0,0.0,0.0,0.0,0.0,0.0,0.0,0.0,0.0,4.4551,4.5109,4.5436,4.5594,4.5594,4.5594,4.5594,4.5594,4.5594,4.5594,4.5594,4.5594,4.5594,4.5594,4.5594,4.5594,4.5594,4.5594,4.5594,4.5594,4.5594,4.5594,4.5594,4.5594,4.5594,0.0,0.0,0.0,0.0,0.0,0.0,0.0,0.0,0.0,0.0,0.0,5.0707,5.0726,5.0856,5.0908,5.0935,5.1078,5.1091,5.1091,5.1091,5.1091,5.1091,5.1091,5.1748,5.2309,5.2309,5.3381,5.4259,5.4259,5.5106,5.5762,5.5762,5.625,5.6601,5.6601,5.6601,5.6719,5.7031,5.7851,5.8242,5.793,5.8965,5.9629,5.9629,6.041,6.0859,6.0859,6.1406,6.1699,6.1699,6.1699,6.1699,6.1699,6.1699,6.1699,6.1699,6.1699,6.1657,6.1577,6.1577,6.1516,6.1442,6.1383,6.1293,6.1168,6.1045,6.0944,6.0874,6.0827,6.0806,6.0806,0.0,0.0,0.0,0.0,0.0,0.0,0.0,0.0,0.0,0.0,0.0,0.0,0.0,0.0,0.0,0.0,0.0,0.0,0.0,0.0,0.0,4.4297,4.509,4.5556,4.5594,4.5594,4.5594,4.5594,4.5594,4.5594,4.5594,4.5594,4.5594,4.5594,4.5594,4.5594,4.5594,4.5594,4.5594,4.5594,4.5594,4.5594,4.5594,4.5594,0.0,0.0,0.0,0.0,0.0,0.0,0.0,0.0,0.0,5.0034,5.0707,5.0707,5.0707,5.0721,5.0859,5.0894,5.0918,5.1056,5.1071,5.1071,5.1071,5.111,5.1149,5.1149,5.1824,5.2402,5.2402,5.3917,5.5153,5.5153,5.5964,5.6601,5.6601,5.6601,5.6601,5.6601,5.664,5.6992,5.7812,5.873,5.8926,5.8086,0.0,6.0469,6.0469,6.125,6.1699,6.1699,6.1699,6.1699,6.1699,6.1699,6.1699,6.1699,6.1699,6.1699,6.1699,6.1699,6.1699,6.1699,6.1699,6.1699,6.1699,6.1554,6.1507,6.1469,6.1147,6.1023,6.0975,6.0858,6.0818,6.0806,0.0,0.0,0.0,0.0,0.0,0.0,0.0,0.0,0.0,0.0,0.0,0.0,0.0,0.0,0.0,0.0,0.0,0.0,0.0,0.0,0.0,0.0,0.0,0.0,0.0,0.0,0.0,0.0,4.5594,4.5594,4.5594,4.5594,4.5594,4.5594,4.5594,4.5594,4.5594,4.5594,4.5594,4.5594,0.0,4.5594,4.5594,0.0,0.0,0.0,0.0,0.0,0.0,0.0,4.8933,5.0361,5.0361,5.0515,5.0707,5.0707,5.0707,5.0702,5.0749,5.0743,5.0761,5.078,5.0793,5.0793,5.0793,5.1271,5.1706,5.1706,5.2884,5.3945,5.3945,5.5013,5.593,5.593,5.6297,5.6601,5.6601,5.6601,5.6601,5.6601,5.7168,5.7656,5.7871,5.9238,6.0,0.0,6.0762,6.1367,6.1367,6.1582,6.1699,6.1699,6.1699,6.1699,6.1699,6.1699,6.1699,6.1699,6.1699,6.1699,6.1699,6.1699,6.1699,6.1699,6.1699,6.1699,6.1699,6.1658,6.1584,6.1499,6.1413,6.1223,6.0993,6.0949,6.0897,6.0806,0.0,0.0,0.0,0.0,0.0,0.0,0.0,0.0,0.0,0.0,0.0,0.0,0.0,0.0,0.0,0.0,0.0,0.0,0.0,0.0,0.0,0.0,0.0,0.0,0.0,0.0,0.0,0.0,0.0,0.0,4.5594,4.5594,4.5594,4.5594,4.5594,4.5594,4.5594,4.5594,0.0,0.0,0.0,0.0,0.0,0.0,0.0,0.0,0.0,0.0,0.0,4.8971,4.9899,5.0707,5.0707,5.0707,5.0707,5.0707,5.0707,5.0707,5.0707,5.0707,5.0707,5.0707,5.0707,5.0784,5.1144,5.1582,5.2,5.239,5.3549,5.4491,5.4491,5.5436,5.6194,5.6194,5.6424,5.6601,5.6601,5.6601,5.6601,5.6601,5.7363,5.8047,5.8437,5.9648,6.0566,6.0937,6.1426,6.1699,6.1699,6.1699,6.1699,6.1699,6.1699,6.1699,6.1699,6.1699,6.1699,6.1699,6.1699,6.1699,6.1699,6.1699,6.1699,6.1699,0.0,6.1699,6.1699,6.1699,6.1657,6.1581,6.1516,6.1398,6.1214,6.1153,6.1021,6.0883,0.0,0.0,0.0,0.0,0.0,0.0,0.0,0.0,0.0,0.0,0.0,0.0,0.0,0.0,0.0,0.0,0.0,0.0,0.0,0.0,0.0,0.0,0.0,0.0,0.0,0.0,0.0,0.0,0.0,0.0,0.0,0.0,0.0,0.0,0.0,0.0,0.0,0.0,0.0,0.0,0.0,0.0,0.0,0.0,0.0,0.0,0.0,0.0,0.0,4.9976,5.0592,5.0707,5.0707,5.0707,5.0707,5.0707,5.0707,5.0707,5.0707,5.0707,5.0707,5.0707,5.0784,5.1029,5.1736,5.2077,5.2467,5.3217,5.4068,5.4664,5.4664,5.549,5.6169,5.6208,5.6416,5.6581,5.6601,5.6601,5.6601,5.6601,5.7461,5.8379,5.9121,6.0039,6.0898,6.164,6.1699,6.1699,6.1699,6.1699,6.1699,6.1699,6.1699,6.1699,6.1699,6.1699,6.1699,6.1699,6.1699,6.1699,6.1699,6.1699,6.1699,6.1699,6.1699,6.1699,6.1699,6.1699,6.1699,6.1699,6.1578,6.1512,6.1474,6.1341,6.1179,6.0997,0.0,0.0,0.0,0.0,0.0,0.0,0.0,0.0,0.0,0.0,3.6288,0.0,0.0,0.0,0.0,0.0,0.0,0.0,0.0,0.0,0.0,0.0,0.0,0.0,0.0,0.0,0.0,0.0,0.0,0.0,0.0,0.0,0.0,0.0,0.0,0.0,0.0,0.0,0.0,0.0,0.0,0.0,0.0,0.0,0.0,0.0,0.0,0.0,0.0,0.0,5.0091,5.0707,5.0707,5.0707,5.0707,5.0707,5.0707,5.0707,5.0707,5.0707,5.0707,5.0707,5.1202,5.1736,5.1865,5.3005,5.4087,5.4241,5.4914,5.5497,5.5497,5.5742,5.601,5.6172,5.633,5.6462,5.6582,5.6601,5.6601,5.6601,5.8008,5.9023,5.9199,6.0586,6.1543,6.1699,6.1699,6.1699,6.1699,6.1699,6.1699,6.1699,6.1699,6.1699,6.1699,6.1699,6.1699,6.1699,6.1699,6.1699,6.1699,6.1699,6.1699,6.1699,6.1699,0.0,6.1699,6.1699,6.1699,6.1699,6.1679,6.1606,6.1474,6.1341,6.1179,6.0975,0.0,0.0,0.0,0.0,0.0,0.0,0.0,0.0,0.0,0.0,3.5846,3.6231,0.0,0.0,0.0,0.0,0.0,0.0,0.0,0.0,0.0,0.0,0.0,0.0,0.0,0.0,0.0,0.0,0.0,0.0,0.0,0.0,0.0,0.0,0.0,0.0,0.0,0.0,0.0,0.0,0.0,0.0,0.0,0.0,0.0,0.0,0.0,0.0,0.0,0.0,4.9976,5.0707,5.0707,5.0707,5.0707,5.0707,5.0707,5.0707,5.0707,5.0707,5.0803,5.1221,5.1601,5.214,5.3044,5.3895,5.4626,5.503,5.5439,5.5708,5.5708,5.5802,5.5932,5.6031,5.6236,5.6421,5.6486,5.656,5.6601,5.6601,5.8144,5.9199,5.9199,6.0723,6.1699,6.1699,6.1699,6.1699,6.1699,6.1699,6.1699,6.1699,6.1699,6.1699,6.1699,6.1699,6.1699,6.1699,6.1699,6.1699,6.1699,6.1699,6.1699,6.1699,6.1699,6.1699,6.1699,6.1699,6.1699,6.1699,6.1699,6.1658,6.1605,6.152,6.1352,6.115,0.0,0.0,0.0,0.0,0.0,0.0,0.0,3.55,3.55,3.55,3.55,3.5731,3.6365,3.66,3.7254,0.0,0.0,0.0,0.0,0.0,0.0,0.0,0.0,0.0,0.0,0.0,0.0,0.0,0.0,0.0,0.0,0.0,0.0,0.0,0.0,0.0,0.0,0.0,0.0,0.0,0.0,0.0,0.0,0.0,0.0,0.0,0.0,0.0,4.8197,0.0,4.9822,5.0707,5.0707,5.0707,5.0707,5.0707,5.0707,5.0707,5.0707,5.0707,5.0899,5.1697,5.2038,5.2582,5.4145,5.4626,5.4934,5.5574,5.5708,5.5708,5.5708,5.5798,5.5866,5.5892,5.6122,5.633,5.6386,5.6488,5.6561,5.6601,5.8144,5.9199,5.9199,6.0723,6.1699,6.1699,6.1699,6.1699,6.1699,6.1699,6.1699,6.1699,6.1699,6.1699,6.1699,6.1699,6.1699,6.1699,6.1699,6.1699,6.1699,6.1699,6.1699,6.1699,6.1699,6.1699,0.0,6.1699,6.1699,6.1699,6.1699,6.1699,6.1699,6.1678,6.1507,6.128,0.0,0.0,0.0,0.0,0.0,0.0,0.0,3.55,3.55,3.55,3.55,3.5538,3.5596,3.625,3.6754,0.0,0.0,0.0,0.0,0.0,0.0,0.0,0.0,0.0,0.0,0.0,0.0,0.0,0.0,0.0,0.0,0.0,0.0,0.0,0.0,0.0,0.0,0.0,0.0,0.0,0.0,0.0,0.0,0.0,0.0,0.0,0.0,4.674,4.8101,4.8197,4.9317,5.0707,5.0707,5.0707,5.0707,5.0707,5.0707,5.0707,5.0707,5.0707,5.0899,5.1697,5.2505,5.3332,5.428,5.5074,5.5612,5.5689,5.5708,5.5708,5.5708,5.571,5.5764,5.5887,5.5932,5.6055,5.6369,5.6415,5.6459,5.6582,5.8144,5.9199,5.9199,6.0723,6.1699,6.1699,6.1699,6.1699,6.1699,6.1699,6.1699,6.1699,6.1699,6.1699,6.1699,6.1699,6.1699,6.1699,6.1699,6.1699,6.1699,6.1699,6.1699,6.1699,6.1699,6.1699,0.0,6.1699,6.1699,6.1699,6.1699,6.1699,6.1699,6.1554,6.1432,6.1265,0.0,0.0,0.0,0.0,0.0,0.0,0.0,3.55,3.55,3.55,3.55,3.55,3.55,3.5788,3.6173,0.0,0.0,0.0,0.0,0.0,0.0,0.0,0.0,0.0,0.0,0.0,0.0,0.0,0.0,0.0,0.0,0.0,0.0,0.0,0.0,0.0,0.0,0.0,0.0,0.0,0.0,0.0,0.0,0.0,0.0,0.0,0.0,0.0,4.8101,4.8101,4.926,5.0707,5.0707,5.0707,5.0707,5.0707,5.0707,5.0707,5.0707,5.1048,5.162,5.2467,5.3332,5.4203,5.503,5.5478,5.5708,5.5708,5.5708,5.5708,5.5708,5.5708,5.5726,5.5769,5.5851,5.5959,5.6083,5.62,5.6326,5.6459,5.7988,5.9072,5.9199,6.0723,6.1699,6.1699,6.1699,6.1699,6.1699,6.1699,6.1699,6.1699,6.1699,6.1699,6.1699,6.1699,6.1699,6.1699,6.1699,6.1699,6.1699,6.1699,6.1699,6.1699,6.1699,6.1699,0.0,6.1699,6.1699,6.1699,6.1699,6.1699,6.1699,6.1635,6.1474,6.1297,0.0,0.0,0.0,0.0,0.0,0.0,3.55,3.55,3.55,3.55,3.55,3.55,3.55,3.55,3.5731,3.6308,0.0,0.0,0.0,0.0,0.0,0.0,0.0,0.0,0.0,0.0,0.0,0.0,0.0,0.0,0.0,0.0,0.0,0.0,0.0,0.0,0.0,0.0,0.0,0.0,0.0,0.0,0.0,0.0,0.0,0.0,0.0,0.0,0.0,0.0,0.0,5.0707,5.0707,0.0,0.0,5.0707,5.0707,5.0707,5.0707,5.1298,5.212,5.2986,5.3857,5.4703,5.5516,5.5708,5.5708,5.5708,5.5708,5.5708,5.5708,5.5708,5.5708,5.5708,5.5789,5.5844,5.5888,5.6024,5.6275,5.673,5.8032,5.9073,5.9511,6.0859,6.1699,6.1699,6.1699,6.1699,6.1699,6.1699,6.1699,6.1699,6.1699,6.1699,6.1699,6.1699,6.1699,6.1699,6.1699,6.1699,6.1699,6.1699,6.1699,6.1699,6.1699,6.1699,0.0,6.1699,6.1699,6.1699,6.1699,6.1699,6.1699,6.1699,6.154,6.1306,0.0,0.0,0.0,0.0,0.0,0.0,0.0,3.55,3.55,3.55,3.55,3.55,3.55,3.55,3.55,3.5519,0.0,0.0,0.0,0.0,0.0,0.0,0.0,0.0,0.0,0.0,0.0,0.0,0.0,0.0,0.0,0.0,0.0,0.0,0.0,0.0,0.0,0.0,0.0,0.0,0.0,0.0,0.0,0.0,0.0,0.0,0.0,0.0,0.0,0.0,0.0,0.0,0.0,0.0,0.0,0.0,5.0707,5.0707,5.0707,5.1298,5.212,5.2986,5.3857,5.4703,5.5516,5.5708,5.5708,5.5708,5.5708,5.5708,5.5708,5.5708,5.5708,5.5708,5.5708,5.5749,5.5887,5.59,5.6343,5.7545,5.8404,5.9288,6.0293,6.1172,6.1699,6.1699,6.1699,0.0,6.1699,6.1699,6.1699,6.1699,6.1699,6.1699,6.1699,6.1699,6.1699,6.1699,6.1699,6.1699,6.1699,6.1699,6.1699,6.1699,6.1699,6.1699,0.0,6.1699,6.1699,6.1699,6.1699,6.1699,6.1699,6.1699,6.154,6.1306,0.0,0.0,0.0,0.0,0.0,0.0,0.0,3.55,3.55,3.55,3.55,3.55,3.55,3.55,3.5428,3.5235,0.0,0.0,0.0,0.0,0.0,0.0,0.0,0.0,0.0,0.0,0.0,0.0,0.0,0.0,0.0,0.0,0.0,0.0,0.0,0.0,0.0,0.0,0.0,0.0,0.0,0.0,0.0,0.0,0.0,0.0,0.0,0.0,0.0,0.0,0.0,0.0,0.0,0.0,0.0,0.0,0.0,5.1524,5.1524,5.2587,5.3741,5.401,5.4703,5.5401,5.5651,5.5708,5.5708,5.5708,5.5708,5.5708,5.5708,5.5708,5.5708,5.5708,5.5708,5.5716,5.5764,5.5842,5.61,5.6607,5.8104,5.9684,6.1152,6.1543,6.1699,6.1699,6.1699,6.1699,6.1699,6.1699,6.1699,6.1699,6.1699,6.1699,6.1699,6.1699,6.1699,6.1699,6.1699,6.1699,6.1699,6.1699,6.1699,6.1699,6.1699,6.1699,0.0,6.1699,6.1699,6.1699,6.1699,6.1699,6.1699,6.1699,6.1583,6.143,0.0,0.0,0.0,0.0,0.0,0.0,0.0,3.55,3.55,3.55,3.55,3.55,3.55,3.55,3.5387,3.5122,0.0,0.0,0.0,0.0,0.0,0.0,0.0,0.0,0.0,0.0,0.0,0.0,0.0,0.0,0.0,0.0,0.0,0.0,0.0,0.0,0.0,0.0,0.0,0.0,0.0,0.0,4.5366,0.0,0.0,0.0,0.0,0.0,0.0,0.0,0.0,0.0,0.0,0.0,0.0,0.0,0.0,0.0,0.0,5.3159,5.4491,5.4491,5.5107,5.5708,5.5708,5.5708,5.5708,5.5708,5.5708,5.5708,5.5708,5.5708,5.5708,5.5708,5.5708,5.5726,5.5765,5.5851,5.622,5.7106,5.8669,6.0195,6.1562,6.1699,6.1699,6.1699,6.1699,6.1699,6.1699,6.1699,6.1699,6.1699,6.1699,6.1699,6.1699,6.1699,6.1699,6.1699,6.1699,6.1699,6.1699,6.1699,6.1699,6.1699,6.1699,6.1699,0.0,6.1699,6.1699,6.1699,6.1699,6.1699,6.1699,6.1699,6.1581,6.14,0.0,0.0,0.0,0.0,0.0,0.0,0.0,0.0,0.0,0.0,3.55,3.55,3.55,3.549,3.5365,0.0,0.0,0.0,0.0,0.0,0.0,0.0,0.0,0.0,0.0,0.0,0.0,4.0052,4.04,4.1419,4.3104,0.0,0.0,0.0,0.0,0.0,0.0,0.0,0.0,0.0,0.0,0.0,0.0,0.0,0.0,0.0,0.0,0.0,0.0,0.0,0.0,0.0,0.0,0.0,0.0,0.0,0.0,0.0,0.0,5.3255,5.4587,5.4587,5.5151,5.5708,5.5708,5.5708,0.0,5.5708,5.5708,5.5708,5.5708,5.5708,5.5708,5.5708,5.5708,5.5744,5.5887,5.5963,5.6748,5.8688,5.9797,6.0742,6.1621,6.1699,6.1699,6.1699,6.1699,6.1699,6.1699,6.1699,6.1699,6.1699,6.1699,6.1699,6.1699,6.1699,6.1699,6.1699,6.1699,6.1699,6.1699,6.1699,6.1699,0.0,6.1699,0.0,0.0,6.1699,6.1699,6.1699,6.1699,6.1699,6.1699,6.1699,6.1542,6.1301,0.0,0.0,0.0,0.0,0.0,0.0,0.0,0.0,0.0,0.0,3.55,3.55,3.55,3.5312,0.0,0.0,0.0,0.0,0.0,0.0,0.0,0.0,0.0,0.0,0.0,0.0,0.0,3.9726,4.0643,4.1788,4.3104,4.372,0.0,0.0,0.0,0.0,0.0,0.0,0.0,0.0,0.0,0.0,0.0,0.0,0.0,0.0,4.4233,4.5351,0.0,0.0,0.0,0.0,0.0,0.0,0.0,0.0,5.1293,0.0,5.2841,0.0,5.542,5.542,5.5555,5.5708,0.0,0.0,0.0,5.5708,5.5708,5.5708,5.5708,5.5708,5.5708,5.5708,5.5708,5.5744,5.5887,5.6692,5.774,5.8978,5.9882,6.0742,6.1621,6.1699,6.1699,6.1699,6.1699,6.1699,6.1699,6.1699,6.1699,6.1699,6.1699,6.1699,6.1699,6.1699,6.1699,6.1699,6.1699,6.1699,6.1699,6.1699,6.1699,6.1699,6.1699,0.0,6.1699,6.1699,6.1699,6.1699,6.1699,6.1699,6.1699,6.1699,6.1605,6.1442,0.0,0.0,0.0,0.0,0.0,0.0,0.0,0.0,0.0,0.0,0.0,0.0,0.0,0.0,0.0,0.0,0.0,0.0,0.0,0.0,0.0,0.0,0.0,0.0,0.0,0.0,0.0,0.0,0.0,4.1848,0.0,0.0,0.0,0.0,0.0,0.0,0.0,0.0,0.0,0.0,4.4455,0.0,0.0,0.0,0.0,0.0,4.394,4.5086,0.0,4.6894,4.81,4.9467,0.0,0.0,0.0,0.0,5.1017,5.2443,5.3034,5.4414,5.5708,5.5708,5.5708,5.5708,5.5708,0.0,0.0,5.5708,5.5708,5.5708,5.5708,5.5708,5.5708,5.5708,5.5754,5.5857,5.6014,5.7002,5.8046,5.8951,5.9842,6.0742,6.1621,6.1699,6.1699,6.1699,6.1699,6.1699,6.1699,6.1699,6.1699,6.1699,6.1699,6.1699,6.1699,6.1699,6.1699,6.1699,6.1699,6.1699,6.1699,6.1699,6.1699,6.1699,6.1699,0.0,6.1699,6.1699,6.1699,6.1699,6.1699,6.1699,6.1699,6.1633,6.1516,6.138,0.0,0.0,0.0,0.0,0.0,0.0,0.0,0.0,0.0,0.0,0.0,0.0,0.0,0.0,0.0,0.0,0.0,0.0,0.0,0.0,0.0,0.0,0.0,0.0,0.0,0.0,0.0,0.0,0.0,0.0,0.0,0.0,4.4747,0.0,0.0,0.0,0.0,0.0,0.0,0.0,4.4175,0.0,0.0,0.0,0.0,0.0,0.0,0.0,0.0,4.6735,4.7946,4.9257,4.8913,0.0,0.0,0.0,0.0,0.0,5.2976,5.4414,5.5708,5.5708,5.5708,5.5708,5.5708,0.0,0.0,0.0,5.5708,5.5708,5.5708,5.5708,5.5708,5.5708,5.5843,5.6017,5.6205,5.7219,5.8184,5.8868,5.9916,6.0898,6.1621,6.1699,6.1699,6.1699,6.1699,6.1699,6.1699,6.1699,6.1699,6.1699,6.1699,6.1699,6.1699,6.1699,6.1699,6.1699,6.1699,6.1699,6.1699,6.1699,6.1699,6.1699,0.0,0.0,6.1699,6.1699,6.1699,6.1699,6.1699,6.1699,6.1699,6.1578,6.1436,6.1278,0.0,0.0,0.0,0.0,0.0,0.0,0.0,0.0,0.0,0.0,0.0,0.0,0.0,0.0,0.0,0.0,0.0,0.0,0.0,0.0,0.0,0.0,0.0,0.0,0.0,0.0,0.0,0.0,0.0,0.0,4.3208,4.4127,4.4631,0.0,0.0,0.0,0.0,0.0,0.0,0.0,0.0,0.0,0.0,0.0,0.0,0.0,0.0,0.0,0.0,4.6044,4.7131,4.8477,4.8402,0.0,0.0,0.0,0.0,0.0,5.2976,5.4414,5.5708,5.5708,5.5708,5.5708,5.5708,5.5708,5.5708,0.0,5.5708,5.5708,5.5708,5.5708,5.5708,5.5708,5.5955,5.6207,5.634,5.7873,5.9022,5.9139,6.0547,6.1543,6.1699,6.1699,6.1699,6.1699,6.1699,6.1699,6.1699,6.1699,6.1699,6.1699,6.1699,6.1699,6.1699,6.1699,6.1699,6.1699,6.1699,6.1699,6.1699,6.1699,6.1699,6.1699,0.0,6.1699,6.1699,6.1699,6.1699,6.1699,6.1699,6.1699,6.1699,6.1679,6.1511,6.1263,0.0,0.0,0.0,0.0,0.0,0.0,0.0,0.0,0.0,0.0,0.0,0.0,0.0,0.0,0.0,0.0,0.0,0.0,0.0,0.0,0.0,0.0,0.0,0.0,0.0,0.0,0.0,0.0,0.0,4.2529,4.3057,4.4105,4.4593,4.4586,0.0,0.0,0.0,0.0,0.0,0.0,0.0,0.0,0.0,0.0,0.0,0.0,0.0,0.0,0.0,0.0,4.7324,4.8296,4.8296,0.0,0.0,0.0,0.0,0.0,5.2727,5.4268,5.5708,5.5708,5.5708,5.5708,5.5708,5.5708,5.5708,0.0,5.5708,5.5708,5.5708,5.5769,5.5868,5.6051,5.6155,5.6259,5.6379,5.792,5.9047,5.9047,6.0603,6.1699,6.1699,6.1699,6.1699,6.1699,6.1699,6.1699,6.1699,6.1699,6.1699,6.1699,6.1699,6.1699,6.1699,6.1699,6.1699,6.1699,6.1699,6.1699,6.1699,6.1699,6.1699,6.1699,0.0,6.1699,6.1699,6.1699,6.1699,6.1699,6.1699,6.1699,6.1679,6.1543,6.1284,6.1011,0.0,0.0,0.0,0.0,0.0,0.0,0.0,0.0,0.0,0.0,0.0,0.0,0.0,0.0,0.0,0.0,0.0,0.0,0.0,0.0,0.0,0.0,0.0,0.0,0.0,0.0,4.0185,4.0759,4.2058,4.2779,4.2991,4.3909,4.4337,0.0,0.0,0.0,4.4301,4.3744,4.3646,0.0,0.0,0.0,0.0,0.0,0.0,0.0,0.0,0.0,0.0,0.0,0.0,0.0,0.0,0.0,0.0,4.8787,5.037,5.2098,5.2494,5.4114,5.5708,5.5708,0.0,5.5708,5.5708,5.5708,5.5708,0.0,0.0,5.5708,5.5708,5.5802,5.5998,5.6295,5.6299,5.6299,5.6424,5.7897,5.8972,5.8972,6.0581,6.1699,6.1699,6.1699,6.1699,6.1699,6.1699,6.1699,6.1699,6.1699,6.1699,6.1699,6.1699,6.1699,6.1699,6.1699,6.1699,6.1699,6.1699,6.1699,6.1699,6.1699,6.1699,6.1699,6.1699,6.1699,6.1699,6.1699,6.1699,6.1699,6.1699,6.1679,6.1613,6.1398,6.112,6.0839,0.0,0.0,0.0,0.0,0.0,0.0,0.0,0.0,0.0,0.0,0.0,0.0,0.0,0.0,0.0,0.0,0.0,0.0,0.0,0.0,0.0,0.0,0.0,0.0,0.0,3.9887,4.0632,4.2163,4.2281,4.2722,4.3447,4.3536,4.359,4.359,0.0,4.3556,4.3582,4.3513,4.3505,4.3531,0.0,0.0,0.0,0.0,0.0,0.0,0.0,0.0,0.0,0.0,0.0,0.0,0.0,0.0,4.8383,4.8787,5.037,5.2098,5.2494,5.4114,5.5708,5.5708,5.5708,5.5708,5.5708,5.5708,0.0,5.5708,0.0,5.5708,5.5708,5.5802,5.5974,5.6183,5.6313,5.6426,5.6561,5.8085,5.9179,5.9179,6.0664,6.1699,6.1699,6.1699,6.1699,6.1699,6.1699,6.1699,6.1699,6.1699,6.1699,6.1699,6.1699,6.1699,6.1699,6.1699,6.1699,6.1699,6.1699,6.1699,6.1699,6.1699,6.1699,6.1699,6.1699,6.1699,6.1699,6.1699,6.1699,6.1699,6.1699,6.1612,6.1501,6.1344,6.1169,6.0962,0.0,0.0,0.0,0.0,0.0,0.0,0.0,0.0,0.0,0.0,0.0,0.0,0.0,0.0,0.0,0.0,0.0,0.0,0.0,0.0,0.0,0.0,0.0,4.0462,4.1377,4.1387,4.168,4.2304,4.28,4.3194,4.3506,4.3506,0.0,0.0,4.3506,4.3506,4.3506,4.3506,4.3506,4.3506,4.3506,0.0,0.0,0.0,0.0,0.0,0.0,0.0,0.0,0.0,4.8058,4.8296,4.8296,4.8296,4.8383,4.8787,5.037,5.2098,5.2494,5.4114,5.5708,5.5708,5.5708,0.0,0.0,5.5708,5.5708,5.5708,5.5708,0.0,5.5802,5.6032,5.6234,5.6317,5.6448,5.6734,5.7324,5.8437,5.9394,5.9883,6.0976,6.1699,6.1699,6.1699,6.1699,6.1699,6.1699,6.1699,6.1699,6.1699,6.1699,6.1699,6.1699,6.1699,6.1699,6.1699,6.1699,6.1699,6.1699,6.1699,6.1699,6.1699,6.1699,6.1699,6.1699,6.1699,6.1699,6.1699,6.1699,6.1699,6.1699,6.1576,6.1361,6.1326,6.112,6.086,0.0,0.0,0.0,0.0,0.0,0.0,0.0,0.0,0.0,0.0,0.0,0.0,0.0,0.0,0.0,0.0,0.0,0.0,0.0,0.0,0.0,0.0,0.0,4.1277,4.2286,4.2543,4.2671,4.2671,4.3231,4.3506,4.3506,0.0,0.0,0.0,4.3506,4.3506,4.3506,4.3506,4.3506,4.3524,4.3781,4.3883,0.0,0.0,0.0,0.0,0.0,0.0,0.0,0.0,4.8296,4.8296,4.8296,4.8296,4.8383,4.8787,5.037,5.2098,5.2494,5.4114,5.5708,5.5708,0.0,0.0,5.5708,5.5708,5.5708,5.5708,5.5708,5.5759,5.5971,5.6185,5.6342,5.6386,5.6513,5.6894,5.7773,5.8652,5.9492,6.0293,6.1172,6.1699,6.1699,6.1699,6.1699,6.1699,6.1699,6.1699,6.1699,6.1699,6.1699,6.1699,6.1699,6.1699,6.1699,6.1699,6.1699,6.1699,6.1699,6.1699,6.1699,6.1699,6.1699,6.1699,6.1699,6.1699,6.1699,6.1699,6.1679,6.1635,6.1635,6.1467,6.1207,6.1207,6.1022,6.0806,0.0,0.0,0.0,0.0,0.0,0.0,0.0,0.0,0.0,0.0,0.0,0.0,0.0,0.0,0.0,0.0,0.0,0.0,0.0,0.0,0.0,0.0,0.0,4.2645,4.2313,4.3084,4.3506,4.3506,4.3506,4.3506,4.3506,4.3506,0.0,0.0,0.0,4.3506,4.3506,4.3506,4.3506,4.3579,4.4397,4.4718,0.0,0.0,0.0,0.0,0.0,0.0,0.0,0.0,4.8296,4.8296,4.8296,4.8296,4.8383,4.8787,5.037,5.2098,5.2501,5.4114,5.5708,5.5708,0.0,0.0,5.5708,5.5708,5.5708,5.5689,5.5695,5.5803,5.6138,5.6194,5.6259,5.6377,5.6513,5.6914,5.7793,5.8652,5.9512,6.0312,6.1172,6.1699,6.1699,6.1699,6.1699,6.1699,6.1699,6.1699,6.1699,6.1699,6.1699,6.1699,6.1699,6.1699,6.1699,6.1699,6.1699,6.1699,6.1699,6.1699,6.1699,6.1699,6.1699,6.1699,6.1699,6.1699,6.1699,6.1699,6.1612,6.1502,6.1502,6.1289,6.1001,6.1001,6.092,6.0806,0.0,0.0,0.0,0.0,0.0,0.0,0.0,0.0,0.0,0.0,0.0,0.0,0.0,0.0,0.0,0.0,0.0,0.0,0.0,0.0,0.0,0.0,0.0,0.0,0.0,0.0,4.3506,4.3506,4.3506,4.3506,0.0,0.0,0.0,4.3506,0.0,0.0,0.0,4.4103,4.4342,4.4406,4.5223,4.5535,4.5626,0.0,0.0,0.0,0.0,0.0,0.0,0.0,0.0,0.0,4.8296,4.8296,4.843,4.9116,5.0587,5.2155,5.2836,5.4337,5.5708,5.5708,5.5708,5.5708,5.5708,5.5708,0.0,0.0,5.6038,5.619,5.6194,5.6345,5.6459,5.6414,5.7021,5.7812,5.8691,5.9512,6.0351,6.1211,6.1543,6.1699,6.1699,6.1699,6.1699,6.1699,6.1699,6.1699,6.1699,6.1699,6.1699,6.1699,6.1699,6.1699,6.1699,6.1699,6.1699,6.1699,6.1699,6.1699,6.1699,6.1699,6.1699,6.1699,6.1699,6.1699,6.1699,6.1606,6.1542,6.1498,6.1407,6.1211,6.1001,6.1001,6.092,6.0806,0.0,0.0,0.0,0.0,0.0,0.0,0.0,0.0,0.0,0.0,0.0,0.0,0.0,0.0,0.0,0.0,0.0,0.0,0.0,0.0,0.0,0.0,0.0,0.0,0.0,4.3506,4.3506,0.0,0.0,0.0,0.0,0.0,0.0,4.3506,0.0,4.3671,0.0,4.448,4.4883,4.5259,4.6039,4.637,4.6461,0.0,0.0,0.0,0.0,0.0,0.0,0.0,0.0,0.0,4.8296,4.8296,4.8523,4.9685,5.0967,5.2253,5.3398,5.4684,5.5708,5.5708,5.5708,5.5716,5.5765,5.5789,5.5848,5.6055,5.6215,5.6326,5.6345,5.6453,5.6512,5.6485,5.7281,5.8203,5.9082,5.9883,6.0723,6.1601,6.1699,6.1699,6.1699,6.1699,6.1699,6.1699,6.1699,6.1699,6.1699,6.1699,6.1699,6.1699,6.1699,6.1699,6.1699,6.1699,6.1699,6.1699,6.1699,6.1699,6.1699,6.1699,6.1699,6.1699,6.1699,6.1699,6.1699,6.1551,6.1464,6.1396,6.1236,6.1065,6.093,6.093,6.086,6.0806,0.0,0.0,0.0,0.0,0.0,0.0,0.0,0.0,0.0,0.0,0.0,0.0,0.0,0.0,0.0,0.0,0.0,0.0,0.0,0.0,0.0,0.0,0.0,0.0,0.0,0.0,0.0,0.0,0.0,0.0,0.0,0.0,4.3543,4.3616,0.0,4.4066,4.481,4.4883,4.5342,4.6085,4.6883,4.7204,4.7278,4.8021,0.0,0.0,0.0,0.0,0.0,0.0,0.0,0.0,4.8296,4.8296,4.8633,5.031,5.1378,5.2374,5.4037,5.5093,5.5708,5.5708,5.5708,5.5748,5.5895,5.5928,5.6015,5.6338,5.6315,5.6315,5.656,5.651,5.6456,5.6581,5.7402,5.8301,5.9082,5.9961,6.0801,6.1601,6.1699,6.1699,6.1699,6.1699,6.1699,6.1699,6.1699,6.1699,6.1699,6.1699,6.1699,6.1699,6.1699,6.1699,6.1699,6.1699,6.1699,6.1699,6.1699,6.1699,6.1699,6.1699,6.1699,6.1699,6.1699,6.1699,6.1678,6.1543,6.1392,6.125,6.1056,6.0905,6.0806,6.0806,6.0806,6.0806,0.0,0.0,0.0,0.0,0.0,0.0,0.0,0.0,0.0,0.0,0.0,0.0,0.0,0.0,0.0,0.0,0.0,0.0,0.0,0.0,0.0,0.0,0.0,0.0,0.0,0.0,0.0,0.0,0.0,0.0,0.0,0.0,0.0,4.4443,0.0,4.4892,4.5681,4.6315,4.6672,4.6911,4.7728,4.8039,4.8058,4.8223,4.8296,0.0,0.0,0.0,0.0,0.0,0.0,0.0,4.8296,4.8296,4.8633,5.031,5.1378,5.2374,5.4037,5.5093,5.5708,5.5708,5.5708,5.5779,5.6074,5.6143,5.6194,5.6352,5.6458,5.6537,5.6582,5.6581,5.6561,5.6601,5.791,5.8984,5.918,6.0488,6.1484,6.168,6.1699,6.1699,6.1699,6.1699,6.1699,6.1699,6.1699,6.1699,6.1699,6.1699,6.1699,6.1699,6.1699,6.1699,6.1699,6.1699,6.1699,6.1699,6.1699,6.1699,6.1699,6.1699,6.1699,6.1699,6.1699,6.1635,6.1521,6.1409,6.1224,6.1048,6.0899,6.0825,6.0806,6.0806,6.0806,6.0806,0.0,0.0,0.0,0.0,0.0,0.0,0.0,0.0,0.0,0.0,0.0,0.0,0.0,0.0,0.0,0.0,0.0,0.0,0.0,0.0,0.0,0.0,0.0,0.0,0.0,0.0,0.0,0.0,0.0,0.0,0.0,0.0,0.0,4.4718,0.0,4.5709,4.6498,4.6911,4.7314,4.7709,4.8131,4.8296,4.8296,4.8296,4.8296,0.0,0.0,0.0,0.0,0.0,0.0,0.0,0.0,0.0,4.926,5.0889,5.1937,5.2939,5.4612,5.5381,5.5708,5.5708,5.5708,5.5794,5.6122,5.6194,5.6268,5.6456,5.6559,5.6601,5.6601,5.6601,5.6601,5.6601,5.7715,5.8711,5.914,6.0273,6.123,6.164,6.1699,6.1699,6.1699,6.1699,6.1699,6.1699,6.1699,6.1699,6.1699,6.1699,6.1699,6.1699,6.1699,6.1699,6.1699,6.1699,6.1699,6.1699,6.1699,6.1699,6.1699,6.1699,6.1699,6.1699,6.1699,6.1658,6.158,6.1373,6.1237,6.112,6.0896,6.0806,6.0806,6.0806,6.0806,6.0806,0.0,0.0,0.0,0.0,0.0,0.0,0.0,0.0,0.0,0.0,0.0,0.0,0.0,0.0,0.0,0.0,0.0,0.0,0.0,0.0,0.0,0.0,0.0,0.0,0.0,0.0,0.0,0.0,0.0,0.0,0.0,0.0,0.0,4.514,0.0,0.0,4.7314,4.7314,4.7691,4.8296,4.8296,4.8296,4.8296,4.8296,0.0,0.0,0.0,0.0,0.0,0.0,0.0,0.0,0.0,0.0,4.9933,5.1616,5.2612,5.3546,5.5156,5.5651,5.5708,5.5708,5.5708,5.5794,5.6122,5.6194,5.6286,5.6539,5.6601,5.6601,5.6601,5.6601,5.6601,5.6601,5.7324,5.8144,5.8867,5.9805,6.0664,6.1387,6.1601,6.1699,6.1699,6.1699,6.1699,6.1699,6.1699,6.1699,6.1699,6.1699,6.1699,6.1699,6.1699,6.1699,6.1699,6.1699,6.1699,6.1699,6.1699,6.1699,6.1699,6.1699,6.1699,6.1699,6.1699,6.1699,6.1656,6.1392,6.1291,6.1214,6.0913,6.0806,6.0806,6.0806,6.0806,6.0806,0.0,0.0,0.0,0.0,0.0,0.0,0.0,0.0,0.0,0.0,0.0,0.0,0.0,0.0,0.0,0.0,0.0,0.0,0.0,0.0,0.0,0.0,4.3506,0.0,0.0,0.0,0.0,0.0,0.0,0.0,0.0,0.0,0.0,4.6782,0.0,0.0,0.0,4.8131,4.8205,4.8296,4.8296,4.8296,4.8296,4.8296,0.0,0.0,0.0,0.0,0.0,0.0,4.8296,0.0,0.0,0.0,4.9985,5.1953,5.2834,5.3486,5.4826,5.5429,5.5708,5.5708,5.5708,5.5794,5.6122,5.6194,5.6286,5.6539,5.6601,5.6601,5.6601,5.6601,5.6601,5.6601,5.7324,5.7949,5.8066,5.9414,6.0449,6.0566,6.123,6.1699,6.1699,6.1699,6.1699,6.1699,6.1699,6.1699,6.1699,6.1699,6.1699,6.1699,6.1699,6.1699,6.1699,6.1699,6.1699,6.1699,6.1699,6.1699,6.1699,6.1699,6.1699,6.1699,6.1699,6.1634,6.1512,6.1354,6.12,6.1019,6.0858,6.0806,6.0806,6.0806,6.0806,6.0806,0.0,0.0,0.0,0.0,0.0,0.0,0.0,0.0,0.0,0.0,0.0,0.0,0.0,0.0,0.0,0.0,0.0,0.0,0.0,0.0,0.0,4.3506,4.3506,4.3506,4.3506,0.0,0.0,0.0,0.0,0.0,0.0,4.6223,4.6415,0.0,0.0,0.0,0.0,0.0,4.8296,4.8296,4.8296,4.8439,4.8613,0.0,0.0,0.0,0.0,0.0,0.0,0.0,0.0,4.9178,5.0004,0.0,0.0,0.0,5.3406,5.4141,5.5161,5.5571,5.5708,5.5708,5.5708,5.5794,5.6122,5.6194,5.6286,5.6539,5.6601,5.6601,5.6601,5.6601,5.6601,5.6601,5.6914,5.7344,5.7832,5.8535,5.9355,6.0293,6.0742,6.1152,6.164,6.1699,6.1699,6.1699,6.1699,6.1699,6.1699,6.1699,6.1699,6.1699,6.1699,6.1699,6.1699,6.1699,6.1699,6.1699,6.1699,6.1699,6.1699,6.1699,6.1699,6.1699,6.1699,6.1612,6.1496,6.1366,6.1186,6.0999,6.0847,6.0806,6.0806,6.0806,6.0806,6.0806,0.0,0.0,0.0,0.0,0.0,0.0,0.0,0.0,0.0,0.0,0.0,0.0,0.0,0.0,0.0,0.0,0.0,0.0,0.0,0.0,0.0,4.3506,4.3708,4.3791,4.3791,0.0,0.0,0.0,0.0,0.0,4.7388,4.7388,4.7388,0.0,4.8021,0.0,0.0,0.0,0.0,0.0,0.0,0.0,0.0,0.0,0.0,0.0,0.0,0.0,0.0,0.0,0.0,0.0,0.0,5.1518,0.0,0.0,0.0,5.4816,5.5506,5.5708,5.5708,5.5708,5.5708,5.5774,5.6064,5.6167,5.6277,5.649,5.6581,5.6601,5.6601,5.6601,5.6601,5.6601,5.6601,5.6836,5.748,5.7754,5.8359,5.9629,6.0137,6.0664,6.1308,6.1562,6.1699,6.1699,6.1699,6.1699,6.1699,6.1699,6.1699,6.1699,6.1699,6.1699,6.1699,6.1699,6.1699,6.1699,6.1699,6.1699,6.1699,6.1699,6.1679,6.1656,6.1699,6.1612,6.1496,6.1366,6.1186,6.0999,6.0847,6.0806,6.0806,6.0806,6.0806,6.0806,0.0,0.0,0.0,0.0,0.0,0.0,0.0,0.0,0.0,0.0,0.0,0.0,0.0,0.0,0.0,0.0,0.0,0.0,0.0,0.0,0.0,4.3506,4.4232,0.0,4.4645,0.0,0.0,0.0,0.0,0.0,4.8241,4.8241,4.8241,4.8241,4.8278,4.8296,4.8296,0.0,0.0,0.0,4.9043,4.9819,0.0,0.0,0.0,0.0,0.0,0.0,0.0,0.0,0.0,0.0,0.0,0.0,5.2228,0.0,0.0,0.0,5.5582,5.5708,5.5708,5.5708,5.5708,5.5743,5.5883,5.6061,5.6232,5.638,5.6512,5.6601,5.6601,5.6601,5.6601,5.6601,5.6601,5.6621,5.666,5.7383,5.793,5.8027,5.9433,6.043,6.0469,6.1211,6.1699,6.1699,6.1699,6.1699,6.1699,6.1699,6.1699,6.1699,6.1699,6.1699,6.1699,6.1699,6.1699,6.1699,6.1699,6.1699,6.1699,6.1699,6.1633,6.1514,6.1636,6.1612,6.1496,6.1366,6.1186,6.0999,6.0847,6.0806,6.0806,6.0806,6.0806,6.0806,0.0,0.0,0.0,0.0,0.0,0.0,0.0,0.0,0.0,0.0,0.0,0.0,0.0,0.0,0.0,4.3506,4.3975,0.0,0.0,0.0,0.0,4.5039,4.5314,4.548,4.548,0.0,0.0,0.0,0.0,4.8021,4.8296,4.8296,4.86,4.9142,4.9142,4.9142,4.9178,4.9682,0.0,0.0,5.047,5.1012,0.0,0.0,0.0,0.0,0.0,0.0,0.0,0.0,0.0,0.0,0.0,0.0,0.0,0.0,5.5036,5.5512,5.5657,5.5708,5.5708,5.5708,5.5708,5.5738,5.587,5.5959,5.6074,5.6343,5.6448,5.6509,5.6582,5.6601,5.6601,5.6601,5.6601,5.6601,5.6601,5.6875,5.7265,5.7832,5.8926,5.9824,6.0351,6.1191,6.1699,6.1699,6.1699,6.1699,6.1699,6.1699,6.1699,6.1699,6.1699,6.1699,6.1699,6.1699,6.1699,6.1699,6.1699,6.1699,6.1699,6.1699,6.1633,6.1505,6.1549,6.143,6.1175,6.1127,6.1003,6.0874,6.0827,6.0806,6.0806,6.0806,6.0806,6.0806,0.0,0.0,0.0,0.0,0.0,0.0,0.0,0.0,0.0,0.0,0.0,0.0,0.0,0.0,0.0,4.4277,4.48,4.5104,4.5104,4.5608,4.5902,4.5902,4.6159,4.6296,0.0,0.0,0.0,0.0,0.0,0.0,0.0,4.8728,4.9187,5.0004,5.028,5.0261,0.0,0.0,0.0,5.124,0.0,5.2097,5.2843,0.0,0.0,0.0,0.0,0.0,0.0,0.0,0.0,0.0,0.0,0.0,0.0,0.0,0.0,0.0,5.5708,5.5708,5.5708,5.5708,5.5708,5.5717,5.5811,5.5866,5.5976,5.6273,5.6373,5.6449,5.6581,5.6601,5.6601,5.6601,5.6601,5.6601,5.6601,5.6601,5.6816,5.7383,5.8496,5.9414,5.9941,6.1035,6.1699,6.1699,6.1699,0.0,6.1699,6.1699,6.1699,6.1699,6.1699,6.1699,6.1699,6.1699,6.1699,6.1699,6.1699,6.1699,6.1699,6.1699,6.1607,6.1436,6.1436,6.1276,6.1001,6.1001,6.091,6.0806,6.0806,6.0806,6.0806,6.0806,6.0806,6.0806,0.0,0.0,0.0,0.0,0.0,0.0,0.0,0.0,0.0,0.0,0.0,0.0,0.0,0.0,0.0,4.5828,4.592,4.5938,4.5938,4.5957,4.5975,4.5975,0.0,0.0,0.0,0.0,0.0,0.0,0.0,0.0,0.0,0.0,5.0059,5.0875,5.1657,5.1573,5.0875,0.0,5.1316,5.2042,0.0,5.3058,5.4503,0.0,0.0,0.0,5.5269,5.5121,0.0,5.464,0.0,0.0,0.0,0.0,0.0,0.0,0.0,0.0,0.0,0.0,0.0,5.5708,5.5708,5.5708,5.5708,5.5808,5.5951,5.6155,5.6305,5.6447,5.6561,5.6601,5.6601,5.6601,5.6601,5.6601,5.6601,5.6601,5.6601,5.6601,5.8144,5.9199,5.9199,6.0723,6.1699,6.1699,6.1699,6.1699,6.1699,6.1699,6.1699,6.1699,6.1699,6.1699,6.1699,6.1699,6.1699,6.1699,6.1699,6.1699,6.1699,6.1699,6.1549,6.1306,6.128,6.1183,6.0993,6.0993,6.0925,6.0806,6.0806,6.0806,6.0806,6.0806,6.0806,6.0806,0.0,0.0,0.0,0.0,0.0,0.0,0.0,0.0,0.0,0.0,0.0,0.0,0.0,0.0,0.0,4.5883,4.6425,4.6773,4.6773,4.7305,4.7645,4.7645,4.7856,4.7966,0.0,0.0,0.0,0.0,0.0,0.0,0.0,0.0,0.0,0.0,5.1895,5.2197,5.2535,5.2535,0.0,0.0,5.3537,5.4088,0.0,0.0,0.0,0.0,0.0,5.5343,5.5075,0.0,5.4731,5.4558,0.0,0.0,0.0,0.0,0.0,0.0,5.5708,0.0,0.0,0.0,0.0,0.0,5.5708,5.5728,5.5793,5.5944,5.6127,5.6301,5.6426,5.6537,5.6601,5.6601,5.6601,5.6601,5.6601,5.6601,5.6601,5.6601,5.8144,5.9199,5.9199,6.0723,6.1699,0.0,6.1699,6.1699,6.1699,6.1699,6.1699,6.1699,6.1699,6.1699,6.1699,6.1699,6.1699,6.1699,6.1699,6.1699,6.1699,6.1606,6.1458,6.13,6.1154,6.1,6.0853,6.0853,6.0823,6.0806,6.0806,6.0806,6.0806,6.0806,6.0806,6.0806,0.0,0.0,0.0,0.0,0.0,0.0,0.0,0.0,0.0,0.0,0.0,0.0,0.0,0.0,0.0,0.0,4.7324,4.759,4.759,4.8039,4.8471,4.882,4.8838,4.9003,4.9352,0.0,0.0,0.0,0.0,0.0,0.0,0.0,0.0,0.0,0.0,0.0,0.0,0.0,0.0,0.0,5.4404,0.0,0.0,5.5466,5.5708,0.0,0.0,0.0,5.5343,5.5343,5.5192,0.0,0.0,0.0,0.0,0.0,0.0,0.0,0.0,0.0,0.0,0.0,0.0,0.0,5.5708,5.5708,5.5748,5.5874,5.5996,5.6142,5.6369,5.6459,5.6537,5.6582,5.6601,5.6601,5.6601,5.6601,5.6601,5.6601,5.8144,5.9199,5.9199,6.0723,6.1699,6.1699,6.1699,6.1699,6.1699,6.1699,6.1699,6.1699,6.1699,6.1699,6.1699,6.1699,6.1699,6.1699,6.1699,6.1678,6.161,6.1542,6.1387,6.1176,6.1056,6.0915,6.0806,6.0806,6.0806,6.0806,6.0806,6.0806,6.0806,6.0806,6.0806,6.0806,0.0,0.0,0.0,0.0,0.0,0.0,0.0,0.0,0.0,0.0,0.0,0.0,0.0,0.0,0.0,0.0,4.8572,4.8572,4.8572,4.8572,4.893,4.9692,4.9729,5.0078,5.0784,5.0096,0.0,0.0,0.0,0.0,0.0,0.0,0.0,0.0,0.0,0.0,0.0,0.0,0.0,5.4003,5.4785,5.5088,0.0,0.0,5.5708,5.5708,5.5708,5.5708,5.5708,5.5708,5.5708,0.0,0.0,0.0,0.0,0.0,5.5708,0.0,0.0,0.0,0.0,0.0,0.0,0.0,5.5708,5.5708,5.5738,5.584,5.5884,5.5991,5.6291,5.6352,5.6419,5.6538,5.6561,5.6581,5.6601,5.6601,5.6601,5.6601,5.8047,5.9082,5.9199,6.0625,6.1601,6.1699,6.1699,6.1699,6.1699,6.1699,6.1699,6.1699,6.1699,6.1699,6.1699,6.1699,6.1699,6.1699,6.1679,6.161,6.1502,6.1464,6.1279,6.1001,6.0975,6.091,6.0806,6.0806,6.0806,6.0806,6.0806,6.0806,6.0806,6.0806,6.0806,6.0806,0.0,0.0,0.0,0.0,0.0,0.0,0.0,0.0,0.0,0.0,0.0,0.0,0.0,0.0,0.0,0.0,0.0,5.0306,0.0,0.0,5.0398,5.0563,5.0563,5.0637,5.0802,5.0655,0.0,0.0,0.0,0.0,0.0,0.0,0.0,0.0,0.0,0.0,0.0,0.0,0.0,5.4869,5.5034,0.0,5.5128,5.5554,5.5708,5.5708,5.5708,5.5708,5.5708,5.5708,5.5708,5.5708,0.0,0.0,0.0,0.0,0.0,0.0,0.0,0.0,0.0,0.0,0.0,0.0,5.5708,5.5708,5.5705,5.5738,5.581,5.5924,5.5984,5.6133,5.6259,5.6264,5.6373,5.6483,5.6582,5.6601,5.6601,5.6601,5.7519,5.8437,5.9121,6.0078,6.0937,6.164,6.1699,6.1699,6.1699,6.1699,6.1699,6.1699,6.1699,6.1699,6.1699,6.1699,6.1699,6.1699,6.1584,6.1537,6.1499,6.1223,6.1066,6.0988,6.0897,6.0819,6.0806,6.0806,6.0806,6.0806,6.0806,6.0806,6.0806,6.0806,6.0806,6.0806,0.0,0.0,0.0,0.0,0.0,0.0,0.0,0.0,0.0,0.0,0.0,0.0,0.0,0.0,0.0,0.0,0.0,0.0,0.0,0.0,5.0986,5.1371,5.1389,5.1591,5.1985,5.2003,5.2003,0.0,0.0,0.0,0.0,0.0,0.0,0.0,0.0,0.0,0.0,0.0,5.5212,5.5405,5.5405,0.0,5.5417,5.561,5.5708,5.5708,5.5708,5.5708,5.5708,5.5708,5.5708,0.0,0.0,5.5708,5.5708,0.0,5.5708,5.5708,0.0,0.0,0.0,5.5708,0.0,0.0,0.0,5.5708,5.5708,5.5708,5.5754,5.5825,5.5899,5.5985,5.6081,5.6181,5.6315,5.639,5.6391,5.6514,5.6601,5.6601,5.7363,5.8242,5.9121,5.9922,6.0762,6.1621,6.1699,6.1699,6.1699,6.1699,6.1699,6.1699,6.1699,6.1699,6.1699,6.1699,6.1699,6.1699,6.1554,6.146,6.1385,6.1127,6.0953,6.0899,6.0831,6.0806,6.0806,6.0806,6.0806,6.0806,6.0806,6.0806,6.0806,6.0806,6.0806,6.0806,0.0,0.0,0.0,0.0,0.0,0.0,0.0,0.0,0.0,0.0,0.0,0.0,0.0,0.0,0.0,0.0,0.0,0.0,0.0,0.0,5.1629,5.2207,5.2234,5.2546,5.3196,5.3196,5.3196,5.3196,0.0,0.0,0.0,0.0,0.0,0.0,0.0,0.0,0.0,0.0,0.0,5.5958,0.0,5.5857,5.5708,5.5708,5.5708,5.5708,5.5708,5.5708,5.5708,5.5708,5.5708,5.5708,5.5708,5.5708,0.0,0.0,0.0,0.0,0.0,0.0,0.0,0.0,0.0,5.5708,0.0,0.0,0.0,5.5708,5.5708,5.5738,5.5842,5.5857,5.5857,5.5867,5.6111,5.6215,5.5956,5.6259,5.6537,5.656,5.7207,5.8066,5.9101,6.0078,6.0937,6.164,6.1699,6.1699,6.1699,6.1699,6.1699,6.1699,6.1699,6.1699,6.1699,6.1699,6.1699,6.1699,6.1543,6.1394,6.13,6.1056,6.0895,6.0806,6.0806,6.0806,6.0806,6.0806,6.0806,6.0806,6.0806,6.0806,6.0806,6.0806,6.0806,6.0806,5.0527,5.0527,0.0,0.0,0.0,0.0,0.0,0.0,0.0,0.0,0.0,0.0,0.0,0.0,0.0,0.0,0.0,0.0,5.3488,0.0,0.0,5.307,5.3067,5.3104,5.3196,5.3196,5.3196,5.3196,0.0,0.0,0.0,0.0,0.0,0.0,5.4366,0.0,0.0,0.0,5.6523,0.0,5.6857,5.639,0.0,5.5708,5.5708,5.5708,5.5708,5.5708,5.5708,0.0,5.5708,5.5708,0.0,5.5708,5.5708,5.5708,0.0,0.0,0.0,0.0,0.0,0.0,5.5708,0.0,0.0,0.0,5.5708,5.5708,0.0,5.5695,5.5726,0.0,0.0,5.4814,5.5408,5.5695,5.4967,5.5657,5.6297,5.6414,5.6614,5.7383,5.9043,6.0625,6.1582,6.1699,6.1699,6.1699,6.1699,6.1699,6.1699,6.1699,6.1699,6.1699,6.1699,6.1699,6.1699,6.1699,6.1446,6.1304,6.1294,6.0978,6.0816,6.0806,6.0806,6.0806,6.0806,6.0806,6.0806,6.0806,6.0806,6.0806,6.0806,6.0806,6.0806,6.0806,0.0,0.0,0.0,0.0,0.0,0.0,0.0,0.0,0.0,0.0,0.0,0.0,0.0,0.0,0.0,0.0,0.0,5.4004,0.0,0.0,0.0,0.0,5.3196,5.3196,5.3196,5.3196,5.3196,5.3196,5.3673,0.0,0.0,0.0,0.0,0.0,5.5727,0.0,5.7877,0.0,5.7589,0.0,0.0,0.0,0.0,5.6093,5.5708,5.5708,5.5708,5.5708,5.5708,0.0,5.5708,0.0,0.0,0.0,0.0,0.0,0.0,0.0,0.0,0.0,0.0,0.0,0.0,0.0,5.5708,0.0,5.5708,0.0,0.0,0.0,0.0,0.0,0.0,0.0,5.5599,5.5739,5.534,5.5816,5.6215,5.6286,5.6331,0.0,5.8847,6.0642,6.1699,6.1699,6.1699,6.1699,6.1699,6.1699,6.1699,6.1699,6.1699,6.1699,6.1699,6.1699,6.1658,6.158,6.1383,6.1237,6.1124,6.0897,6.0806,6.0806,6.0806,6.0806,6.0806,6.0806,6.0806,6.0806,6.0806,6.0806,6.0806,6.0806,6.0806,6.0806,0.0,0.0,0.0,0.0,0.0,0.0,0.0,0.0,0.0,0.0,0.0,0.0,5.3349,5.3482,0.0,0.0,5.4259,5.4276,0.0,0.0,5.4093,0.0,0.0,0.0,0.0,5.3794,5.3867,5.3867,5.4436,0.0,0.0,0.0,0.0,0.0,0.0,5.7605,5.8487,0.0,5.8627,5.8627,5.8627,5.8511,5.8165,5.6896,5.6415,5.6415,5.6415,5.6415,5.6415,5.6415,5.6415,0.0,5.6415,0.0,0.0,0.0,0.0,0.0,5.6415,0.0,0.0,0.0,0.0,0.0,0.0,0.0,0.0,0.0,0.0,0.0,0.0,0.0,0.0,0.0,0.0,5.573,5.5427,5.5777,5.6078,5.6103,5.6364,0.0,0.0,6.0192,6.1285,6.1285,6.1542,6.1699,6.1699,6.1699,6.1699,6.1699,6.1699,6.1699,6.1699,6.1699,6.1634,6.1502,6.1357,6.12,6.0993,6.0864,6.0806,6.0806,6.0806,6.0806,6.0806,6.0806,6.0806,6.0806,6.0806,6.0806,6.0806,6.0806,6.0806,6.0806,5.3122,5.3122,0.0,0.0,0.0,0.0,0.0,0.0,0.0,0.0,0.0,0.0,0.0,0.0,0.0,0.0,0.0,5.5464,5.5081,0.0,5.5292,0.0,0.0,5.5336,0.0,0.0,5.5511,5.5511,5.5548,0.0,0.0,0.0,0.0,0.0,0.0,5.8744,6.0635,5.9813,5.9454,5.9454,5.9454,5.9006,5.8294,0.0,5.8223,5.8223,5.8223,0.0,0.0,5.8223,5.8223,0.0,0.0,0.0,0.0,0.0,0.0,0.0,0.0,0.0,0.0,5.8223,0.0,0.0,0.0,0.0,5.5708,0.0,0.0,0.0,0.0,0.0,0.0,0.0,0.0,0.0,0.0,5.5224,5.5755,5.5884,5.6767,5.737,0.0,5.9143,6.0244,6.0244,6.1146,6.1699,6.1699,6.1699,6.1699,6.1699,6.1699,6.1699,6.1699,6.1699,6.1634,6.1502,6.1357,6.12,6.0993,6.0864,6.0806,6.0806,6.0806,6.0806,6.0806,6.0806,6.0806,6.0806,6.0806,6.0806,6.0806,6.0806,6.0806,6.0806,0.0,0.0,0.0,0.0,0.0,0.0,0.0,5.4785,0.0,0.0,5.4885,0.0,0.0,5.571,5.6314,0.0,0.0,5.69,5.6768,5.6584,0.0,0.0,0.0,5.5671,0.0,0.0,0.0,0.0,0.0,0.0,0.0,0.0,0.0,0.0,0.0,5.9361,0.0,0.0,0.0,0.0,0.0,6.0204,5.9838,0.0,0.0,5.8294,5.8294,5.8294,0.0,5.8294,5.8294,5.8294,5.8294,5.8294,5.8294,5.8294,5.8294,0.0,0.0,0.0,5.8294,5.8294,0.0,0.0,0.0,0.0,0.0,0.0,0.0,0.0,0.0,0.0,0.0,0.0,0.0,0.0,0.0,0.0,5.5721,5.5755,5.6666,5.7291,5.7398,5.9098,6.0239,6.0325,6.1171,6.1699,6.1699,6.1699,6.1699,6.1699,6.1699,6.1699,6.1699,6.1699,6.1634,6.1502,6.1357,6.12,6.0993,6.0864,6.0806,6.0806,6.0806,6.0806,6.0806,6.0806,6.0806,6.0806,6.0806,6.0806,6.0806,6.0806,6.0806,6.0806,5.5603,0.0,0.0,0.0,0.0,0.0,0.0,0.0,0.0,0.0,5.6089,0.0,5.6198,0.0,5.7309,0.0,5.7754,5.7845,5.7845,5.7676,0.0,5.747,5.7126,0.0,0.0,0.0,0.0,0.0,0.0,5.7226,0.0,0.0,0.0,0.0,0.0,5.9908,6.0358,6.0678,6.0806,0.0,0.0,6.0806,0.0,0.0,5.9184,5.9184,0.0,5.9184,5.9184,5.9184,5.9184,5.9184,5.9184,5.9184,5.9184,5.9184,5.9184,5.9207,5.9258,5.9265,0.0,5.9345,5.9137,0.0,5.8847,0.0,0.0,0.0,0.0,0.0,0.0,0.0,0.0,0.0,0.0,0.0,0.0,5.5708,0.0,5.5708,5.6276,5.6837,5.7289,5.8749,5.9842,6.0304,6.1171,6.1699,6.1699,6.1699,6.1699,6.1699,6.1699,6.1699,6.1699,6.1699,6.1634,6.1502,6.1357,6.12,6.0993,6.0864,6.0806,6.0806,6.0806,6.0806,6.0806,6.0806,6.0806,6.0806,6.0806,6.0806,6.0806,6.0806,6.0806,6.0806,5.5713,0.0,0.0,0.0,5.5695,0.0,0.0,0.0,5.6414,0.0,5.6835,5.7157,5.7124,5.7505,5.7761,5.7761,5.8168,5.8409,5.8409,5.8693,0.0,0.0,5.9049,5.9241,5.8861,0.0,0.0,0.0,0.0,0.0,0.0,0.0,0.0,0.0,5.987,0.0,6.0806,6.0806,6.0806,6.0806,6.0806,6.0806,6.0806,6.0806,6.0806,6.0806,6.0806,6.0806,6.0806,6.0806,6.0806,6.0806,6.0806,6.0806,6.0806,6.0804,6.0804,6.0834,6.0972,6.1019,6.1069,6.1246,0.0,0.0,0.0,0.0,5.8581,0.0,0.0,0.0,0.0,0.0,0.0,0.0,0.0,0.0,0.0,0.0,0.0,0.0,5.5738,5.6126,5.7043,5.8082,5.9106,6.006,6.1106,6.1699,0.0,6.1699,6.1699,6.1699,6.1699,6.1699,6.1699,6.1699,6.1634,6.1508,6.1379,6.1204,6.101,6.0869,6.0806,6.0806,6.0806,6.0806,6.0806,6.0806,6.0806,6.0806,6.0806,6.0806,6.0806,6.0806,6.0806,6.0806,5.7373,5.7373,5.7373,0.0,5.6895,5.6693,0.0,0.0,0.0,0.0,5.8621,5.9193,5.8885,5.9523,5.9975,5.9975,6.0086,0.0,0.0,0.0,0.0,6.0154,5.9665,5.9506,5.9753,5.9414,0.0,5.8694,0.0,0.0,5.8008,0.0,0.0,0.0,0.0,6.0033,6.0806,6.0806,6.0806,6.0806,6.0806,6.0806,6.0806,0.0,6.0806,6.0806,6.0806,6.0806,6.0806,6.0806,6.0806,6.0806,6.0806,6.0806,6.0827,6.0925,6.0944,6.1,6.1176,6.1224,6.1234,6.1297,6.1134,6.0969,0.0,0.0,0.0,0.0,0.0,0.0,0.0,0.0,0.0,0.0,0.0,0.0,0.0,0.0,0.0,5.5708,5.6358,5.6663,5.6268,5.7729,5.8851,5.9219,6.0774,6.1699,6.1699,0.0,6.1699,6.1699,6.1699,6.1699,6.1699,6.1699,6.1679,6.1656,6.142,6.1265,6.1214,6.0938,6.0806,6.0806,6.0806,6.0806,6.0806,6.0806,6.0806,6.0806,6.0806,6.0806,6.0806,6.0806,6.0806,6.0806,5.7997,5.7997,0.0,5.7997,0.0,0.0,5.8241,5.8537,0.0,5.867,5.9504,0.0,5.9799,6.0371,6.0806,6.0806,6.0806,0.0,6.0806,0.0,0.0,6.0794,6.0285,6.0139,6.0404,5.9958,0.0,5.9,0.0,0.0,5.8008,0.0,0.0,0.0,0.0,6.0118,6.0806,6.0806,6.0806,6.0806,6.0806,6.0806,0.0,6.0806,6.0806,6.0806,6.0806,6.0806,6.0806,6.0806,6.0806,6.0806,6.0806,6.0839,6.0895,6.0981,6.1069,6.1163,6.1344,6.1398,6.1392,6.1458,6.1467,6.1457,6.1392,6.1398,6.1228,0.0,0.0,0.0,0.0,0.0,0.0,0.0,0.0,0.0,0.0,0.0,0.0,0.0,5.6199,5.6497,5.6391,5.8198,5.9391,5.9456,6.0852,0.0,0.0,0.0,6.1699,6.1699,6.1699,6.1699,6.1699,6.1699,6.1699,6.1699,6.1434,6.1306,6.1294,6.0949,6.0806,6.0806,6.0806,6.0806,6.0806,6.0806,6.0806,6.0806,6.0806,6.0806,6.0806,6.0806,6.0806,6.0806,5.7997,0.0,0.0,0.0,0.0,0.0,0.0,5.8845,0.0,5.9432,0.0,6.0182,6.0182,6.0559,6.0806,6.0806,0.0,6.0806,6.0806,6.0806,6.0806,6.0806,6.0806,6.0806,6.0806,6.0404,5.9954,0.0,0.0,0.0,0.0,0.0,0.0,0.0,0.0,0.0,0.0,6.0806,6.0806,6.0806,6.0806,6.0806,6.0806,6.0806,6.0806,6.0806,6.0806,6.0806,6.0806,6.0806,6.0806,6.0806,6.0806,6.0888,6.1006,6.1036,6.1186,6.1366,6.1496,6.1537,6.155,6.1678,6.1699,6.1678,6.155,6.1537,6.1499,6.1388,6.1344,6.1358,0.0,0.0,0.0,0.0,0.0,0.0,0.0,0.0,0.0,0.0,0.0,0.0,5.7104,5.8869,6.0013,6.015,6.1096,0.0,0.0,0.0,6.1699,6.1699,6.1699,6.1699,6.1699,6.1699,6.1699,6.1699,6.1434,6.1306,6.1294,6.0949,6.0806,6.0806,6.0806,6.0806,6.0806,6.0806,6.0806,6.0806,6.0806,6.0806,6.0806,6.0806,6.0806,6.0806,5.7997,0.0,0.0,0.0,0.0,5.8825,5.9222,5.9611,5.9885,5.9973,6.0391,6.0684,6.0684,6.0752,6.0806,6.0806,6.0806,0.0,0.0,0.0,0.0,6.0806,6.0806,6.0806,6.0806,6.0708,6.0456,0.0,0.0,0.0,0.0,0.0,0.0,0.0,0.0,0.0,6.0806,6.0806,0.0,6.0806,6.0806,6.0806,6.0806,6.0806,6.0806,6.0806,6.0806,6.0806,6.0806,6.0806,6.0806,6.0806,6.0806,6.0888,6.1036,6.1204,6.1352,6.148,6.1633,6.1658,6.1678,6.1699,6.1699,6.1699,6.1678,6.1658,6.1657,6.1634,6.1633,6.1605,6.1495,0.0,0.0,0.0,0.0,0.0,0.0,0.0,0.0,0.0,0.0,5.8932,5.8157,5.8505,5.9106,5.9824,6.0904,0.0,0.0,0.0,6.1699,0.0,6.1699,0.0,0.0,0.0,6.1699,6.1699,6.1434,6.1306,6.1294,6.0949,6.0806,6.0806,6.0806,6.0806,6.0806,6.0806,6.0806,6.0806,6.0806,6.0806,6.0806,6.0806,6.0806,6.0806,5.7997,0.0,0.0,0.0,0.0,0.0,0.0,6.0161,6.0384,6.0132,6.0304,6.043,6.043,6.0647,6.0806,6.0806,6.0806,6.0806,6.0806,6.0806,6.0806,6.0806,6.0806,6.0806,6.0806,6.0806,6.0572,6.011,0.0,0.0,0.0,0.0,0.0,0.0,0.0,6.0578,0.0,0.0,0.0,6.0806,6.0806,6.0806,6.0806,6.0806,6.0806,6.0806,6.0806,6.0806,6.0806,6.0806,6.085,6.0895,6.0895,6.1073,6.1273,6.1376,6.1502,6.1611,6.1679,6.1699,6.1699,6.1699,6.1699,6.1699,6.1699,6.1699,6.1699,6.1699,6.1699,6.1658,6.1517,6.1448,0.0,0.0,0.0,0.0,0.0,0.0,0.0,0.0,0.0,0.0,0.0,0.0,0.0,0.0,0.0,0.0,0.0,0.0,6.1699,0.0,0.0,0.0,6.1699,0.0,0.0,6.1699,6.1434,6.1306,6.1294,6.0949,6.0806,6.0806,6.0806,6.0806,6.0806,6.0806,6.0806,6.0806,6.0806,6.0806,6.0806,6.0806,6.0806,6.0806,0.0,5.8153,0.0,0.0,5.9249,5.9677,6.004,6.0495,6.0678,6.0304,6.025,6.025,6.025,6.0572,6.0806,6.0806,6.0806,6.0806,6.0806,6.0806,6.0806,6.0806,6.0806,6.0806,6.0806,6.0806,6.0622,0.0,0.0,0.0,0.0,0.0,0.0,0.0,0.0,0.0,0.0,0.0,6.0806,6.0806,6.0806,6.0806,6.0806,6.0806,6.0806,6.0806,6.0806,6.0806,6.0806,6.0806,6.0883,6.1001,6.1001,6.1232,6.1504,6.1504,6.1585,6.1699,6.1699,6.1699,6.1699,6.1699,6.1699,6.1699,6.1699,6.1699,6.1699,6.1699,6.1699,6.1658,6.1517,6.1516,0.0,0.0,0.0,0.0,0.0,0.0,0.0,0.0,0.0,0.0,6.0069,0.0,0.0,0.0,0.0,0.0,6.1656,0.0,0.0,0.0,0.0,6.1699,6.1699,0.0,6.1699,6.1657,6.1402,6.1288,6.1224,6.0924,6.0806,6.0806,6.0806,6.0806,6.0806,6.0806,6.0806,6.0806,6.0806,6.0806,6.0806,6.0806,6.0806,6.0806,0.0,0.0,0.0,0.0,0.0,6.0047,6.0084,6.0495,6.0775,6.0746,6.072,6.072,6.072,6.0769,6.0806,6.0806,6.0806,6.0806,6.0806,6.0806,6.0806,6.0806,6.0806,6.0806,6.0806,6.0806,6.0788,0.0,0.0,0.0,0.0,0.0,0.0,0.0,0.0,0.0,0.0,6.0806,6.0806,6.0806,6.0806,6.0806,6.0806,6.0806,6.0806,6.0806,6.0806,6.0806,6.0806,6.0806,6.0883,6.1001,6.1001,6.1232,6.1504,6.1504,6.1585,6.1699,6.1699,6.1699,6.1699,6.1699,6.1699,6.1699,6.1699,6.1699,6.1699,6.1699,6.1699,6.1658,6.1517,6.1606,6.1635,0.0,0.0,0.0,0.0,0.0,0.0,0.0,0.0,0.0,0.0,6.1,0.0,0.0,6.1262,0.0,0.0,0.0,0.0,6.1699,6.1699,6.1699,6.1699,6.1699,6.1635,6.1512,6.1361,6.1207,6.1023,6.0874,6.0806,6.0806,6.0806,6.0806,6.0806,6.0806,6.0806,6.0806,6.0806,6.0806,6.0806,6.0806,6.0806,6.0806,0.0,0.0,0.0,0.0,0.0,0.0,0.0,6.0684,6.0806,6.0806,6.0806,6.0806,6.0806,6.0806,6.0806,6.0806,6.0806,6.0806,6.0806,6.0806,6.0806,6.0806,6.0806,6.0806,6.0806,6.0806,6.0806,0.0,0.0,0.0,0.0,0.0,0.0,0.0,0.0,6.0806,6.0806,6.0806,6.0806,6.0806,6.0806,6.0806,6.0806,6.0806,6.0806,6.0806,6.0806,6.0806,6.0806,6.0806,6.0969,6.1186,6.1186,6.1374,6.1612,6.1612,6.1657,6.1699,6.1699,6.1699,6.1699,6.1699,6.1699,6.1699,6.1699,6.1699,6.1699,6.1699,6.1699,6.1679,6.1633,6.1658,6.1679,0.0,0.0,0.0,0.0,0.0,0.0,0.0,0.0,0.0,0.0,6.1344,0.0,0.0,0.0,0.0,0.0,0.0,0.0,6.1699,0.0,6.1699,6.1699,6.1699,6.1634,6.1502,6.1357,6.12,6.0993,6.0864,6.0806,6.0806,6.0806,6.0806,6.0806,6.0806,6.0806,6.0806,6.0806,6.0806,6.0806,6.0806,6.0806,6.0806,5.8179,0.0,5.9056,0.0,5.9984,6.0494,6.1098,6.1172,6.1268,6.1493,6.1531,6.1358,6.0845,6.0806,6.0806,6.0806,6.0806,6.0806,6.0806,6.0806,6.0806,6.0806,6.0806,0.0,6.0806,6.0806,6.0806,6.0806,6.0476,0.0,0.0,0.0,0.0,0.0,6.0806,6.0806,6.0806,6.0806,6.0806,6.0806,6.0806,6.0806,6.0806,6.0806,6.0806,6.0806,6.0806,6.0806,6.0806,6.0806,6.1015,6.1306,6.1306,6.1455,6.1656,6.1699,6.1699,6.1699,6.1699,6.1699,6.1699,6.1699,6.1699,6.1699,6.1699,6.1699,6.1699,6.1699,6.1699,6.1699,6.1699,6.1699,6.1699,6.1699,0.0,0.0,0.0,0.0,0.0,0.0,6.1699,6.1658,6.1576,6.1516,0.0,0.0,0.0,0.0,0.0,0.0,0.0,0.0,0.0,0.0,6.1699,6.1699,6.161,6.1442,6.1356,6.1169,6.0945,6.0845,6.0806,6.0806,6.0806,6.0806,6.0806,6.0806,6.0806,6.0806,6.0806,6.0806,6.0806,6.0806,6.0806,6.0806,5.8601,5.9065,5.9553,6.001,6.0482,6.1089,6.1941,6.2076,6.2364,6.316,6.3275,6.2641,6.0973,6.0806,6.0806,6.0806,6.0806,6.0806,6.0806,6.0806,6.0806,0.0,0.0,6.0806,6.0806,6.0806,6.0806,6.0806,0.0,0.0,6.08,0.0,6.0781,6.0806,6.0806,6.0806,6.0806,6.0806,6.0806,6.0806,6.0806,6.0806,6.0806,6.0806,6.0806,6.0806,6.0806,6.0806,6.0806,6.0806,6.1015,6.1306,6.1306,6.1383,6.1538,6.1658,6.1699,6.1699,6.1699,6.1699,6.1699,6.1699,6.1699,6.1699,6.1699,6.1699,6.1699,6.1699,6.1699,6.1699,6.1699,6.1699,6.1699,6.1699,0.0,0.0,0.0,0.0,0.0,0.0,6.1699,6.1699,6.1699,6.1579,0.0,0.0,0.0,0.0,0.0,0.0,0.0,6.1699,6.1699,0.0,6.1699,6.1699,6.1575,6.1309,6.1306,6.1136,6.0806,6.0806,6.0806,6.0806,6.0806,6.0806,6.0806,6.0806,6.0806,6.0806,6.0806,6.0806,6.0806,6.0806,6.0806,6.0806,5.9008,5.9852,6.0617,6.0754,6.1465,6.212,6.2407,6.2701,6.3006,6.3275,6.3295,6.3102,6.2564,6.2506,6.2506,0.0,6.1993,6.1691,0.0,6.1133,6.0806,6.0806,6.0806,6.0806,6.0806,6.0806,6.0806,6.0806,0.0,0.0,0.0,6.0806,6.0806,6.0806,6.0806,6.0806,6.0806,6.0806,6.0806,6.0806,6.0806,6.0806,6.0806,6.0806,6.0806,6.0806,6.0806,6.0806,6.0816,6.0919,6.1008,6.1131,6.1352,6.1538,6.1636,6.1699,6.1699,6.1699,6.1699,6.1699,6.1699,6.1699,6.1699,6.1699,6.1699,6.1699,6.1699,6.1699,6.1699,6.1699,6.1699,6.1699,6.1699,6.1699,6.1699,0.0,0.0,0.0,0.0,0.0,6.1699,6.1699,6.1699,6.1658,0.0,0.0,0.0,0.0,0.0,0.0,0.0,0.0,6.1699,0.0,6.1699,6.1699,6.1575,6.1306,6.1306,6.1112,6.0806,6.0806,6.0806,6.0806,6.0806,6.0806,6.0806,6.0806,6.0806,6.0806,6.0806,6.0806,6.0806,6.0806,6.0806,6.0806,5.9913,6.0734,6.1463,6.1629,6.2328,6.2978,6.3303,6.3597,6.391,6.4224,6.4282,6.4282,6.4282,6.4282,0.0,6.3352,6.2839,6.2422,6.212,6.1595,6.1133,6.0806,6.0806,6.0806,6.0806,6.0806,0.0,6.0806,6.0806,6.0806,6.0806,6.0806,6.0806,6.0806,6.0806,6.0806,6.0806,6.0806,6.0806,6.0806,6.0806,6.0806,6.0806,6.0806,6.0806,6.0806,6.0806,6.0806,6.0814,6.0959,6.1056,6.1156,6.1417,6.1584,6.1699,6.1699,6.1699,6.1699,6.1699,6.1699,6.1699,6.1699,6.1699,6.1699,6.1699,6.1699,6.1699,6.1699,6.1699,6.1699,6.1699,6.1699,6.1699,6.1699,6.1699,6.1699,6.1699,0.0,0.0,0.0,0.0,0.0,0.0,6.1699,6.1699,0.0,0.0,0.0,0.0,0.0,0.0,6.1699,6.1699,0.0,6.1699,6.1656,6.1512,6.1303,6.117,6.1007,6.0806,6.0806,6.0806,6.0806,6.0806,6.0806,6.0806,6.0806,6.0806,6.0806,6.0806,6.0806,6.0806,6.0806,6.0806,6.0806,6.1126,6.1652,6.2158,0.0,6.3091,0.0,6.4513,6.4667,6.4974,6.5788,6.5904,6.5904,6.5904,6.5904,6.5243,6.3622,0.0,0.0,0.0,6.2153,6.1729,6.0941,6.0825,6.0806,6.0806,6.0806,6.0806,6.0806,6.0806,6.0806,6.0806,6.0806,6.0806,6.0806,6.0806,6.0806,6.0806,6.0806,6.0806,6.0806,6.0806,6.0806,6.0806,6.0806,6.0806,6.0806,6.0806,6.0806,6.0814,6.0959,6.1123,6.1312,6.1457,6.1584,6.1699,6.1699,6.1699,6.1699,6.1699,6.1699,6.1699,6.1699,6.1699,6.1699,6.1699,6.1699,6.1699,6.1699,6.1699,6.1699,6.1699,6.1699,6.1699,6.1699,6.1699,6.1699,6.1699,0.0,0.0,0.0,0.0,0.0,0.0,6.1699,6.1699,0.0,0.0,0.0,0.0,0.0,6.1699,6.1699,6.1699,6.1699,6.1699,6.1576,6.1434,6.1285,6.0949,6.0806,6.0806,6.0806,6.0806,6.0806,6.0806,6.0806,6.0806,6.0806,6.0806,6.0806,6.0806,6.0806,6.0806,6.0806,6.0806,6.0806,0.0,0.0,6.3221,6.3336,6.4081,6.4748,6.4939,6.5323,6.5673,6.5859,6.5904,6.5904,6.5904,6.5904,6.5731,6.532,6.4686,6.4205,6.4012,6.2807,6.1999,6.1806,6.1152,6.0806,6.0806,6.0806,6.0806,6.0806,6.0806,6.0806,6.0806,6.0806,6.0806,6.0806,6.0806,6.0806,6.0806,6.0806,6.0806,6.0806,6.0806,6.0806,6.0806,6.0806,6.0806,6.0806,6.0806,6.0806,6.0814,6.0959,6.1123,6.1312,6.1457,6.1584,6.1699,6.1699,6.1699,6.1699,6.1699,6.1699,6.1699,6.1699,6.1699,6.1699,6.1699,6.1699,6.1699,6.1699,6.1699,6.1699,6.1699,6.1699,6.1699,6.1699,6.1699,6.1699,6.1699,6.1699,0.0,0.0,6.1699,6.1699,6.1699,6.1699,6.1699,0.0,0.0,0.0,0.0,6.1699,6.1699,6.1699,6.1699,6.1699,6.1699,6.1576,6.1354,6.1077,6.0882,6.0806,6.0806,6.0806,6.0806,6.0806,6.0806,6.0806,6.0806,6.0806,6.0806,6.0806,6.0806,6.0806,6.0806,6.0806,6.0806,6.0806,6.2777,6.3459,6.4118,6.4563,6.5102,6.5473,6.5473,6.5703,6.5904,6.5904,6.5904,6.5904,6.5904,6.5904,6.5904,6.5904,6.5474,6.5032,6.4628,6.3743,6.2903,6.2133,6.1652,6.121,6.0806,6.0806,6.0806,6.0806,6.0806,6.0806,6.0806,6.0806,6.0806,6.0806,6.0806,6.0806,6.0806,6.0806,6.0806,6.0806,6.0806,6.0806,6.0806,6.0806,6.0806,6.0806,6.0806,6.0806,6.0814,6.0959,6.1123,6.1312,6.1457,6.1584,6.1699,6.1699,6.1699,6.1699,6.1699,6.1699,6.1699,6.1699,6.1699,6.1699,6.1699,6.1699,6.1699,6.1699,6.1699,6.1699,6.1699,6.1699,6.1699,6.1699,6.1699,6.1699,6.1699,6.1699,0.0,6.1699,6.1699,6.1699,6.1699,6.1699,6.1699,6.1699,6.1699,0.0,6.1699,6.1699,6.1699,6.1699,6.1699,6.1699,6.1699,6.1507,6.1236,6.0905,6.0828,6.0806,6.0806,6.0806,6.0806,6.0806,6.0806,6.0806,6.0806,6.0806,6.0806,6.0806,6.0806,6.0806,6.0806,6.0806,6.0806,6.0806,6.3987,6.4207,6.4573,6.5506,6.5729,6.5801,6.5891,6.5904,6.5904,6.5904,6.5904,6.5904,6.5904,6.5904,6.5904,6.5904,6.5904,6.559,6.4839,6.4666,6.3955,6.2537,6.223,6.1749,6.1018,6.0864,6.0806,6.0806,6.0806,6.0806,6.0806,6.0806,6.0806,6.0806,6.0806,6.0806,6.0806,6.0806,6.0806,6.0806,6.0806,6.0806,6.0806,6.0806,6.0806,6.0806,6.0806,6.0806,6.0821,6.093,6.1116,6.1329,6.1438,6.1579,6.1699,6.1699,6.1699,6.1699,6.1699,6.1699,6.1699,6.1699,6.1699,6.1699,6.1699,6.1699,6.1699,6.1699,6.1699,6.1699,6.1699,6.1699,6.1699,6.1699,6.1699,6.1699,6.1699,0.0,6.1699,6.1699,6.1699,6.1699,6.1699,6.1699,6.1699,6.1699,6.1699,6.1699,6.1699,6.1699,6.1699,6.1699,6.1699,6.1679,6.1635,6.1385,6.1092,6.0806,6.0806,6.0806,6.0806,6.0806,6.0806,6.0806,6.0806,6.0806,6.0806,6.0806,6.0806,6.0806,6.0806,6.0806,6.0806,6.0806,6.0806,6.0806,6.3026,6.3408,6.3915,6.4528,6.4962,6.5376,6.584,6.5904,6.5904,6.5904,6.5904,6.5904,6.5904,6.5904,6.5904,6.5904,6.5904,6.5846,6.5705,6.5013,6.4474,6.4224,6.2864,6.2037,6.1903,6.1172,6.0806,6.0806,6.0806,6.0806,6.0806,6.0806,6.0806,6.0806,6.0806,6.0806,6.0806,6.0806,6.0806,6.0806,6.0806,6.0806,6.0806,6.0806,6.0806,6.0806,6.0806,6.0806,6.0793,6.0819,6.1046,6.1289,6.1315,6.1504,6.1699,6.1699,6.1699,6.1699,6.1699,6.1699,6.1699,6.1699,6.1699,6.1699,6.1699,6.1699,6.1699,6.1699,6.1699,6.1699,6.1699,6.1699,6.1699,6.1699,6.1699,6.1699,6.1699,0.0,6.1699,6.1699,6.1699,6.1699,6.1699,6.1699,6.1699,6.1699,6.1699,6.1699,6.1699,6.1699,6.1699,6.1699,6.1699,6.1584,6.1357,6.1149,6.0954,6.0806,6.0806,6.0806,6.0806,6.0806,6.0806,6.0806,6.0806,6.0806,6.0806,6.0806,6.0806,6.0806,6.0806,6.0806,6.0806,6.0806,6.0806,6.0806,6.3168,6.3431,6.3842,6.4643,6.4952,6.5283,6.5827,6.5904,6.5904,6.5904,6.5904,6.5904,6.5904,6.5904,6.5904,6.5904,6.5904,6.5904,6.5904,6.5513,6.5089,6.4628,6.3858,6.3018,6.212,6.1248,6.0806,6.0806,6.0806,6.0806,6.0806,6.0806,6.0806,6.0806,6.0806,6.0806,6.0806,6.0806,6.0806,6.0806,6.0806,6.0806,6.0806,6.0806,6.0806,6.0806,6.0806,6.0806,6.0806,6.0806,6.1015,6.1306,6.1306,6.1474,6.1699,6.1699,6.1699,6.1699,6.1699,6.1699,6.1699,6.1699,6.1699,6.1699,6.1699,6.1699,6.1699,6.1699,6.1699,6.1699,6.1699,6.1699,6.1699,6.1699,6.1699,0.0,0.0,6.1699,6.1699,6.1699,6.1699,6.1699,6.1699,6.1699,6.1699,6.1699,6.1699,6.1699,6.1699,6.1699,6.1699,6.1699,6.1633,6.1502,6.1309,6.1109,6.0935,6.0806,6.0806,6.0806,6.0806,6.0806,6.0806,6.0806,6.0806,6.0806,6.0806,6.0806,6.0806,6.0806,6.0806,6.0806,6.0806,6.0806,6.0806,6.0806,6.3335,6.3408,6.3702,6.4598,6.485,6.5099,6.563,6.5814,6.5904,6.5904,6.5904,6.5904,6.5904,6.5904,6.5904,6.5904,6.5904,6.5904,6.5904,6.5904,6.559,6.4936,6.4705,6.382,6.2133,6.1441,6.0998,6.0806,6.0806,6.0806,6.0806,6.0806,6.0806,6.0806,6.0806,6.0806,6.0806,6.0806,6.0806,6.0806,6.0806,6.0806,6.0806,6.0806,6.0806,6.0806,6.0806,6.0806,6.0806,6.0806,6.1015,6.1306,6.1306,6.1474,6.1699,6.1699,6.1699,6.1699,6.1699,6.1699,6.1699,6.1699,6.1699,6.1699,6.1699,6.1699,6.1699,6.1699,6.1699,6.1699,6.1699,6.1699,6.1699,6.1699,0.0,0.0,0.0,6.1699,6.1699,6.1699,6.1699,6.1699,6.1699,6.1699,6.1699,6.1699,6.1699,6.1699,6.1699,6.1699,6.1699,6.1699,6.1544,6.1394,6.1306,6.108,6.089,6.0806,6.0806,6.0806,6.0806,6.0806,6.0806,6.0806,6.0806,6.0806,6.0806,6.0806,6.0806,6.0806,6.0806,6.0806,6.0806,6.0806,6.0806,6.0806,6.2855,6.2867,6.305,6.3604,6.4109,6.4599,6.5091,6.5576,6.5904,6.5904,6.5904,6.5904,6.5904,6.5904,6.5904,6.5904,6.5904,6.5904,6.5904,6.5904,6.5859,6.5801,6.5032,6.382,6.2133,6.2037,6.1614,6.0806,6.0806,6.0806,6.0806,6.0806,6.0806,6.0806,6.0806,6.0806,6.0806,6.0806,6.0806,6.0806,6.0806,6.0806,6.0806,6.0806,6.0806,6.0806,6.0806,6.0806,6.0806,6.0806,6.1015,6.1306,6.1306,6.1474,6.1699,6.1699,6.1699,6.1699,6.1699,6.1699,6.1699,6.1699,6.1699,6.1699,6.1699,6.1699,6.1699,6.1699,6.1699,6.1699,6.1699,6.1699,6.1699,6.1699,0.0,0.0,6.1699,6.1699,6.1699,6.1699,6.1699,6.1699,6.1699,6.1699,6.1699,6.1699,6.1699,6.1699,6.1699,6.1699,6.1699,6.1699,6.1449,6.1317,6.1306,6.0969,6.0804,6.0806,6.0806,6.0806,6.0806,6.0806,6.0806,6.0806,6.0806,6.0806,6.0806,6.0806,6.0806,6.0806,6.0806,6.0806,6.0806,6.0806,6.0806,6.0806,6.2793,6.2793,6.2965,6.3509,6.4048,6.4564,6.5024,6.5556,6.5904,6.5904,6.5904,6.5904,6.5904,6.5904,6.5904,6.5904,6.5904,6.5904,6.5904,6.5904,6.5904,6.5904,6.507,6.4301,6.3666,6.2633,6.1941,6.1614,6.1056,6.0806,6.0806,6.0806,6.0806,6.0806,6.0806,6.0806,6.0806,6.0806,6.0806,6.0806,6.0806,6.0806,6.0806,6.0806,6.0806,6.0806,6.0806,6.0806,6.0806,6.0806,6.093,6.1143,6.1256,6.1432,6.1584,6.1679,6.1699,6.1699,6.1699,6.1699,6.1699,6.1699,6.1699,6.1699,6.1699,6.1699,6.1699,6.1699,6.1699,6.1699,6.1699,6.1699,6.1699,6.1699,0.0,6.1699,6.1699,6.1699,6.1699,6.1699,6.1699,6.1699,6.1699,6.1699,6.1699,6.1699,6.1699,6.1699,6.1699,6.1699,6.1699,6.1699,6.1442,6.1306,6.1306,6.0974,6.0806,6.0806,6.0806,6.0806,6.0806,6.0806,6.0806,6.0806,6.0806,6.0806,6.0806,6.0806,6.0806,6.0806,6.0806,6.0806,6.0806,6.0806,6.0806,6.0806,6.2793,6.2793,6.2923,6.3278,6.3936,6.4518,6.4835,6.5458,6.5904,6.5904,6.5904,6.5904,6.5904,6.5904,6.5904,6.5904,6.5904,6.5904,6.5904,6.5904,6.5904,6.5904,6.532,6.4878,6.4609,6.348,6.2633,6.2095,6.1499,6.1075,6.0806,6.0806,6.0806,6.0806,6.0806,6.0806,6.0806,6.0806,6.0806,6.0806,6.0806,6.0806,6.0806,6.0806,6.0806,6.0806,6.0806,6.0806,6.0806,6.0806,6.0883,6.104,6.1234,6.1428,6.158,6.1678,6.1699,6.1699,6.1699,6.1699,6.1699,6.1699,6.1699,6.1699,6.1699,6.1699,6.1699,6.1699,6.1699,6.1699,6.1699,6.1699,6.1699,6.1699,6.1699,6.1699,6.1699,6.1699,6.1699,6.1699,6.1699,6.1699,6.1699,6.1699,6.1699,6.1699,6.1699,6.1699,6.1699,6.1699,6.1699,6.1699,6.1442,6.1306,6.1306,6.0974,6.0806,6.0806,6.0806,6.0806,6.0806,6.0806,6.0806,6.0806,6.0806,6.0806,6.0806,6.0806,6.0806,6.0806,6.0806,6.0806,6.0806,6.0806,6.0806,6.0806,6.2793,6.2793,6.2793,6.2793,6.3691,6.4398,6.4398,6.5249,6.5897,6.5904,6.5904,6.5904,6.5904,6.5904,6.5904,6.5904,6.5904,6.5904,6.5904,6.5904,6.5904,6.5904,6.5904,6.5493,6.4628,6.4609,6.3782,6.212,6.2114,6.1652,6.0806,6.0806,6.0806,6.0806,6.0806,6.0806,6.0806,6.0806,6.0806,6.0806,6.0806,6.0806,6.0806,6.0806,6.0806,6.0806,6.0806,6.0806,6.0806,6.0806,6.0883,6.1036,6.1234,6.1474,6.1699,6.1699,6.1699,6.1699,6.1699,6.1699,6.1699,6.1699,6.1699,6.1699,6.1699,6.1699,6.1699,6.1699,6.1699,6.1699,6.1699,6.1699,6.1699,6.1699,6.1699,6.1699,6.1699,6.1699,6.1699,6.1699,6.1699,6.1699,6.1699,6.1699,6.1699,6.1699,6.1699,6.1699,6.1699,6.1699,6.1699,6.1699,6.1442,6.1306,6.1306,6.0974,6.0806,6.0806,6.0806,6.0806,6.0806,6.0806,6.0806,6.0806,6.0806,6.0806,6.0806,6.0806,6.0806,6.0806,6.0806,6.0806,6.0806,6.0806,6.0806,6.0806,6.2793,6.2793,6.2793,6.2793,6.3374,6.3966,6.4341,6.4919,6.5461,6.5853,6.5904,6.5904,6.5904,6.5904,6.5904,6.5904,6.5904,6.5904,6.5904,6.5904,6.5904,6.5904,6.5904,6.5788,6.5513,6.4916,6.4359,6.3839,6.2672,6.196,6.1691,6.1095,6.0806,6.0806,6.0806,6.0806,6.0806,6.0806,6.0806,6.0806,6.0806,6.0806,6.0806,6.0806,6.0806,6.0806,6.0806,6.0806,6.0806,6.0806,6.0825,6.0904,6.1213,6.1426,6.1579,6.1678,6.1699,6.1699,6.1699,6.1699,6.1699,6.1699,6.1699,6.1699,6.1699,6.1699,6.1699,6.1699,6.1699,6.1699,6.1699,6.1699,6.1699,6.1699,6.1699,6.1699,6.1699,6.1699,6.1699,6.1699,6.1699,6.1699,6.1699,6.1699,6.1699,6.1699,6.1699,6.1699,6.1699,6.1699,6.1699,6.1699,6.1442,6.1306,6.1306,6.0974,6.0806,6.0806,6.0806,6.0806,6.0806,6.0806,6.0806,6.0806,6.0806,6.0806,6.0806,6.0806,6.0806,6.0806,6.0806,6.0806,6.0806,6.0806,6.0806,6.0806,6.2793,6.2793,6.2793,6.2793,6.3419,6.4027,6.4351,6.4979,6.5522,6.5853,6.5904,6.5904,6.5904,6.5904,6.5904,6.5904,6.5904,6.5904,6.5904,6.5904,6.5904,6.5904,6.5904,6.5904,6.5904,6.5378,6.4955,6.4609,6.3243,6.2403,6.2076,6.121,6.0806,6.0806,6.0806,6.0806,6.0806,6.0806,6.0806,6.0806,6.0806,6.0806,6.0806,6.0806,6.0806,6.0806,6.0806,6.0806,6.0806,6.0806,6.0847,6.092,6.12,6.1383,6.1537,6.1658,6.1699,6.1699,6.1699,6.1699,6.1699,6.1699,6.1699,6.1699,6.1699,6.1699,6.1699,6.1699,6.1699,6.1699,6.1699,6.1699,6.1699,6.1699,6.1699,6.1699,6.1699,6.1699,6.1699,6.1699,6.1699,6.1699,6.1699,6.1699,6.1699,6.1699,6.1699,6.1699,6.1699,6.1699,6.1679,6.1612,6.14,6.1256,6.1186,6.0938,6.0806,6.0806,6.0806,6.0806,6.0806,6.0806,6.0806,6.0806,6.0806,6.0806,6.0806,6.0806,6.0806,6.0806,6.0806,6.0806,6.0806,6.0806,6.0806,6.0806,6.2793,6.2793,6.2793,6.2793,6.3604,6.4294,6.4389,6.5188,6.5795,6.5891,6.5904,6.5904,6.5904,6.5904,6.5904,6.5904,6.5904,6.5904,6.5904,6.5904,6.5904,6.5904,6.5904,6.5904,6.5904,6.5904,6.5513,6.4724,6.3833,6.2993,6.2191,6.1325,6.0864,6.0806,6.0806,6.0806,6.0806,6.0806,6.0806,6.0806,6.0806,6.0806,6.0806,6.0806,6.0806,6.0806,6.0806,6.0806,6.0806,6.0806,6.0887,6.1014,6.123,6.1376,6.1509,6.1657,6.1699,6.1699,6.1699,6.1699,6.1699,6.1699,6.1699,6.1699,6.1699,6.1699,6.1699,6.1699,6.1699,6.1699,6.1699,6.1699,6.1699,6.1699,6.1699,6.1699,6.1699,6.1699,6.1699,6.1699,6.1699,6.1699,6.1699,6.1699,6.1699,6.1699,6.1699,6.1699,6.1699,6.1699,6.1636,6.1515,6.1388,6.1214,6.1031,6.089,6.0806,6.0806,6.0806,6.0806,6.0806,6.0806,6.0806,6.0806,6.0806,6.0806,6.0806,6.0806,6.0806,6.0806,6.0806,6.0806,6.0806,6.0806,6.0806,6.0806,6.2793,6.2793,6.2793,6.2793,6.299,6.3442,6.4274,6.4582,6.5006,6.5795,6.5904,6.5904,6.5904,6.5904,6.5904,6.5904,6.5904,6.5904,6.5904,6.5904,6.5904,6.5904,6.5904,6.5904,6.5904,6.5904,6.5801,6.5609,6.4743,6.3878,6.3025,6.221,6.1441,6.0806,6.0806,6.0806,6.0806,6.0806,6.0806,6.0806,6.0806,6.0806,6.0806,6.0806,6.0806,6.0806,6.0806,6.0806,6.0806,6.0806,6.0827,6.0892,6.1209,6.1329,6.138,6.1633,6.1699,6.1699,6.1699,6.1699,6.1699,6.1699,6.1699,6.1699,6.1699,6.1699,6.1699,6.1699,6.1699,6.1699,6.1699,6.1699,6.1699,6.1699,6.1699,6.1699,6.1699,6.1699,6.1699,6.1699,6.1699,6.1699,6.1699,6.1699,6.1699,6.1699,6.1699,6.1699,6.1699,6.1699,6.1699,6.1657,6.1411,6.1288,6.1234,6.0944,6.0806,6.0806,6.0806,6.0806,6.0806,6.0806,6.0806,6.0806,6.0806,6.0806,6.0806,6.0806,6.0806,6.0806,6.0806,6.0806,6.0806,6.0806,6.0806,6.0806,6.2793,6.2793,6.2793,6.2793,6.3014,6.3464,6.4284,6.4581,6.5011,6.5795,6.5904,6.5904,6.5904,6.5904,6.5904,6.5904,6.5904,6.5904,6.5904,6.5904,6.5904,6.5904,6.5904,6.5904,6.5904,6.5904,6.5904,6.5904,6.5032,6.4141,6.3275,6.248,6.1633,6.0806,6.0806,6.0806,6.0806,6.0806,6.0806,6.0806,6.0806,6.0806,6.0806,6.0806,6.0806,6.0806,6.0806,6.0806,6.0806,6.0806,6.0806,6.085,6.1195,6.1306,6.1344,6.1612,6.1699,6.1699,6.1699,6.1699,6.1699,6.1699,6.1699,6.1699,6.1699,6.1699,6.1699,6.1699,6.1699,6.1699,6.1699,6.1699,6.1699,6.1699,6.1699,6.1699,6.1699,6.1699,6.1699,6.1699,6.1699,6.1699,6.1699,6.1699,6.1699,6.1699,6.1699,6.1699,6.1699,6.1699,6.1678,6.1608,6.1464,6.1326,6.1165,6.0977,6.0869,6.0806,6.0806,6.0806,6.0806,6.0806,6.0806,6.0806,6.0806,6.0806,6.0806,6.0806,6.0806,6.0806,6.0806,6.0806,6.0806,6.0806,6.0806,6.0806,6.2793,6.2793,6.2793,6.2793,6.3231,6.3787,6.4322,6.481,6.5291,6.5833,6.5904,6.5904,6.5904,6.5904,6.5904,6.5904,6.5904,6.5904,6.5904,6.5904,6.5904,6.5904,6.5904,6.5904,6.5904,6.5904,6.5904,6.5904,6.5186,6.4301,6.3295,6.2627,6.1768,6.0806,6.0806,6.0806,6.0806,6.0806,6.0806,6.0806,6.0806,6.0806,6.0806,6.0806,6.0806,6.0806,6.0806,6.0806,6.0806,6.0806,6.0806,6.085,6.1195,6.1306,6.1344,6.1612,6.1699,6.1699,6.1699,6.1699,6.1699,6.1699,6.1699,6.1699,6.1699,6.1699,6.1699,6.1699,6.1699,6.1699,6.1699,6.1699,6.1699,6.1699,6.1699,6.1699,6.1699,6.1699,6.1699,6.1699,6.1699,6.1699,6.1699,6.1699,6.1699,6.1699,6.1699,6.1699,6.1699,6.1699,6.1656,6.1543,6.1509,6.1365,6.1097,6.102,6.0935,6.0823,6.081,6.0806,6.0806,6.0806,6.0806,6.0806,6.0806,6.0806,6.0806,6.0806,6.0806,6.0806,6.0806,6.0806,6.0806,6.0806,6.0806,6.0806,6.2793,6.2793,6.2793,6.2793,6.3231,6.3787,6.4322,6.481,6.5291,6.5833,6.5904,6.5904,6.5904,6.5904,6.5904,6.5904,6.5904,6.5904,6.5904,6.5904,6.5904,6.5904,6.5904,6.5904,6.5904,6.5904,6.5904,6.5904,6.5788,6.4897,6.3295,6.3179,6.23,6.0806,6.0806,6.0806,6.0806,6.0806,6.0806,6.0806,6.0806,6.0806,6.0806,6.0806,6.0806,6.0806,6.0806,6.0806,6.0806,6.0806,6.0806,6.085,6.1195,6.1306,6.1344,6.1612,6.1699,6.1699,6.1699,6.1699,6.1699,6.1699,6.1699,6.1699,6.1699,6.1699,6.1699,6.1699,6.1699,6.1699,6.1699,6.1699,6.1699,6.1699,6.1699,6.1699,6.1699,6.1699,6.1699,6.1699,6.1699,6.1699,6.1699,6.1699,6.1699,6.1699,6.1699,6.1699,6.1699,6.1699,6.1699,6.1678,6.1553,6.1474,6.1428,6.1144,6.0984,6.0967,6.0853,6.0806,6.0806,6.0806,6.0806,6.0806,6.0806,6.0806,6.0806,6.0806,6.0806,6.0806,6.0806,6.0806,6.0806,6.0806,6.0806,6.0806,6.2793,6.2793,6.2793,6.2793,6.3002,6.3423,6.4274,6.4582,6.4995,6.5795,6.5904,6.5904,6.5904,6.5904,6.5904,6.5904,6.5904,6.5904,6.5904,6.5904,6.5904,6.5904,6.5904,6.5904,6.5904,6.5904,6.5904,6.5904,6.5904,6.5263,6.4025,6.3525,6.2666,6.1499,6.1018,6.0806,6.0806,6.0806,6.0806,6.0806,6.0806,6.0806,6.0806,6.0806,6.0806,6.0806,6.0806,6.0806,6.0806,6.0806,6.0806,6.0842,6.1063,6.121,6.1348,6.152,6.1635,6.1699,6.1699,6.1699,6.1699,6.1699,6.1699,6.1699,6.1699,6.1699,6.1699,6.1699,6.1699,6.1699,6.1699,6.1699,6.1699,6.1699,6.1699,6.1699,6.1699,6.1699,6.1699,6.1699,6.1699,6.1699,6.1699,6.1699,6.1699,6.1699,6.1699,6.1699,6.1699,6.1699,6.1699,6.1699,6.1636,6.1579,6.1504,6.1278,6.112,6.0997,6.085,6.0806,6.0806,6.0806,6.0806,6.0806,6.0806,6.0806,6.0806,6.0806,6.0806,6.0806,6.0806,6.0806,6.0806,6.0806,6.0806,6.0806]}]]